     2              OBSERVATION DATA    GPS                 RINEX VERSION / TYPE
ASRINEXO V2.2.0 UX USGS 15-AUG-94 14:00                     PGM / RUN BY / DATE
                                                            COMMENT
Original Marker Name: MILL                                  COMMENT
Campaign Name: USGS-So. Cal Monit                           COMMENT
4-Character Station Name: MLUN                              COMMENT
6-Character Antenna Code: ASHL12                            COMMENT
Vertical Measurement Point: BBE                             COMMENT
Vertical Offset to Rinex Ref. Point: 0.0595                 COMMENT
Radial Measurement Point: EGP                               COMMENT
Radial Offset to Rinex Ref. Point: 0.1424                   COMMENT
Antenna Height from Field Measurement: 1.4090 m             COMMENT
Additional Antenna Identification Info.:                    COMMENT
Original Ashtech L1/L2 (700228ABC)                          COMMENT
Original XYZ: -2666864.7600 -4267875.7600 3905567.1000      COMMENT
New XYZ position is based on association with SCEC monument COMMENT
E1F2B6W9+0011. Position of that monument is believed to be  COMMENT
valid to within 1 m horizontally; vertical accuracy         COMMENT
should be no worse than 3-times this value.                 COMMENT
                                                            COMMENT
Revised Rinex header created by UCSD GPS archive for        COMMENT
GSAC on 11-Jul-2000 (2000:193) 17:43:53 GMT                 COMMENT
For assistance contact dagnew@ucsd.edu                      COMMENT
or anderson@python.ucsd.edu                                 COMMENT
                                                            COMMENT
UNSTAMPED (MILL WRITTEN IN CONCRETE)                        MARKER NAME
                                                            MARKER NUMBER
GDH US GEOLOGICAL SURVEY                                    OBSERVER / AGENCY
763 ASHTECH L-XII 6A                                        REC # / TYPE / VERS
616 ASHTECH GEODETIC L                                      ANT # / TYPE
 -2419596.6868 -4689481.3119  3573079.3046                  APPROX POSITION XYZ
        1.3423        0.0000        0.0000                  ANTENNA: DELTA H/E/N
     1     2     0                                          WAVELENGTH FACT L1/2
     3    C1    L1    L2                                    # / TYPES OF OBSERV
    30                                                      INTERVAL
  1991     5     6    18    52   30.000000                  TIME OF FIRST OBS
  1991     5     7     1    23   30.000000                  TIME OF LAST OBS
                                                            END OF HEADER
 91  5  6 18 52 30.0000000  0  1 19
  20574169.697         222.049 7       173.309 9
 91  5  6 18 53  0.0000000  0  1 19
  20574204.179         434.602 7       338.938 9
 91  5  6 18 53 30.0000000  0  2 19  2
  20874103.062         997.079 7       777.249 9
  24076802.076     -218867.252 5   -170545.641 4
 91  5  6 18 54  0.0000000  0  2 19  2
  20574485.677        1897.881 7      1479.161 9
  23760887.680     -303603.594 5   -236574.178 4
 91  5  6 18 54 30.0000000  0  4 19 18 11  2
  21174287.650        3060.284 7      2384.934 9
  20784510.687      108274.798 8     84369.783 9
  24111780.061     -168433.357 6   -131247.066 3
  24344397.728     -388078.794 5   -302399.197 4
 91  5  6 18 55  0.0000000  0  4 19 18 11  2
  20874772.496        4496.646 7      3504.181 9
  20492155.174      147343.996 8    114813.253 9
  23801353.068     -224325.184 6   -174798.965 3
  24028574.761     -472296.225 5   -368023.372 3
 91  5  6 18 55 30.0000000  0  4 19 18 11  2
  20875102.864        6245.857 7      4867.202 9
  20499701.251      187008.134 8    145720.319 9
  23790805.764     -279729.609 6   -217971.022 3
  24012609.618     -556203.921 5   -433406.177 3
 91  5  6 18 56  0.0000000  0  4 19 18 11  2
  20875489.901        8258.460 7      6435.467 9
  20507355.256      227219.975 8    177054.160 9
  23780352.603     -334694.285 6   -260800.451 2
  23996687.935     -639852.221 5   -498586.903 3
 91  5  6 18 56 30.0000000  0  4 19 18 11  2
  20875926.994       10576.580 7      8241.782 9
  20515119.277      268021.711 8    208847.656 9
  23769977.385     -389173.990 6   -303252.000 3
  23980833.417     -723197.495 5   -563531.455 2
 91  5  6 18 57  0.0000000  0  5 19 18 16 11  2
  20876421.952       13189.431 7     10277.777 9
  20522991.533      309402.167 8    241092.116 9
  24789452.217     -297141.778 5   -231538.451 2
  23759706.195     -443176.489 6   -345331.620 3
  23965030.151     -806249.713 5   -628247.646 4
 91  5  6 18 57 30.0000000  0  5 19 18 16 11  2
  20876981.668       16110.556 7     12553.966 9
  20530981.298      351374.770 8    273797.980 9
  24778362.595     -355408.368 5   -276940.995 1
  23749521.349     -496685.273 6   -387026.615 3
  23949278.162     -888993.666 5   -692723.642 4
 91  5  6 18 58  0.0000000  0  5 19 18 16 11  2
  20877599.240       19352.873 7     15080.441 9
  20539079.290      393953.561 8    306976.190 9
  24767370.406     -413123.955 5   -321914.164 3
  23739432.131     -549683.787 6   -428323.964 2
  23933597.214     -971414.350 5   -756947.742 3
 91  5  6 18 58 30.0000000  0  5 19 18 16 11  2
  20878268.979       22871.857 7     17822.501 9
  20547291.205      437093.758 8    340591.861 9
  24756501.433     -470331.358 5   -366491.330 2
  23729434.351     -602213.872 6   -469256.300 3
  23917964.235    -1053554.960 5   -820953.608 4
 91  5  6 18 59  0.0000000  0  5 19 18 16 11  2
  20878988.181       26671.275 7     20783.089 9
  20555608.947      480799.341 8    374648.096 9
  24745699.609     -527023.644 5   -410667.162
  23719538.507     -654267.909 6   -509817.687 3
  23902392.717    -1135409.795 5   -884736.816 3
 91  5  6 18 59 30.0000000  0  5 19 18 16 11  2
  20879767.037       30741.467 7     23954.663 9
  20564031.618      525061.155 8    409137.755 9
  24735006.612     -583208.869 5   -454447.815 2
  23709720.299     -705852.355 6   -550013.181 3
  23886867.668    -1216986.926 5   -948303.614 3
 91  5  6 19  0  0.0000000  0  5 19 18 16 11  2
  20880591.769       35080.385 7     27335.644 9
  20572562.209      569876.688 8    444058.880 9
  24724419.443     -638886.785 5   -497833.187 3
  23699989.936     -756966.287 6   -589842.022 4
  23871395.973    -1298287.620 5  -1011654.985 4
 91  5  6 19  0 30.0000000  0  5 19 18 16 11  2
  20881463.268       39683.854 7     30922.761 9
  20581193.837      615241.942 8    479408.357 9
  24713922.806     -694059.824 5   -540825.168 3
  23690354.309     -807611.215 6   -629305.411 2
  23855977.048    -1379314.305 5  -1074792.859 4
 91  5  6 19  1  0.0000000  0  5 19 18 16 11  2
  20882396.217       44553.512 7     34717.298 9
  20589928.893      661158.965 8    515187.792 9
  24703531.105     -748723.889 5   -583420.517 2
  23680808.918     -857781.708 6   -668399.114 3
  23840611.791    -1460063.530 5  -1137714.561 3
 91  5  6 19  1 30.0000000  0  5 19 18 16 11  2
  20883372.644       49686.257 7     38716.840 9
  20598771.869      707624.201 8    551394.401 9
  24693210.444     -802879.837 5   -625619.919 2
  23671347.768     -907478.053 6   -707123.350 2
  23825293.894    -1540536.847 5  -1200421.245 4
 91  5  6 19  2  0.0000000  0  5 19 18 16 11  2
  20884394.032       55078.093 7     42918.274 9
  20607717.078      754633.741 8    588025.139 9
  24683003.411     -856529.717 5   -667424.979 3
  23661986.747     -956701.294 6   -745478.946 3
  23810031.157    -1620737.780 5  -1262915.218 3
 91  5  6 19  2 30.0000000  0  5 19 18 16 11  2
  20885470.588       60726.202 7     47319.407 9
  20616768.410      802184.249 8    625077.414 9
  24672898.007     -909674.502 5   -708836.471 2
  23652704.575    -1005451.345 6   -783465.828 2
  23794818.790    -1700667.391 5  -1325198.253 4
 91  5  6 19  3  0.0000000  0  5 19 18 16 11  2
  20886592.715       66629.729 7     51919.553 9
  20625917.175      850275.353 8    662550.927 9
  24662880.744     -962312.368 5   -749852.975 3
  23643518.030    -1053725.602 6   -821081.975 3
  23779663.381    -1780324.476 5  -1387268.934 5
 91  5  6 19  3 30.0000000  0  5 19 18 16 11  2
  20887761.601       72782.171 7     56713.669 9
  20635171.470      898900.515 8    700440.591 9
  24652961.212    -1014448.590 5   -790478.571 2
  23634424.128    -1101527.680 6   -858330.186 4
  23764556.544    -1859714.294 5  -1449131.381 3
 91  5  6 19  4  0.0000000  0  5 19 18 16 11  2
  20888985.358       79187.726 7     61705.005 9
  20644525.293      948063.646 8    738749.449 9
  24643121.723    -1066077.286 5   -830708.720 2
  23625422.564    -1148850.342 6   -895204.817 3
  23749503.061    -1938831.731 5  -1510781.075 4
 91  5  6 19  4 30.0000000  0  5 19 18 16 11  2
  20890251.982       85847.691 7     66894.584 9
  20653986.443      997765.839 8    777478.347 9
  24633409.045    -1117193.990 5   -870539.903 2
  23616503.138    -1195689.355 6   -931702.608 3
  23734492.751    -2017673.804 5  -1572216.204 3
 91  5  6 19  5  0.0000000  0  5 19 18 16 11  2
  20891567.773       92753.564 7     72275.781 9
  20663544.128     1047999.020 8    816621.010 9
  24623771.020    -1167805.558 5   -909977.455 3
  23607676.347    -1242050.283 5   -967827.858 3
  23719544.205    -2096247.634 5  -1633442.327 4
 91  5  6 19  5 30.0000000  0  5 19 18 16 11  2
  20892926.132       99907.999 7     77850.667 9
  20673207.038     1098765.091 8    856178.915 9
  24614238.821    -1217908.200 5   -949018.396 2
  23598955.383    -1287927.535 6  -1003576.197 4
  23704640.323    -2174548.953 5  -1694456.100 4
 91  5  6 19  6  0.0000000  0  5 19 18 16 11  2
  20894333.353      107306.043 7     83615.377 9
  20682963.184     1150058.367 8    896147.619 9
  24604803.750    -1267504.742 5   -987664.977 2
  23590313.564    -1333323.745 6  -1038949.738 4
  23689793.102    -2252581.829 5  -1755261.190 3
 91  5  6 19  6 30.0000000  0  5 19 18 16 11  2
  20895786.747      114944.855 7     89567.696 9
  20692827.251     1201876.421 8    936525.243 9
  24595457.116    -1316595.671 5  -1025917.596 2
  23581764.981    -1378237.920 6  -1073947.628 2
  23675001.634    -2330347.775 5  -1815857.803 4
 91  5  6 19  7  0.0000000  0  5 19 18 16 11  2
  20897286.314      122821.803 7     95705.583 9
  20702786.361     1254216.433 8    977309.594 9
  24586204.924    -1365181.736 5  -1063776.854 2
  23573308.134    -1422670.228 6  -1108570.053 3
  23660243.453    -2407848.087 5  -1876247.404 4
 91  5  6 19  7 30.0000000  0  5 19 18 16 11  2
  20898834.741      130938.961 7    102030.637 9
  20712846.499     1307080.254 8   1018502.108 9
  24577067.850    -1413259.272 5  -1101239.832 3
  23564940.328    -1466615.640 6  -1142813.087 3
  23645554.819    -2485079.233 5  -1936427.285 4
 91  5  6 19  8  0.0000000  0  5 19 18 16 11  2
  20900423.043      139294.904 7    108541.778 9
  20723004.367     1360466.002 8   1060101.305 9
  24568015.620    -1460827.354 5  -1138305.827 3
  23556686.741    -1510072.707 6  -1176675.564 3
  23630904.864    -2562040.854 5  -1996397.163 4
 91  5  6 19  8 30.0000000  0  5 19 18 16 11  2
  20902056.008      147890.828 7    115239.908 9
  20733261.762     1414374.486 8   1102107.829 9
  24559059.016    -1507883.918 5  -1174973.220 3
  23548503.906    -1553037.568 6  -1210154.537 3
  23616308.568    -2638731.169 5  -2056155.599 4
 91  5  6 19  9  0.0000000  0  5 19 18 16 11  2
  20903739.945      156721.713 7    122121.126 9
  20743619.295     1468800.170 8   1144517.366 9
  24550188.756    -1554431.807 5  -1211244.257 3
  23540420.904    -1595512.513 6  -1243251.739 3
  23601770.731    -2715153.623 5  -2115705.332 4
 91  5  6 19  9 30.0000000  0  5 19 18 16 11  2
  20905463.451      165789.157 7    129186.664 9
  20754078.746     1523745.049 8   1187331.484 9
  24541437.219    -1600467.329 5  -1247116.027 2
  23532425.738    -1637493.010 6  -1275963.683 3
  23587274.870    -2791305.416 5  -2175044.146 3
 91  5  6 19 10  0.0000000  0  5 19 18 16 11  2
  20907231.926      175089.645 7    136433.802 9
  20764629.645     1579204.916 8   1230546.882 9
  24532775.612    -1645992.931 5  -1282590.460 3
  23524537.603    -1678979.846 6  -1308290.943 4
  23572840.460    -2867188.687 6  -2234174.213 3
 91  5  6 19 10 30.0000000  0  5 19 18 16 11  2
  20909049.863      184619.970 7    143860.021 9
  20775280.970     1635176.308 8   1274160.871 9
  24524210.539    -1691009.684 5  -1317668.435 1
  23516734.607    -1719973.347 6  -1340233.811 3
  23558449.222    -2942805.398 6  -2293096.083 3
 91  5  6 19 11  0.0000000  0  5 19 18 16 11  2
  20910904.080      194379.964 7    151465.217 9
  20786030.627     1691658.575 8   1318172.947 9
  24515736.608    -1735516.072 5  -1352348.729 2
  23509032.334    -1760471.166 6  -1371790.422 2
  23544107.752    -3018154.713 6  -2351809.581 4
 91  5  6 19 11 30.0000000  0  5 19 18 16 11  2
  20912804.469      204373.799 7    159252.615 9
  20796875.920     1748654.565 8   1362585.321 9
  24507368.199    -1779506.670 5  -1386627.088 4
  23501421.203    -1800466.795 6  -1402955.746 3
  23529827.741    -3093231.593 6  -2410310.821 4
 91  5  6 19 12  0.0000000  0  5 19 18 16 11  2
  20914751.320      214602.353 7    167222.913 9
  20807819.545     1806165.328 8   1407398.827 9
  24499095.129    -1822978.483 5  -1420501.209 2
  23493907.803    -1839956.147 6  -1433726.530 4
  23515585.196    -3168033.532 6  -2468597.813 3
 91  5  6 19 12 30.0000000  0  5 19 18 16 11  2
  20916742.844      225055.340 7    175368.094 9
  20818859.704     1864180.250 8   1452605.171 9
  24490923.690    -1865939.611 5  -1453977.394 2
  23486478.652    -1878946.759 6  -1464108.704 4
  23501401.720    -3242569.642 6  -2526678.151 5
 91  5  6 19 13  0.0000000  0  5 19 18 16 11  2
  20918772.732      235732.133 7    183687.672 9
  20829996.389     1922698.227 8   1498203.506 9
  24482843.079    -1908390.135 5  -1487055.700 2
  23479160.118    -1917436.544 6  -1494100.650 4
  23487272.200    -3316839.585 6  -2584550.583 4
 91  5  6 19 13 30.0000000  0  5 19 18 16 11  2
  20920848.802      246631.681 7    192180.812 9
  20841226.617     1981717.998 8   1544192.843 9
  24474862.003    -1950328.895 5  -1519735.221 3
  23471933.319    -1955424.330 6  -1523701.414 4
  23473192.143    -3390842.704 6  -2642215.595 4
 91  5  6 19 14  0.0000000  0  5 19 18 16 11  2
  20922967.433      257757.624 7    200850.367 9
  20852553.082     2041242.019 8   1590575.106 9
  24466977.759    -1991751.000 5  -1552012.156 2
  23464796.460    -1992903.795 6  -1552906.091 5
  23459159.463    -3464574.304 6  -2699668.528 4
 91  5  6 19 14 30.0000000  0  5 19 18 16 11  2
  20925123.241      269110.255 7    209696.568 9
  20863976.971     2101269.785 8   1637349.908 9
  24459192.153    -2032654.410 5  -1583884.946 2
  23457764.231    -2029872.047 6  -1581712.412 4
  23445180.138    -3538033.252 6  -2756909.529 5
 91  5  6 19 15  0.0000000  0  5 19 18 16 11  2
  20927326.113      280685.938 7    218716.575 9
  20875492.597     2161797.521 8   1684514.290 9
  24451510.270    -2073041.283 5  -1615355.230 2
  23450824.035    -2066330.246 6  -1610121.316 3
  23431252.979    -3611222.169 6  -2813940.104 5
 91  5  6 19 15 30.0000000  0  5 19 18 16 11  2
  20929563.763      292460.622 7    227891.650 9
  20887104.155     2222800.171 8   1732048.715 9
  24443913.231    -2112934.267 5  -1646440.650 4
  23443984.867    -2102300.384 6  -1638149.904 4
  23417371.095    -3684164.330 6  -2870777.896 4
 91  5  6 19 16  0.0000000  0  5 19 18 16 11  2
  20931851.181      304466.750 7    237247.059 9
  20898808.958     2284309.981 8   1779978.340 9
  24436426.215    -2152299.405 5  -1677114.765 3
  23437231.441    -2137746.948 6  -1665770.496 4
  23403540.768    -3756825.727 6  -2927397.402 5
 91  5  6 19 16 30.0000000  0  5 19 18 16 11  2
  20934183.865      316709.890 7    246787.148 9
  20910609.686     2346331.929 8   1828307.037 9
  24429039.930    -2191129.762 5  -1707372.201 1
  23430587.742    -2172662.112 6  -1692977.041 3
  23389770.400    -3829199.914 6  -2983792.611 5
 91  5  6 19 17  0.0000000  0  5 19 18 16 11  2
  20936551.031      329165.955 7    256493.162 9
  20922504.548     2408840.962 8   1877015.279 9
  24421744.780    -2229447.114 5  -1737229.855 2
  23424042.375    -2207067.414 6  -1719786.279 3
  23376046.798    -3901309.685 6  -3039982.293 5
 91  5  6 19 17 30.0000000  0  5 19 18 16 11  2
  20938966.159      341837.197 7    266366.843 9
  20934493.851     2471838.212 8   1926103.956 9
  24414547.359    -2267248.965 5  -1766685.859 3
  23417595.034    -2240958.174 6  -1746194.574 3
  23362378.060    -3973152.071 6  -3095963.115 4
 91  5  6 19 18  0.0000000  0  5 19 18 16 11  2
  20941417.260      354722.512 7    276407.329 9
  20946573.991     2535322.705 8   1975572.290 9
  24407459.665    -2304534.523 5  -1795739.528 4
  23411243.931    -2274333.061 6  -1772200.879 4
  23348756.394    -4044726.541 6  -3151735.677 5
 91  5  6 19 18 30.0000000  0  5 19 18 16 11  2
  20943906.734      367804.827 7    286601.313 9
  20958743.764     2599275.978 8   2025405.912 9
  24400456.517    -2341319.664 5  -1824403.273 3
  23404985.166    -2307206.800 6  -1797816.689 4
  23335182.393    -4116049.843 6  -3207312.048 4
 91  5  6 19 19  0.0000000  0  5 19 18 16 11  2
  20946436.981      381106.928 7    296966.562 9
  20971008.877     2663720.624 8   2075622.418 9
  24393559.188    -2377579.965 5  -1852658.032 4
  23398831.024    -2339554.114 6  -1823022.310 5
  23321660.551    -4187098.015 6  -3262674.001 3
 91  5  6 19 19 30.0000000  0  5 19 18 16 11  2
  20949009.204      394630.540 7    307504.421 9
  20983365.123     2728657.740 8   2126222.673 9
  24386760.801    -2413312.720 5  -1880501.739 1
  23392777.614    -2371370.952 6  -1847814.560 3
  23308199.270    -4257867.661 6  -3317818.935 4
 91  5  6 19 20  0.0000000  0  5 19 18 16 11  2
  20951627.286      408364.855 7    318206.463 9
  20995812.503     2794075.200 8   2177197.216 9
  24380063.137    -2448526.844 5  -1907941.303 4
  23386822.840    -2402665.965 6  -1872200.186 3
  23294781.754    -4328368.965 6  -3372754.774 4
 91  5  6 19 20 30.0000000  0  5 19 18 16 11  2
  20954274.161      422288.907 7    329056.347 9
  21008349.821     2859951.149 8   2228529.027 9
  24373445.814    -2483242.470 5  -1934992.398 2
  23380960.998    -2433457.880 6  -1896193.803 4
  23281416.109    -4398622.058 6  -3427497.204 5
 91  5  6 19 21  0.0000000  0  5 19 18 16 11  2
  20956961.198      436413.682 7    340062.630 9
  21020977.078     2926295.350 8   2280225.704 9
  24366943.618    -2517447.877 5  -1961645.951 2
  23375201.388    -2463733.711 6  -1919785.283 4
  23268090.634    -4468615.271 6  -3482037.133 5
 91  5  6 19 21 30.0000000  0  5 19 18 16 11  2
  20959690.212      450747.628 7    351231.914 9
  21033690.076     2993116.765 8   2332294.226 9
  24360526.563    -2551132.720 5  -1987893.868 2
  23369541.602    -2493481.907 6  -1942965.602 3
  23254820.921    -4538338.303 6  -3536366.528 4
 91  5  6 19 22  0.0000000  0  5 19 18 16 11  2
  20962456.394      465291.445 7    362564.729 9
  21046496.014     3060413.951 8   2384733.480 9
  24354223.718    -2584295.694 5  -2013735.154 2
  23363975.959    -2522700.498 6  -1965733.264 4
  23241611.769    -4607790.478 6  -3590484.860 4
 91  5  6 19 22 30.0000000  0  5 19 18 16 11  2
  20965263.654      480038.428 7    374055.864 9
  21059391.289     3128179.170 8   2437537.438 9
  24348009.923    -2616942.081 5  -2039173.893 4
  23358524.825    -2551393.586 6  -1988091.431 4
  23228443.687    -4676977.161 6  -3644396.334 5
 91  5  6 19 23  0.0000000  0  5 19 18 16 11  2
  20968118.876      495021.315 7    385730.822 9
  21072381.598     3196444.696 8   2490731.245 9
  24341902.251    -2649037.976 5  -2064183.629 3
  23353167.539    -2579526.456 6  -2010013.067 3
  23215333.757    -4745864.953 6  -3698074.901 6
 91  5  6 19 23 30.0000000  0  5 19 18 16 11  2
  20971002.577      510203.943 7    397561.426 9
  21085460.937     3265173.602 8   2544286.129 9
  24335898.905    -2680618.280 5  -2088791.639 2
  23347913.976    -2607132.911 6  -2031524.503 4
  23202269.102    -4814488.903 6  -3751547.873 5
 91  5  6 19 24  0.0000000  0  5 19 18 16 11  2
  20973926.457      525578.878 7    409541.880 9
  21098626.027     3334356.993 8   2598195.151 9
  24329977.103    -2711689.205 5  -2113002.739 2
  23342759.644    -2634218.644 6  -2052630.176 5
  23189262.312    -4882855.276 6  -3804820.150 6
 91  5  6 19 24 30.0000000  0  5 19 18 16 11  2
  20976891.101      541148.299 7    421673.882 9
  21111875.349     3403995.596 8   2652458.880 9
  24324161.731    -2742248.532 5  -2136815.189 3
  23337700.643    -2660779.518 6  -2073326.870 4
  23176306.773    -4950961.883 6  -3857890.011 4
 91  5  6 19 25  0.0000000  0  5 19 18 16 11  2
  20979892.922      556908.951 7    433954.904 9
  21125214.017     3474086.312 8   2707074.905 9
  24318448.285    -2772297.795 5  -2160230.191 2
  23332748.071    -2686816.720 6  -2093615.507 3
  23163393.812    -5018811.022 6  -3910759.242 5
 91  5  6 19 25 30.0000000  0  5 19 18 16 11  2
  20982925.325      572852.055 7    446378.093 9
  21138637.823     3544619.398 8   2762035.626 9
  24312822.981    -2801843.981 5  -2183253.162 2
  23327890.235    -2712336.229 6  -2113500.746 5
  23150529.721    -5086409.857 6  -3963433.442 5
 91  5  6 19 26  0.0000000  0  5 19 18 16 11  2
  20985990.700      588962.142 7    458931.393 9
  21152138.682     3615577.794 8   2817327.755 9
  24307295.406    -2830902.496 5  -2205896.155 2
  23323134.632    -2737351.940 6  -2132993.410 2
  23137708.496    -5153773.362 6  -4015924.268 6
 91  5  6 19 26 30.0000000  0  5 19 18 16 11  2
  20989095.652      605265.235 7    471635.092 9
  21165727.969     3686986.056 8   2872970.435 9
  24301858.678    -2859445.639 5  -2228137.558 2
  23318471.960    -2761835.856 6  -2152071.704 4
  23124945.433    -5220874.665 6  -4068210.795 5
 91  5  6 19 27  0.0000000  0  5 19 18 16 11  2
  20992232.084      621768.169 7    484494.512 9
  21179403.600     3758850.243 8   2928968.384 9
  24296536.457    -2887465.655 5  -2249971.323 3
  23313913.318    -2785779.294 6  -2170728.841 4
  23112223.439    -5287706.334 6  -4120287.208 5
 91  5  6 19 27 30.0000000  0  5 19 18 16 11  2
  20995408.679      638465.009 7    497505.018 9
  21193165.574     3831163.525 8   2985316.267 9
  24291296.384    -2914968.296 5  -2271401.915 3
  23309465.292    -2809186.191 6  -2188967.878 4
  23099555.707    -5354273.240 6  -4172157.328 5
 91  5  6 19 28  0.0000000  0  5 19 18 16 11  2
  20998626.952      655357.800 7    510668.224 9
  21207011.493     3903926.680 8   3042014.705 9
  24286158.839    -2941950.432 5  -2292426.966 2
  23305111.105    -2832052.641 6  -2206785.794 5
  23086936.547    -5420572.800 6  -4223819.115 6
 91  5  6 19 28 30.0000000  0  6 19 18 16  6 11  2
  21001875.502      672449.768 7    523986.620 9
  21220943.145     3977141.152 8   3099064.820 9
  24281120.830    -2968408.030 5  -2313043.246 3
  24712251.162     -111686.230 4    -87028.091 3
  23300863.949    -2854373.372 6  -2224178.470 3
  23074374.039    -5486600.760 6  -4275269.272 5
 91  5  6 19 29  0.0000000  0  6 19 18 16  6 11  2
  21005168.123      689741.566 7    537460.742 9
  21234961.743     4050806.442 8   3156466.222 9
  24276192.845    -2994339.828 5  -2333249.800 3
  24702470.734     -163123.101 4   -127108.983 4
  23296721.415    -2876146.662 6  -2241144.592 5
  23061858.909    -5552356.481 6  -4326507.286 6
 91  5  6 19 29 30.0000000  0  6 19 18 16  6 11  2
  21008498.820      707253.169 7    551106.140 9
  21249070.872     4124941.962 8   3214234.040 9
  24271367.083    -3019723.906 5  -2353029.582 3
  24692703.201     -214470.854 4   -167120.441 3
  23292686.812    -2897350.151 6  -2257666.694 4
  23049398.930    -5617818.877 6  -4377516.731 5
 91  5  6 19 30  0.0000000  0  6 19 18 16  6 11  2
  21011872.086      724956.678 7    564901.079 9
  21263263.047     4199517.887 8   3272345.019 9
  24266631.557    -3044588.490 5  -2372404.554 4
  24682930.861     -265758.382 4   -207084.982 1
  23288754.431    -2918010.248 6  -2273765.378 4
  23036996.816    -5683015.173 6  -4428318.838 5
 91  5  6 19 30 30.0000000  0  6 19 18 16  6 11  2
  21015275.324      742845.984 7    578840.781 9
  21277536.766     4274527.604 8   3330794.030 9
  24261992.277    -3068938.516 5  -2391378.592 4
  24673188.509     -316992.263 4   -247007.678 3
  23284919.790    -2938131.129 6  -2289443.912 4
  23024644.470    -5747950.800 6  -4478917.830 6
 91  5  6 19 31  0.0000000  0  6 19 18 16  6 11  2
  21018714.247      760924.805 7    592928.156 9
  21291894.125     4349973.174 8   3389582.654 9
  24257459.713    -3092769.759 5  -2409948.344 2
  24663441.952     -368169.554 4   -286886.297 3
  23281199.665    -2957707.687 6  -2304698.281 3
  23012331.997    -5812620.924 6  -4529309.937 6
 91  5  6 19 31 30.0000000  0  6 19 18 16  6 11  2
  21022190.339      779192.691 7    607162.861 9
  21306330.036     4425853.158 8   3448709.792 9
  24253021.879    -3116081.593 5  -2428113.406 2
  24653713.089     -419291.117 4   -326721.495 2
  23277576.965    -2976737.910 6  -2319526.937 4
  23000075.881    -5877025.386 6  -4579495.027 6
 91  5  6 19 32  0.0000000  0  6 19 18 16  6 11  2
  21025703.312      797647.022 7    621542.837 9
  21320855.283     4502163.730 8   3508172.446 9
  24248685.683    -3138876.038 5  -2445875.287 3
  24643995.918     -470360.401 4   -366515.889 2
  23274060.100    -2995222.915 6  -2333930.767 5
  22987871.024    -5941166.293 6  -4629474.758 5
 91  5  6 19 32 30.0000000  0  6 19 18 16  6 11  2
  21029251.352      816288.734 7    636068.829 9
  21335456.971     4578904.323 8   3567970.168 9
  24244451.719    -3161152.369 5  -2463233.436 2
  24634285.343     -521377.178 4   -406269.402 3
  23270644.866    -3013160.368 6  -2347907.928 4
  22975714.443    -6005042.345 6  -4679248.101 6
 91  5  6 19 33  0.0000000  0  6 19 18 16  6 11  2
  21032830.871      835114.830 7    650738.494 9
  21350139.305     4656070.463 8   3628099.501 9
  24240309.482    -3182911.917 5  -2480188.909 2
  24624587.350     -572345.049 4   -445984.796 3
  23267339.358    -3030551.690 6  -2361459.535 4
  22963610.021    -6068655.421 6  -4728816.540 5
 91  5  6 19 33 30.0000000  0  6 19 18 16  6 11  2
  21036448.772      854132.540 7    665557.464 9
  21364906.787     4733667.657 8   3688564.719 9
  24236266.180    -3204147.451 5  -2496736.041 2
  24614904.957     -623257.853 4   -485657.340 2
  23264133.073    -3047388.204 6  -2374578.807 3
  22951555.672    -6131998.230 6  -4778174.372 5
 91  5  6 19 34  0.0000000  0  6 19 18 16  6 11  2
  21040106.233      873328.822 7    680515.587 9
  21379754.305     4811681.800 8   3749354.833 9
  24232319.412    -3224870.606 5  -2512883.932 3
  24605217.163     -674129.058 4   -525297.455 3
  23261035.624    -3063681.167 6  -2387274.551 4
  22939551.380    -6195082.643 6  -4827330.861 6
 91  5  6 19 34 30.0010000  0  6 19 18 16  6 11  2
  21043789.786      892700.424 7    695610.316 9
  21394679.174     4890110.110 8   3810467.660 9
  24228473.378    -3245085.989 5  -2528636.159 2
  24595547.660     -724965.075 4   -564910.169 4
  23258035.001    -3079433.807 6  -2399549.272 5
  22927597.155    -6257914.341 6  -4876290.449 6
 91  5  6 19 35  0.0010000  0  6 19 18 16  6 11  2
  21047511.708      912276.502 7    710864.382 9
  21409684.983     4968976.157 8   3871921.584 9
  24224732.863    -3264761.288 5  -2543967.549 4
  24585881.147     -775732.858 4   -604469.706 2
  23255142.296    -3094613.174 6  -2411377.270 4
  22915695.993    -6320458.325 6  -4925025.833 6
 91  5  6 19 35 30.0010000  0  6 19 18 16  6 11  2
  21051278.302      932041.475 7    726265.635 9
  21424771.743     5048265.034 8   3933704.990 9
  24221084.092    -3283913.321 5  -2558891.189 3
  24576236.525     -826450.957 4   -643990.517 3
  23252364.422    -3109234.311 6  -2422770.301 5
  22903843.997    -6382732.267 6  -4973550.784 6
 91  5  6 19 36  0.0010000  0  6 19 18 16  6 11  2
  21055072.774      951997.855 7    741816.033 8
  21439943.337     5127978.024 8   3995818.868 9
  24217548.041    -3302538.595 5  -2573404.384 3
  24566589.800     -877117.430 4   -683471.130 3
  23249690.874    -3123293.270 6  -2433725.243 4
  22892042.964    -6444733.070 6  -5021862.921 5
 91  5  6 19 36 30.0010000  0  6 19 18 16  6 11  2
  21058908.017      972147.583 7    757517.108 9
  21455191.678     5208115.682 8   4058263.658 9
  24214096.833    -3320634.658 5  -2587505.192 1
  24556962.864     -927731.095 4   -722910.609 4
  23247123.450    -3136786.627 6  -2444239.475 2
  22880295.897    -6506458.162 6  -5069960.215 6
 91  5  6 19 37  0.0010000  0  6 19 18 16  6 11  2
  21062781.643      992492.409 7    773370.195 9
  21470523.369     5288678.025 8   4121039.377 9
  24210755.945    -3338200.043 5  -2601192.509 2
  24547338.633     -978290.902 4   -762308.113 3
  23244664.252    -3149711.108 6  -2454310.442 5
  22868608.788    -6567904.982 6  -5117840.674 5
 91  5  6 19 37 30.0010000  0  6 19 18 16  6 11  2
  21066687.333     1013039.862 7    789381.182 9
  21485935.995     5369670.619 8   4184150.352 9
  24207518.485    -3355226.295 5  -2614459.726 2
  24537723.092    -1028790.196 4   -801658.410 3
  23242306.684    -3162058.453 6  -2463931.690 5
  22856970.252    -6629065.966 6  -5165498.416 6
 91  5  6 19 38  0.0010000  0  6 19 18 16  6 11  2
  21070636.204     1033790.882 7    805550.787 9
  21501432.565     5451093.489 8   4247596.605 9
  24204379.958    -3371712.090 5  -2627305.796 3
  24528133.927    -1079228.481 4   -840960.751 2
  23240070.831    -3173825.876 6  -2473101.046 4
  22845383.569    -6689939.597 6  -5212932.252 6
 91  5  6 19 38 30.0010000  0  6 19 18 16  6 11  2
  21074626.737     1054736.565 7    821872.075 9
  21517003.185     5532936.182 8   4311369.984 9
  24201346.657    -3387665.576 5  -2639737.071 2
  24518542.362    -1129615.466 4   -880223.109 3
  23237941.407    -3185020.957 6  -2481824.410 3
  22833852.953    -6750534.053 6  -5260148.546 6
 91  5  6 19 39  0.0010000  0  6 19 18 16  6 11  2
  21078649.658     1075874.101 7    838342.860 9
  21532658.351     5615193.813 8   4375466.690 9
  24198415.282    -3403089.814 5  -2651755.985 1
  24508957.402    -1179954.959 4   -919448.903 2
  23235918.412    -3195645.725 6  -2490103.398 3
  22822376.896    -6810852.031 6  -5307149.418 6
 91  5  6 19 39 30.0010000  0  6 19 18 16  6 11  2
  21082705.542     1097201.791 7    854961.812 9
  21548389.661     5697863.410 8   4439884.410 9
  24195578.348    -3417986.189 5  -2663363.584 4
  24499392.519    -1230249.169 4   -958639.045 2
  23234009.926    -3205700.330 6  -2497938.106 4
  22810947.012    -6870894.312 6  -5353935.458 6
 91  5  6 19 40  0.0010000  0  6 19 18 16  6 11  2
  21086798.011     1118716.162 7    871726.244 9
  21564198.913     5780939.725 8   4504619.051 9
  24192836.151    -3432357.615 5  -2674562.101 2
  24489832.444    -1280502.410 4   -997797.616 3
  23232199.483    -3215187.077 6  -2505330.317 4
  22799574.383    -6930664.471 6  -5400509.453 6
 91  5  6 19 40 30.0010000  0  6 19 18 16  6 11  2
  21090933.050     1140425.238 7    888642.381 9
  21580089.413     5864429.052 7   4569675.499 9
  24190211.463    -3446196.377 5  -2685345.562 3
  24480270.265    -1330707.454 5  -1036918.655 2
  23230507.457    -3224097.074 6  -2512273.109 5
  22788253.022    -6990154.102 6  -5446864.853 6
 91  5  6 19 41  0.0010000  0  6 19 18 16  6 11  2
  21095096.567     1162328.165 7    905709.575 9
  21596051.868     5948328.495 7   4635051.558 9
  24187670.721    -3459503.211 5  -2695714.575 3
  24470721.271    -1380866.150 4  -1076003.173 2
  23228922.751    -3232430.163 6  -2518766.367 4
  22776979.623    -7049363.675 6  -5493002.037 6
 91  5  6 19 41 30.0010000  0  6 19 18 16  6 11  2
  21099300.856     1184419.968 7    922923.942 9
  21612096.157     6032632.352 8   4700742.730 9
  24185238.806    -3472282.220 5  -2705672.263 2
  24461194.464    -1430983.518 5  -1115055.878 4
  23227444.473    -3240189.563 6  -2524812.603 4
  22765773.983    -7108297.165 7  -5538924.077 6
 91  5  6 19 42  0.0010000  0  6 19 18 16  6 11  2
  21103542.620     1206699.024 7    940284.220 9
  21628214.496     6117337.154 7   4766746.320 9
  24182910.921    -3484535.216 5  -2715220.092 3
  24451667.962    -1481062.140 4  -1154077.967 2
  23226078.924    -3247375.826 6  -2530412.243 5
  22754610.913    -7166956.203 7  -5584632.263 6
 91  5  6 19 42 30.0010000  0  6 19 18 16  6 11  2
  21107822.461     1229167.518 7    957792.119 9
  21644406.893     6202443.064 7   4833062.444 8
  24180676.865    -3496260.543 5  -2724356.759 2
  24442140.257    -1531100.776 5  -1193068.877 4
  23224815.598    -3253986.077 6  -2535563.046 4
  22743496.101    -7225337.932 7  -5630124.369 6
 91  5  6 19 43  0.0010000  0  6 19 18 16  6 11  2
  21112128.075     1251819.985 7    975443.364 9
  21660678.122     6287942.919 7   4899685.549 9
  24178550.137    -3507462.604 5  -2733085.669 3
  24432620.945    -1581105.318 4  -1232033.229 1
  23223670.087    -3260024.668 6  -2540268.404 4
  22732442.758    -7283447.701 7  -5675404.567 6
 91  5  6 19 43 30.0010000  0  6 19 18 16  6 11  2
  21116474.767     1274655.209 7    993237.008 9
  21677023.112     6373833.981 7   4966613.484 9
  24176515.145    -3518143.021 5  -2741408.129 2
  24423114.529    -1631077.929 5  -1270973.197 3
  23222630.708    -3265491.797 6  -2544528.465 5
  22721437.979    -7341286.509 7  -5720473.609 6
 91  5  6 19 44  0.0010000  0  6 19 18 16  6 11  2
  21120856.535     1297669.719 7   1011170.377 9
  21693441.542     6460110.654 7   5033841.889 9
  24174578.189    -3528304.949 5  -2749326.535 2
  24413608.715    -1681022.786 5  -1309891.512 2
  23221695.054    -3270389.892 6  -2548345.121 4
  22710479.364    -7398857.130 7  -5765333.662 6
 91  5  6 19 44 30.0010000  0  6 19 18 16  6 11  2
  21125267.679     1320871.165 7   1029249.402 9
  21709934.328     6546778.873 7   5101375.408 9
  24172753.655    -3537941.202 5  -2756835.348 5
  24404116.084    -1730933.201 5  -1348782.562 3
  23220877.223    -3274710.490 6  -2551711.806 3
  22699573.816    -7456151.873 7  -5809978.766 5
 91  5  6 19 45  0.0010000  0  6 19 18 16  6 11  2
  21129720.800     1344259.860 7   1047474.331 9
  21726502.358     6633836.545 7   5169212.388 9
  24171013.057    -3547051.665 5  -2763934.455 2
  24394625.853    -1780810.053 5  -1387647.433 2
  23220161.913    -3278452.948 6  -2554627.982 3
  22688725.225    -7513170.725 7  -5854408.898 5
 91  5  6 19 45 30.0010000  0  6 19 18 16  6 11  2
  21134208.089     1367839.182 7   1065847.811 9
  21743139.937     6721285.287 7   5237354.097 9
  24169378.285    -3555633.150 5  -2770621.353 3
  24385142.218    -1830650.177 5  -1426483.683 3
  23219559.932    -3281612.731 6  -2557090.125 5
  22677927.301    -7569909.711 7  -5898620.935 6
 91  5  6 19 46  0.0010000  0  6 19 18 16  6 11  2
  21138729.266     1391606.357 7   1084367.647 9
  21759856.068     6809121.295 7   5305797.570 9
  24167844.551    -3563687.925 5  -2776897.819 3
  24375662.178    -1880457.184 5  -1465294.166 3
  23219075.471    -3284191.821 6  -2559099.785 5
  22667182.434    -7626370.906 7  -5942616.513 6
 91  5  6 19 46 30.0010000  0  6 19 18 16  6 11  2
  21143290.901     1415564.455 7   1103036.276 9
  21776643.840     6897345.969 7   5374543.901 8
  24166419.339    -3571212.856 5  -2782761.436 4
  24366190.235    -1930228.409 5  -1504076.707 2
  23218690.231    -3286186.067 6  -2560653.710 4
  22656494.237    -7682550.829 7  -5986392.913 6
 91  5  6 19 47  0.0010000  0  6 19 18 16  6 11  2
  21147883.423     1439711.498 7   1121852.129 9
  21793506.867     6985955.361 7   5443590.023 9
  24165084.659    -3578209.910 5  -2788213.716 4
  24356727.287    -1979966.515 5  -1542833.489 3
  23218428.216    -3287596.472 6  -2561752.707 5
  22645855.502    -7738451.018 7  -6029951.350 6
 91  5  6 19 47 30.0010000  0  6 19 18 16  6 11  2
  21152516.718     1464056.002 7   1140821.863 9
  21810444.842     7074955.217 7   5512940.383 9
  24163854.611    -3584671.362 5  -2793248.632 4
  24347261.338    -2029664.451 5  -1581558.932 2
  23218271.722    -3288414.500 6  -2562390.125 3
  22635271.029    -7794063.450 7  -6073285.545 7
 91  5  6 19 48  0.0010000  0  6 19 18 16  6 11  2
  21157188.682     1488605.395 7   1159951.235 9
  21827452.069     7164351.467 7   5582599.632 8
  24162727.693    -3590589.749 5  -2797860.394 3
  24337816.085    -2079314.979 5  -1620247.485 2
  23218224.659    -3288631.572 6  -2562559.291 4
  22624747.413    -7849380.184 7  -6116389.342 6
 91  5  6 19 48 30.0010000  0  6 19 18 16  6 11  2
  21161898.426     1513370.075 7   1179248.361 9
  21844545.037     7254152.808 7   5652574.533 9
  24161709.892    -3595955.137 5  -2802041.232 3
  24328381.912    -2128908.661 5  -1658891.664 1
  23218303.805    -3288236.565 6  -2562251.439 4
  22614277.160    -7904391.026 7  -6159254.787 6
 91  5  6 19 49  0.0010000  0  6 19 18 16  6 11  2
  21166655.233     1538350.826 7   1198713.850 9
  21861709.350     7344358.327 7   5722864.383 8
  24160792.831    -3600766.326 5  -2805790.237 3
  24318951.640    -2178445.549 5  -1697491.673 4
  23218497.773    -3287228.314 6  -2561465.779 5
  22603869.563    -7959094.731 7  -6201880.902 6
 91  5  6 19 49 30.0010000  0  6 19 18 16  6 11  2
  21171446.810     1563544.745 7   1218345.446 9
  21878952.216     7434962.804 8   5793465.108 8
  24159981.893    -3605027.254 5  -2809110.463 4
  24309534.264    -2227929.258 5  -1736050.192 3
  23218801.755    -3285608.990 6  -2560203.959 5
  22593515.938    -8013493.898 7  -6244269.703 6
 91  5  6 19 50  0.0010000  0  6 19 18 16  6 11  2
  21176283.068     1588948.508 7   1238140.555 9
  21896266.427     7525961.206 7   5864372.787 8
  24159268.990    -3608741.392 5  -2812004.616 2
  24300126.476    -2277363.667 5  -1774570.351 3
  23219229.565    -3283381.464 6  -2558468.205 5
  22583219.865    -8067591.727 7  -6286423.710 6
 91  5  6 19 50 30.0010000  0  6 19 18 16  6 11  2
  21181154.689     1614552.527 7   1258091.715 9
  21913653.797     7617340.965 7   5935577.612 8
  24158672.097    -3611918.565 5  -2814480.374 3
  24290731.872    -2326759.485 5  -1813060.423 2
  23219762.591    -3280554.965 6  -2556265.725 4
  22572982.852    -8121397.915 7  -6328350.466 6
 91  5  6 19 51  0.0010000  0  6 19 18 16  6 11  2
  21186066.794     1640350.241 7   1278193.787 9
  21931117.905     7709094.324 7   6007073.558 8
  24158162.751    -3614565.527 5  -2816542.977 5
  24281326.789    -2376123.873 5  -1851526.006 4
  23220416.738    -3277134.940 6  -2553600.763 3
  22562800.397    -8174918.593 7  -6370054.726 6
 91  5  6 19 51 30.0010000  0  6 19 18 16  6 11  2
  21191012.168     1666345.266 7   1298449.626 9
  21948648.569     7801223.121 7   6078862.059 8
  24157766.422    -3616679.238 5  -2818190.079 2
  24271942.080    -2425453.975 5  -1889964.834 2
  23221179.112    -3273117.541 6  -2550470.306 2
  22552668.015    -8228150.119 7  -6411533.692 6
 91  5  6 19 52  0.0010000  0  6 19 18 16  6 11  2
  21195996.221     1692530.373 7   1318853.562 9
  21966250.883     7893717.592 7   6150935.493 8
  24157465.737    -3618267.435 5  -2819427.668 4
  24262567.273    -2474757.704 5  -1928383.188 4
  23222052.111    -3268509.788 6  -2546879.845 4
  22542590.793    -8281099.639 7  -6452792.916 7
 91  5  6 19 52 30.0010000  0  6 19 18 16  6 11  2
  21201010.245     1718896.128 7   1339398.271 9
  21983918.251     7986566.375 7   6223285.017 8
  24157259.476    -3619340.169 5  -2820263.613 2
  24253185.565    -2524045.061 5  -1966788.731 3
  23223041.425    -3263320.289 6  -2542836.049 6
  22532569.927    -8333776.189 7  -6493839.441 7
 91  5  6 19 53  0.0010000  0  6 19 18 16  6 11  2
  21206063.252     1745452.149 7   1360091.231 9
  22001654.574     8079777.707 7   6295917.045 8
  24157155.446    -3619887.678 5  -2820690.279 2
  24243811.962    -2573307.053 5  -2005174.557 3
  23224143.459    -3257539.117 6  -2538331.230 2
  22522596.726    -8386170.248 7  -6534665.834 7
 91  5  6 19 53 30.0010000  0  6 19 18 16  6 11  2
  21211154.327     1772199.322 7   1380933.144 9
  22019464.344     8173349.832 7   6368830.215 7
  24157153.352    -3619909.955 5  -2820707.742 3
  24234443.141    -2622543.955 5  -2043540.736 2
  23225359.120    -3251165.230 6  -2533364.529 4
  22512681.399    -8438280.699 7  -6575271.234 6
 91  5  6 19 54  0.0010000  0  6 19 18 16  6 11  2
  21216281.078     1799137.661 7   1401924.013 9
  22037335.566     8267280.583 7   6442022.836 8
  24157250.785    -3619407.220 5  -2820316.026 3
  24225075.829    -2671756.374 4  -2081887.912 4
  23226681.201    -3244197.856 6  -2527935.395 4
  22502817.027    -8490107.711 7  -6615655.769 6
 91  5  6 19 54 30.0010000  0  6 19 18 16  6 11  2
  21221441.701     1826265.244 7   1423062.346 9
  22055280.846     8361565.864 7   6515491.712 8
  24157442.354    -3618381.984 5  -2819517.152 4
  24215714.808    -2720947.105 4  -2120218.176 3
  23228122.606    -3236639.007 6  -2522045.353 5
  22493012.613    -8541652.993 7  -6655820.777 7
 91  5  6 19 55  0.0010000  0  6 19 18 16  6 11  2
  21226644.004     1853580.804 7   1444347.155 9
  22073288.180     8456202.428 7   6589234.294 7
  24157738.249    -3616835.824 5  -2818312.422 3
  24206359.188    -2770118.027 5  -2158533.033 4
  23229671.636    -3228489.535 6  -2515695.125 3
  22483257.662    -8592917.874 7  -6695767.293 6
 91  5  6 19 55 30.0010000  0  6 19 18 16  6 11  2
  21231874.776     1881089.517 7   1465782.466 9
  22091365.366     8551193.307 7   6663252.972 7
  24158124.980    -3614764.793 5  -2816698.690 1
  24197004.458    -2819264.757 5  -2196828.963 3
  23231338.480    -3219744.345 6  -2508880.636 4
  22473553.684    -8643896.948 7  -6735491.118 6
 91  5  6 19 56  0.0010000  0  6 19 18 16  6 11  2
  21237147.229     1908787.457 7   1487365.240 9
  22109507.311     8646532.507 7   6737543.074 7
  24158625.330    -3612173.322 5  -2814679.429 4
  24187659.631    -2868391.802 5  -2235109.639 3
  23233115.349    -3210406.837 6  -2501604.642 5
  22463908.163    -8694594.146 7  -6774995.297 7
 91  5  6 19 56 30.0010000  0  6 19 18 16  6 11  2
  21242453.552     1936683.733 7   1509102.555 9
  22127716.098     8742226.691 7   6812109.777 8
  24159218.018    -3609053.145 5  -2812248.193 3
  24178310.005    -2917491.323 5  -2273368.819 1
  23235003.742    -3200468.132 6  -2493860.181 4
  22454315.098    -8745000.901 7  -6814273.162 6
 91  5  6 19 57  0.0010000  0  6 19 18 16  6 11  2
  21247800.656     1964781.907 7   1530997.208 9
  22145994.748     8838277.351 7   6886954.253 8
  24159913.244    -3605400.803 5  -2809402.258 3
  24168973.868    -2966560.121 5  -2311604.080 2
  23237006.058    -3189924.050 6  -2485643.995 4
  22444777.507    -8795113.299 7  -6853321.658 7
 91  5  6 19 57 30.0010000  0  6 19 18 16  6 11  2
  21253186.422     1993084.077 7   1553050.790 9
  22164341.750     8934684.960 7   6962076.872 7
  24160704.690    -3601215.188 5  -2806140.780 4
  24159640.732    -3015596.877 5  -2349814.343 1
  23239129.488    -3178772.548 6  -2476954.486 4
  22435300.163    -8844929.277 7  -6892139.187 7
 91  5  6 19 58  0.0010000  0  6 19 18 16  6 11  2
  21258612.968     2021588.754 7   1575262.182 8
  22182754.102     9031444.747 7   7037473.914 7
  24161602.573    -3596499.081 5  -2802465.960 3
  24150319.585    -3064603.955 5  -2388001.548 3
  23241369.232    -3167015.195 7  -2467792.885 4
  22425876.487    -8894450.585 7  -6930727.105 6
 91  5  6 19 58 30.0010000  0  6 19 18 16  6 11  2
  21264073.089     2050292.172 7   1597628.449 9
  22201233.604     9128551.410 7   7113141.242 7
  24162603.579    -3591256.563 5  -2798380.958 3
  24140999.337    -3113585.865 5  -2426169.049 2
  23243721.103    -3154655.834 6  -2458162.212 5
  22416505.275    -8943680.439 7  -6969087.914 7
 91  5  6 19 59  0.0010000  0  6 19 18 16  6 11  2
  21269576.678     2079200.002 7   1620154.000 9
  22219778.168     9226007.830 7   7189081.111 7
  24163696.320    -3585482.767 5  -2793881.988 3
  24131680.885    -3162537.840 5  -2464313.283 3
  23246188.101    -3141689.012 6  -2448058.169 3
  22407197.616    -8992614.090 7  -7007217.914 7
 91  5  6 19 59 30.0010000  0  6 19 18 16  6 11  2
  21275114.444     2108308.104 7   1642835.605 9
  22238387.482     9323807.879 7   7265288.749 7
  24164905.385    -3579182.794 5  -2788972.961 3
  24122373.829    -3211464.413 5  -2502437.723 2
  23248771.108    -3128118.307 6  -2437483.551 5
  22397940.625    -9041255.186 7  -7045119.956 7
 91  5  6 20  0  0.0010000  0  6 19 18 16  6 11  2
  21280693.279     2137616.811 7   1665673.528 9
  22257065.750     9421949.659 7   7341762.666 8
  24166201.386    -3572356.741 5  -2783654.032 3
  24113067.968    -3260365.932 5  -2540542.626 4
  23251467.446    -3113943.479 6  -2426438.242 5
  22388738.497    -9089603.220 7  -7082793.629 7
 91  5  6 20  0 30.0010000  0  6 19 18 16  6 11  2
  21286305.696     2167121.120 7   1688663.870 9
  22275805.181     9520426.451 7   7418497.634 8
  24167593.922    -3565010.419 5  -2777929.697 3
  24103763.312    -3309248.111 5  -2578632.455 3
  23254277.699    -3099169.384 7  -2414925.941 4
  22379592.428    -9137663.678 7  -7120243.218 7
 91  5  6 20  1  0.0010000  0  6 19 18 16  6 11  2
  21291959.183     2196825.230 7   1711809.894 9
  22294608.759     9619239.900 7   7495494.931 7
  24169092.887    -3557141.062 5  -2771797.796 4
  24094462.555    -3358107.614 5  -2616704.635 5
  23257206.369    -3083792.161 6  -2402943.669 4
  22370502.426    -9185432.216 7  -7157465.329 7
 91  5  6 20  1 30.0010000  0  6 19 18 16  6 11  2
  21297650.440     2226729.774 7   1735112.101 9
  22313476.502     9718387.772 7   7572752.814 7
  24170694.075    -3548748.301 5  -2765258.071 3
  24085172.583    -3406944.679 5  -2654759.349 2
  23260248.963    -3067811.576 6  -2390491.240 4
  22361466.677    -9232908.708 7  -7194459.869 7
 91  5  6 20  2  0.0010000  0  6 19 18 16  6 11  2
  21303375.578     2256836.491 7   1758571.852 9
  22332408.391     9817869.835 7   7650271.105 7
  24172392.697    -3539832.704 5  -2758310.959 3
  24075875.421    -3455758.281 5  -2692795.748 5
  23263403.081    -3051226.104 6  -2377567.490 6
  22352490.896    -9280091.555 7  -7231225.603 6
 91  5  6 20  2 30.0010000  0  6 19 18 16  6 11  2
  21309145.387     2287140.876 7   1782185.627 9
  22351398.748     9917679.138 7   7728044.393 6
  24174185.759    -3530398.921 5  -2750960.048 2
  24066600.735    -3504553.827 5  -2730818.111 3
  23266673.217    -3034040.411 7  -2364176.035 5
  22343566.069    -9326985.487 7  -7267766.192 6
 91  5  6 20  3  0.0010000  0  6 19 18 16  6 11  2
  21314948.466     2317641.820 7   1805952.546 9
  22370454.159    10017812.343 7   7806070.068 7
  24176080.146    -3520448.713 5  -2743206.745 2
  24057317.062    -3553332.909 5  -2768827.629 4
  23270056.675    -3016255.734 6  -2350317.807 3
  22334697.607    -9373591.469 7  -7304082.418 7
 91  5  6 20  3 30.0010000  0  6 19 18 16  6 11  2
  21320792.326     2348342.052 7   1829874.772 9
  22389570.122    10118269.618 7   7884348.261 6
  24178068.668    -3509980.773 5  -2735049.982 4
  24048038.188    -3602093.383 5  -2806822.688 4
  23273554.955    -2997869.549 6  -2335990.902 4
  22325885.212    -9419906.855 7  -7340172.202 6
 91  5  6 20  4  0.0010000  0  6 19 18 16  6 11  2
  21326675.152     2379244.683 7   1853954.699 9
  22408752.640    10219052.724 7   7962880.350 6
  24180161.822    -3498992.731 5  -2726487.982 2
  24038767.105    -3650832.646 5  -2844801.174 3
  23277170.753    -2978878.869 7  -2321192.944 3
  22317124.679    -9465928.339 7  -7376032.979 7
 91  5  6 20  4 30.0010000  0  6 19 18 16  6 11  2
  21332589.153     2410349.677 7   1878192.319 9
  22427990.921    10320158.356 7   8041663.755 7
  24182347.907    -3487485.856 5  -2717521.673 3
  24029495.726    -3699551.796 5  -2882764.007 3
  23280899.271    -2959284.276 6  -2305924.418 4
  22308424.699    -9511657.011 7  -7411665.588 7
 91  5  6 20  5  0.0010000  0  6 19 18 16  6 11  2
  21338547.826     2441658.182 7   1902588.506 9
  22447290.068    10421585.041 7   8120697.321 6
  24184643.422    -3475460.033 5  -2708151.015 3
  24020225.245    -3748250.625 5  -2920711.011 2
  23284741.111    -2939085.280 6  -2290184.903 4
  22299778.988    -9557091.828 7  -7447069.197 7
 91  5  6 20  5 30.0010000  0  6 19 18 16  6 11  2
  21344542.482     2473172.832 7   1927145.315 9
  22466654.260    10523333.205 7   8199981.394 7
  24187022.270    -3462914.298 5  -2698375.206 2
  24010961.954    -3796927.007 5  -2958640.498 3
  23288702.869    -2918279.439 6  -2273972.543 5
  22291188.133    -9602230.128 7  -7482241.775 7
 91  5  6 20  6  0.0010000  0  6 19 18 16  6 11  2
  21350581.200     2504892.728 7   1951862.069 9
  22486078.708    10625400.032 7   8279513.766 7
  24189511.753    -3449850.363 5  -2688195.603 2
  24001702.563    -3845582.183 5  -2996553.505 2
  23292776.448    -2896867.532 6  -2257287.918 4
  22282655.142    -9647072.810 7  -7517184.001 7
 91  5  6 20  6 30.0010000  0  6 19 18 16  6 11  2
  21356658.596     2536818.335 7   1976739.114 9
  22505557.130    10727783.638 7   8359292.982 6
  24192091.463    -3436268.677 5  -2677612.551 3
  23992449.472    -3894216.433 5  -3034450.134 3
  23296968.147    -2874849.760 6  -2240131.184 5
  22274175.209    -9691619.713 7  -7551895.744 7
 91  5  6 20  7  0.0010000  0  6 19 18 16  6 11  2
  21362770.160     2568954.014 7   2001779.856 9
  22525103.293    10830485.356 7   8439320.068 6
  24194779.704    -3422166.178 5  -2666623.674 3
  23983197.881    -3942826.563 5  -3072328.033 3
  23301271.066    -2852222.586 6  -2222499.599 5
  22265756.735    -9735866.992 7  -7586374.018 8
 91  5  6 20  7 30.0010000  0  6 19 18 16  6 11  2
  21368929.999     2601295.311 7   2026980.833 9
  22544703.430    10933497.774 7   8519589.256 6
  24197564.470    -3407549.150 5  -2655233.892 2
  23973946.884    -3991417.796 5  -3110191.180 2
  23305693.309    -2828991.289 6  -2204397.271 5
  22257393.125    -9779819.699 7  -7620622.751 7
 91  5  6 20  8  0.0010000  0  6 19 18 16  6 11  2
  21375122.209     2633845.702 7   2052344.729 9
  22564365.611    11036822.928 7   8600102.138 6
  24200443.983    -3392414.674 5  -2643440.892 3
  23964708.477    -4039986.860 5  -3148037.042 4
  23310227.669    -2805152.466 7  -2185821.556 4
  22249084.980    -9823474.073 7  -7654639.015 7
 91  5  6 20  8 30.0010000  0  6 19 18 16  6 11  2
  21381354.598     2666606.096 7   2077872.265 9
  22584088.659    11140459.187 7   8680857.432 6
  24203422.116    -3376763.073 5  -2631244.895 2
  23955472.173    -4088533.695 5  -3185865.567 4
  23314880.743    -2780705.970 6  -2166772.309 4
  22240837.091    -9866829.597 7  -7688422.422 7
 91  5  6 20  9  0.0010000  0  6 19 18 16  6 11  2
  21387629.251     2699572.700 7   2103560.490 9
  22603869.266    11244399.818 7   8761850.391 5
  24206504.287    -3360600.496 5  -2618650.806 3
  23946237.962    -4137062.736 5  -3223680.238 4
  23319643.850    -2755655.974 6  -2147252.831 4
  22232641.361    -9909890.450 7  -7721976.214 7
 91  5  6 20  9 30.0010000  0  6 19 18 16  6 11  2
  21393943.185     2732754.835 7   2129416.658 8
  22623706.237    11348651.776 7   8843085.456 6
  24209672.793    -3343918.582 5  -2605652.008 4
  23937006.152    -4185565.650 5  -3261474.534 2
  23324528.367    -2729994.003 6  -2127256.509 5
  22224506.793    -9952647.701 7  -7755293.446 8
 91  5  6 20 10  0.0010000  0  6 19 18 16  6 11  2
  21400300.578     2766149.660 7   2155438.562 9
  22643606.457    11453209.772 7   8924558.976 7
  24212945.930    -3326720.968 5  -2592251.388 4
  23927784.540    -4234045.301 5  -3299250.719 5
  23329532.505    -2703723.219 6  -2106785.750 4
  22216423.792    -9995104.320 7  -7788376.420 8
 91  5  6 20 10 30.0010000  0  6 19 18 16  6 11  2
  21406692.157     2799755.619 7   2181624.987 8
  22663559.742    11558069.761 7   9006267.812 6
  24216303.902    -3309010.736 5  -2578451.302 3
  23918560.521    -4282504.507 5  -3337010.980 3
  23334643.359    -2676846.447 6  -2085842.834 4
  22208398.942   -10037262.180 7  -7821226.613 8
 91  5  6 20 11  0.0010000  0  6 19 18 16  6 11  2
  21413127.501     2833569.498 7   2207973.426 9
  22683565.196    11663225.868 6   9088207.886 6
  24219772.202    -3290792.925 5  -2564255.737 4
  23909341.606    -4330946.992 5  -3374758.173 4
  23339871.139    -2649367.567 6  -2064430.754 5
  22200437.952   -10079124.848 7  -7853846.779 8
 91  5  6 20 11 30.0010000  0  6 19 18 16  6 11  2
  21419600.921     2867593.927 7   2234485.929 9
  22703638.102    11768678.389 7   9170378.931 6
  24223346.024    -3272065.702 5  -2549663.180 2
  23900128.083    -4379370.480 5  -3412490.588 3
  23345214.640    -2621284.252 6  -2042547.656 6
  22192526.434   -10120689.973 7  -7886235.092 7
 91  5  6 20 12  0.0010000  0  6 19 18 16  6 11  2
  21426116.308     2901832.812 7   2261165.546 8
  22723759.870    11874429.227 7   9252782.430 6
  24227008.895    -3252827.160 5  -2534672.237 4
  23890918.163    -4427771.986 5  -3450205.841 4
  23350677.762    -2592593.752 6  -2020191.461 3
  22184673.670   -10161954.223 7  -7918388.966 8
 91  5  6 20 12 30.0010000  0  6 19 18 16  6 11  2
  21432672.765     2936284.741 7   2288011.179 9
  22743937.696    11980473.743 7   9335414.288 6
  24230761.390    -3233079.852 5  -2519284.817 4
  23881711.533    -4476153.521 5  -3487905.558 3
  23356246.703    -2563298.145 6  -1997363.733 4
  22176877.270   -10202919.138 7  -7950309.582 8
 91  5  6 20 13  0.0010000  0  6 19 18 16  6 11  2
  21439273.903     2970948.025 7   2315021.501 8
  22764173.388    12086807.918 6   9418272.330 6
  24234614.921    -3212826.258 5  -2503502.900 4
  23872504.606    -4524517.093 5  -3525591.261 3
  23361940.962    -2533399.489 6  -1974066.128 5
  22169138.422   -10243586.369 7  -7981998.253 8
 91  5  6 20 13 30.0010000  0  6 19 18 16  6 11  2
  21445905.309     3005826.368 7   2342199.396 9
  22784466.639    12193432.379 6   9501356.571 6
  24238568.285    -3192066.003 5  -2487326.188 2
  23863306.379    -4572860.087 5  -3563260.942 2
  23367742.548    -2502895.444 6  -1950296.792 5
  22161457.438   -10283953.073 7  -8013452.745 7
 91  5  6 20 14  0.0010000  0  6 19 18 16  6 11  2
  21452584.982     3040921.797 7   2369546.444 9
  22804809.963    12300346.513 6   9584666.533 6
  24242613.385    -3170798.145 5  -2470753.945 4
  23854104.844    -4621181.420 5  -3600913.771 4
  23373668.546    -2471785.145 6  -1926055.049 4
  22153836.116   -10324018.247 8  -8044672.281 8
 91  5  6 20 14 30.0010000  0  6 19 18 16  6 11  2
  21459300.637     3076233.974 7   2397062.384 7
  22825213.831    12407547.997 7   9668200.400 5
  24246761.616    -3149024.614 5  -2453787.648 2
  23844919.808    -4669481.648 5  -3638550.132 2
  23379702.465    -2440069.602 6  -1901341.704 5
  22146268.760   -10363782.232 8  -8075657.126 8
 91  5  6 20 15  0.0010000  0  6 19 18 16  6 11  2
  21466067.552     3111767.502 7   2424750.808 8
  22845668.670    12515038.962 6   9751959.347 6
  24251001.880    -3126741.690 5  -2436424.463 3
  23835726.667    -4717756.602 5  -3676166.798 4
  23385854.208    -2407744.985 6  -1876153.743 5
  22138760.751   -10403240.678 7  -8106403.887 8
 91  5  6 20 15 30.0010000  0  6 19 18 16  6 11  2
  21472868.940     3147525.038 7   2452613.775 8
  22866175.076    12622819.454 6   9835944.391 6
  24255335.083    -3103948.355 5  -2418663.544 4
  23826550.025    -4766004.217 5  -3713762.175 3
  23392118.976    -2374809.575 6  -1850489.827 4
  22131307.911   -10442391.339 8  -8136910.815 7
 91  5  6 20 16  0.0010000  0  6 19 18 16  6 11  2
  21479722.496     3183503.677 7   2480649.046 8
  22886741.440    12730883.513 6   9920149.893 6
  24259771.111    -3080649.551 5  -2400508.749 4
  23817371.577    -4814228.424 5  -3751339.306 3
  23398500.651    -2341267.609 6  -1824353.278 5
  22123915.336   -10481237.998 8  -8167180.859 8
 91  5  6 20 16 30.0010000  0  6 19 18 16  6 11  2
  21486606.633     3219698.531 7   2508852.787 8
  22907356.071    12839224.086 6  10004571.359 6
  24264307.269    -3056851.676 5  -2381965.077 4
  23808202.125    -4862434.471 5  -3788902.294 4
  23404999.854    -2307124.725 6  -1797748.490 5
  22116579.108   -10519785.757 8  -8197217.983 8
 91  5  6 20 17  0.0010000  0  6 19 18 16  6 11  2
  21493533.340     3256112.486 7   2537227.254 8
  22928028.254    12947840.661 6  10089207.886 6
  24268921.674    -3032553.794 5  -2363031.802 2
  23799034.173    -4910619.951 5  -3826449.228 5
  23411613.574    -2272379.282 6  -1770674.144 5
  22109302.245   -10558031.769 8  -8227019.984 8
 91  5  6 20 17 30.0010000  0  6 19 18 16  6 11  2
  21500501.709     3292749.433 7   2565775.486 8
  22948747.517    13056734.801 6  10174060.713 6
  24273638.311    -3007753.530 5  -2343707.036 2
  23789867.416    -4958781.898 5  -3863977.865 4
  23418340.022    -2237028.680 6  -1743128.256 5
  22102082.348   -10595972.567 8  -8256584.151 8
 91  5  6 20 18  0.0010000  0  6 19 18 16  6 11  2
  21507518.355     3329607.027 7   2594495.646 8
  22969516.836    13165901.885 6  10259126.223 6
  24278458.968    -2982455.032 5  -2323994.064 2
  23780704.857    -5006922.826 5  -3901490.095 5
  23425179.486    -2201076.039 6  -1715113.257 5
  22094920.002   -10633611.075 8  -8285912.764 8
 91  5  6 20 18 30.0010000  0  6 19 18 16  6 11  2
  21514571.576     3366684.623 7   2623387.251 8
  22990349.412    13275338.721 6  10344401.914 6
  24283366.275    -2956660.852 5  -2303894.831 3
  23771549.199    -5055044.115 5  -3938987.057 5
  23432139.768    -2164523.599 6  -1686630.853 4
  22087815.521   -10670948.576 8  -8315006.819 8
 91  5  6 20 19  0.0010000  0  6 19 18 16  6 11  2
  21521674.556     3403985.042 7   2652452.467 7
  23011223.964    13385045.140 6  10429887.661 5
  24288368.615    -2930369.685 5  -2283408.359 4
  23762394.736    -5103143.562 6  -3976466.975 4
  23439211.870    -2127369.289 7  -1657679.512 5
  22080764.403   -10707983.129 8  -8343864.819 7
 91  5  6 20 19 30.0010000  0  6 19 18 16  6 11  2
  21528813.510     3441506.709 7   2681690.086 7
  23032152.769    13495017.091 6  10515580.317 5
  24293467.778    -2903584.744 5  -2262537.120 3
  23753245.369    -5151223.143 6  -4013931.441 4
  23446394.597    -2089616.143 6  -1628261.454 5
  22073778.042   -10744716.553 8  -8372488.169 8
 91  5  6 20 20  0.0010000  0  6 19 18 16  6 11  2
  21535996.237     3479246.607 7   2711097.753 8
  23053129.554    13605248.556 6  10601475.204 6
  24298661.391    -2876311.317 5  -2241285.213 2
  23744098.104    -5199286.820 6  -4051383.482 4
  23453686.747    -2051268.891 6  -1598380.518 5
  22066845.638   -10781152.445 8  -8400879.671 8
 91  5  6 20 20 30.0010000  0  6 19 18 16  6 11  2
  21543217.042     3517202.329 7   2740673.605 8
  23074153.995    13715734.612 6  10687568.448 5
  24303941.931    -2848553.209 5  -2219655.653 3
  23734952.637    -5247337.044 6  -4088825.082 4
  23461096.423    -2012330.177 6  -1568038.675 4
  22059963.604   -10817293.196 8  -8429041.205 8
 91  5  6 20 21  0.0010000  0  6 19 18 16  6 11  2
  21550485.511     3555381.906 7   2770423.888 9
  23095226.110    13826480.990 6  10773864.545 5
  24309311.817    -2820304.833 5  -2197644.088 2
  23725812.859    -5295366.544 5  -4126250.486 4
  23468624.805    -1972793.637 6  -1537230.987 4
  22053147.828   -10853131.530 8  -8456967.076 8
 91  5  6 20 21 30.0010000  0  6 19 18 16  6 11  2
  21557789.954     3593781.479 7   2800345.596 7
  23116349.782    13937480.444 6  10860357.836 5
  24314782.425    -2791571.729 5  -2175254.808 1
  23716672.792    -5343379.851 5  -4163663.293 5
  23476258.420    -1932664.596 7  -1505961.627 5
  22046382.108   -10888672.279 8  -8484661.073 8
 91  5  6 20 22  0.0010000  0  6 19 18 16  6 11  2
  21565140.561     3632401.643 7   2830439.194 7
  23137521.424    14048731.075 6  10947046.862 6
  24320343.880    -2762355.551 5  -2152489.063 2
  23707541.111    -5391377.194 6  -4201063.662 4
  23484008.358    -1891943.800 6  -1474231.155 5
  22039676.949   -10923915.520 8  -8512123.245 9
 91  5  6 20 22 30.0010000  0  6 19 18 16  6 11  2
  21572539.445     3671250.153 7   2860710.711 8
  23158740.139    14160238.508 6  11033935.991 6
  24325990.168    -2732650.053 5  -2129342.060 3
  23698413.329    -5439350.705 6  -4238445.453 4
  23491871.313    -1850624.845 6  -1442034.596 3
  22033025.458   -10958853.674 8  -8539347.681 8
 91  5  6 20 23  0.0010000  0  6 19 18 16  6 11  2
  21579971.598     3710323.130 7   2891157.148 7
  23180003.220    14271996.380 6  11121020.248 5
  24331732.694    -2702460.748 5  -2105818.088 3
  23689289.143    -5487304.743 6  -4275812.074 3
  23499848.192    -1808712.706 7  -1409375.777 4
  22026436.919   -10993490.643 8  -8566337.440 8
 91  5  6 20 23 30.0010000  0  6 19 18 16  6 11  2
  21587446.320     3749621.410 7   2921779.144 8
  23201321.157    14384002.188 6  11208297.713 5
  24337575.943    -2671789.271 5  -2081918.391 3
  23680165.863    -5535239.427 5  -4313163.595 4
  23507932.398    -1766208.392 6  -1376255.543 5
  22019903.235   -11027826.914 8  -8593092.888 7
 91  5  6 20 24  0.0010000  0  6 19 18 16  6 11  2
  21594965.418     3789141.803 7   2952574.215 7
  23222681.375    14496249.623 6  11295763.448 5
  24343502.840    -2640640.949 5  -2057647.052 1
  23671046.772    -5583158.072 5  -4350502.637 4
  23516133.223    -1723116.345 6  -1342677.370 4
  22013424.126   -11061865.985 8  -8619616.745 9
 91  5  6 20 24 30.0010000  0  6 19 18 16  6 11  2
  21602531.283     3828885.278 7   2983543.130 8
  23244087.749    14608737.074 6  11383416.214 5
  24349524.474    -2609016.484 5  -2033004.799 4
  23661934.583    -5631060.371 5  -4387828.928 5
  23524444.064    -1679437.118 6  -1308641.644 4
  22007003.467   -11095607.427 8  -8645908.696 8
 91  5  6 20 25  0.0010000  0  6 19 18 16  6 11  2
  21610136.114     3868851.840 7   3014685.871 8
  23265535.506    14721462.076 6  11471254.079 5
  24355633.045    -2576918.343 5  -2007993.404 2
  23652825.691    -5678947.331 5  -4425143.311 4
  23532868.235    -1635172.761 6  -1274149.935 3
  22000640.672   -11129052.297 8  -8671969.574 9
 91  5  6 20 25 30.0010000  0  6 19 18 16  6 11  2
  21617785.617     3909038.535 7   3046000.147 7
  23287032.726    14834419.169 6  11559272.771 5
  24361827.061    -2544351.318 5  -1982616.613 3
  23643709.898    -5726821.390 5  -4462447.601 4
  23541403.922    -1590326.713 6  -1239204.996 5
  21994330.944   -11162203.206 8  -8697801.336 8
 91  5  6 20 26  0.0010000  0  6 19 18 16  6 11  2
  21625469.603     3949447.485 7   3077487.600 8
  23308574.008    14947607.692 6  11647471.832 5
  24368110.404    -2511314.504 5  -1956873.801 3
  23634600.108    -5774681.176 6  -4499740.792 4
  23550047.538    -1544898.868 6  -1203806.697 5
  21988078.767   -11195059.070 8  -8723403.229 9
 91  5  6 20 26 30.0010000  0  6 19 18 16  6 11  2
  21633206.645     3990086.130 7   3109154.043 7
  23330160.564    15061031.985 6  11735854.583 4
  24374491.190    -2477803.109 5  -1930761.196 2
  23625497.507    -5822519.799 6  -4537017.466 4
  23558803.578    -1498883.425 6  -1167950.549 5
  21981883.259   -11227613.191 8  -8748770.007 9
 91  5  6 20 27  0.0010000  0  6 19 18 16  6 11  2
  21640981.764     4030953.079 7   3140998.398 8
  23351785.197    15174688.328 6  11824418.168 5
  24380956.818    -2443821.504 5  -1904282.201 3
  23616398.510    -5870339.392 6  -4574279.353 5
  23567671.744    -1452283.632 6  -1131639.057 3
  21975746.209   -11259867.788 8  -8773903.380 8
 91  5  6 20 27 30.0010000  0  6 19 18 16  6 11  2
  21648804.845     4072053.823 7   3173024.918 8
  23373460.191    15288579.199 6  11913164.473 5
  24387515.073    -2409366.099 5  -1877434.030 5
  23607305.498    -5918134.691 5  -4611522.265 4
  23576649.025    -1405095.625 6  -1094869.212 4
  21969665.515   -11291817.806 8  -8798799.402 8
 91  5  6 20 28  0.0010000  0  6 19 18 16  6 11  2
  21656669.301     4113385.030 7   3205231.020 7
  23395177.458    15402698.525 6  12002088.801 4
  24394161.171    -2374442.080 5  -1850220.684 3
  23598207.705    -5965909.303 5  -4648749.103 4
  23585740.528    -1357323.940 6  -1057644.544 4
  21963642.686   -11323467.058 8  -8823461.113 8
 91  5  6 20 28 30.0010000  0  6 19 18 16  6 11  2
  21664578.725     4154949.168 7   3237618.632 8
  23416937.295    15517045.734 6  12091190.701 4
  24400900.210    -2339048.573 5  -1822641.531 3
  23589126.690    -6013661.170 5  -4685958.243 3
  23594945.361    -1308967.895 6  -1019964.553 3
  21957678.611   -11354814.125 8  -8847887.327 9
 91  5  6 20 29  0.0010000  0  6 19 18 16  6 11  2
  21672536.417     4196746.830 7   3270188.208 8
  23438738.498    15631619.305 6  12180468.994 4
  24407723.184    -2303187.831 5  -1794698.291 3
  23580043.878    -6061390.476 5  -4723149.756 4
  23604255.418    -1260028.904 6   -981830.309 5
  21951771.503   -11385859.172 8  -8872078.202 9
 91  5  6 20 29 30.0010000  0  6 19 18 16  6 11  2
  21680530.981     4238778.526 7   3302940.151 7
  23460584.076    15746416.571 6  12269921.581 5
  24414630.399    -2266861.712 4  -1766392.410 3
  23570964.059    -6109096.807 6  -4760323.406 4
  23613681.790    -1210507.799 6   -943242.486 5
  21945919.259   -11416602.066 8  -8896033.635 9
 91  5  6 20 30  0.0010000  0  6 19 18 16  6 11  2
  21688570.218     4281042.563 7   3335873.124 7
  23482471.623    15861432.719 6  12359544.705 4
  24421634.157    -2230073.463 5  -1737726.455 3
  23561885.749    -6156782.499 6  -4797480.936 4
  23623215.490    -1160408.336 6   -904204.002 4
  21940125.464   -11447045.129 8  -8919755.436 9
 91  5  6 20 30 30.0010000  0  6 19 18 16  6 11  2
  21696662.216     4323539.822 7   3368987.836 7
  23504399.941    15976666.534 6  12449337.446 5
  24428724.250    -2192825.115 5  -1708701.965 3
  23552814.323    -6204446.942 6  -4834621.928 5
  23632860.714    -1109731.166 6   -864715.309 4
  21934392.238   -11477188.092 8  -8943243.375 9
 91  5  6 20 31  0.0010000  0  6 19 18 16  6 11  2
  21704792.281     4366270.701 7   3402284.583 7
  23526369.931    16092115.508 6  12539297.852 4
  24435901.874    -2155118.386 5  -1679320.290 4
  23543752.198    -6252089.821 6  -4871746.133 4
  23642609.060    -1058477.732 6   -824777.624 5
  21928711.468   -11507031.059 8  -8966497.566 9
 91  5  6 20 31 30.0010000  0  6 19 18 16  6 11  2
  21712971.224     4409238.172 7   3435765.696 7
  23548378.896    16207779.709 6  12629425.955 5
  24443160.152    -2116952.340 5  -1649580.707 3
  23534690.675    -6299708.750 6  -4908851.640 5
  23652474.636    -1006647.234 6   -784390.272 3
  21923089.462   -11536572.018 8  -8989516.423 9
 91  5  6 20 32  0.0010000  0  6 19 18 16  6 11  2
  21721190.329     4452436.967 7   3469427.061 8
  23570431.330    16323650.683 6  12719715.187 5
  24450508.666    -2078335.150 5  -1619489.572 3
  23525634.841    -6347309.682 6  -4945943.150 4
  23662445.726     -954246.595 6   -743558.643 5
  21917525.913   -11565817.290 8  -9012304.869 9
 91  5  6 20 32 30.0010000  0  6 19 18 16  6 11  2
  21729454.708     4495866.438 7   3503268.172 8
  23592514.938    16439725.456 6  12810163.214 6
  24457943.514    -2039269.344 5  -1589048.892 2
  23516579.015    -6394893.077 6  -4983020.974 3
  23672520.853     -901278.397 6   -702284.755 5
  21912013.931   -11594767.660 8  -9034863.519 9
 91  5  6 20 33  0.0010000  0  6 19 18 16  6 11  2
  21737770.653     4539566.689 7   3537320.279 8
  23614648.916    16556041.223 6  12900799.016 5
  24465468.607    -1999717.080 5  -1558229.109 3
  23507534.873    -6442419.361 6  -5020054.316 5
  23682719.493     -847704.078 6   -660538.559 4
  21906566.697   -11623383.944 8  -9057161.845 9
 91  5  6 20 33 30.0010000  0  6 19 18 16  6 11  2
  21746133.365     4583513.089 7   3571564.181 7
  23636829.365    16672570.785 6  12991601.436 4
  24473083.035    -1959705.812 5  -1527051.686 2
  23498497.030    -6489913.644 6  -5057062.724 5
  23693027.861     -793550.222 6   -618340.792 5
  21901183.025   -11651691.498 8  -9079219.606 9
 91  5  6 20 34  0.0020000  0  6 19 18 16  6 11  2
  21754538.344     4627701.484 7   3605996.655 8
  23659031.393    16789309.336 6  13082566.684 5
  24480783.802    -1919241.832 5  -1495521.539 2
  23489461.284    -6537383.307 6  -5094051.928 3
  23703437.852     -738822.697 6   -575696.017 4
  21895852.720   -11679697.616 8  -9101042.470 9
 91  5  6 20 34 30.0020000  0  6 19 18 16  6 11  2
  21762992.495     4672131.507 7   3640617.401 8
  23681290.682    16906248.649 6  13173688.363 5
  24488566.722    -1878327.739 5  -1463640.634 2
  23480438.431    -6584822.924 6  -5131017.770 4
  23713962.366     -683524.751 6   -532606.740 5
  21890580.564   -11707398.746 8  -9122627.683 9
 91  5  6 20 35  0.0020000  0  6 19 18 16  6 11  2
  21771498.202     4716808.403 6   3675430.546 7
  23703584.452    17023393.916 6  13264970.553 4
  24496442.869    -1836960.868 5  -1431406.885 3
  23471411.084    -6632230.832 6  -5167958.873 5
  23724596.006     -627652.755 6   -489070.173 4
  21885367.172   -11734792.678 8  -9143973.530 9
 91  5  6 20 35 30.0020000  0  6 19 18 16  6 11  2
  21780048.887     4761727.811 7   3710432.639 8
  23725914.195    17140737.941 6  13356407.594 4
  24504397.262    -1795148.049 5  -1398825.662 2
  23462399.321    -6679611.254 6  -5204878.566 4
  23735336.065     -571212.899 6   -445091.072 5
  21880214.646   -11761884.342 8  -9165083.831 9
 91  5  6 20 36  0.0020000  0  6 19 18 16  6 11  2
  21788636.741     4806885.878 7   3745620.704 7
  23748285.601    17258274.250 6  13447994.477 5
  24512445.189    -1752895.354 5  -1365901.680 2
  23453382.758    -6726968.461 6  -5241780.187 4
  23746181.960     -514210.825 6   -400673.885 4
  21875116.670   -11788678.336 8  -9185962.186 9
 91  5  6 20 36 30.0020000  0  6 19 18 16  6 11  2
  21797278.560     4852281.028 7   3780993.514 7
  23770686.699    17375998.105 6  13539727.495 3
  24520563.563    -1710207.049 5  -1332638.275 2
  23444379.092    -6774304.295 6  -5278665.130 4
  23757133.682     -456650.466 6   -355821.696 6
  21870074.159   -11815177.023 8  -9206610.431 9
 91  5  6 20 37  0.0020000  0  6 19 18 16  6 11  2
  21805961.448     4897918.263 7   3816554.969 7
  23793130.061    17493911.683 6  13631608.336 4
  24528767.390    -1667080.853 5  -1299033.678 3
  23435377.222    -6821614.252 6  -5315529.929 4
  23768193.918     -398528.832 6   -310532.150 5
  21865086.215   -11841376.222 8  -9227025.305 9
 91  5  6 20 37 30.0020000  0  6 19 18 16  6 11  2
  21814690.501     4943796.316 7   3852304.067 7
  23815594.406    17612011.506 6  13723634.350 3
  24537059.646    -1623519.359 5  -1265089.869 4
  23426375.955    -6868899.309 6  -5352375.345 5
  23779356.394     -339849.100 6   -264807.702 5
  21860157.924   -11867277.777 8  -9247208.253 9
 91  5  6 20 38  0.0020000  0  6 19 18 16  6 11  2
  21823471.128     4989914.712 7   3888240.451 7
  23838103.722    17730294.006 5  13815802.668 4
  24545428.954    -1579526.247 4  -1230809.274 2
  23417387.584    -6916160.308 6  -5389201.973 4
  23790635.788     -280613.620 6   -218650.189 5
  21855286.897   -11892882.925 8  -9267160.240 9
 91  5  6 20 38 30.0020000  0  6 19 18 16  6 11  2
  21832286.821     5036274.816 7   3924365.160 7
  23860647.815    17848757.736 5  13908112.200 4
  24553878.603    -1535102.711 4  -1196193.765 4
  23408392.607    -6963396.095 6  -5426008.980 5
  23802012.012     -220823.367 6   -172060.415 5
  21850469.834   -11918190.951 8  -9286880.697 9
 91  5  6 20 39  0.0020000  0  6 19 18 16  6 11  2
  21841157.080     5082875.800 7   3960677.591 7
  23883224.584    17967398.777 6  14000559.902 4
  24562418.189    -1490252.460 5  -1161245.722 3
  23399408.729    -7010607.887 6  -5462797.287 4
  23813489.867     -160481.585 6   -125040.872 5
  21845708.830   -11943203.593 8  -9306370.992 9
 91  5  6 20 39 30.0020000  0  6 19 18 16  6 11  2
  21850071.411     5129719.813 7   3997179.385 7
  23905833.732    18086217.069 6  14093145.706 4
  24571041.424    -1444975.706 5  -1125964.877 3
  23390433.244    -7057793.637 6  -5499565.275 3
  23825083.442      -99587.973 6    -77591.344 5
  21841004.784   -11967919.535 8  -9325630.101 9
 91  5  6 20 40  0.0020000  0  6 19 18 16  6 11  2
  21859031.304     5176812.771 7   4033875.167 7
  23928484.559    18205214.728 5  14185871.308 4
  24579735.105    -1399269.741 5  -1090350.088 2
  23381459.252    -7104947.996 6  -5536308.839 5
  23836774.748      -38139.434 6    -29709.390 4
  21836360.705   -11992334.169 8  -9344654.425 9
 91  5  6 20 40 30.0020000  0  6 19 18 16  6 11  2
  21868045.763     5224154.154 7   4070764.518 7
  23951161.457    18324388.832 6  14278734.384 2
  24588510.627    -1353137.102 4  -1054402.321 4
  23372490.965    -7152071.370 6  -5573028.230 4
  23848578.171       23861.563 6     18603.051 5
  21831770.582   -12016448.560 8  -9363444.800 9
 91  5  6 20 41  0.0020000  0  6 19 18 16  6 11  2
  21877099.800     5271738.937 6   4107843.529 7
  23973870.438    18443731.452 6  14371728.748 3
  24597364.397    -1306584.879 5  -1018128.098 3
  23363526.570    -7199168.888 6  -5609727.466 5
  23860476.332       86407.957 6     67340.463 3
  21827239.520   -12040268.528 8  -9382005.741 9
 91  5  6 20 41 30.0020000  0  6 19 18 16  6 11  2
  21886206.597     5319577.106 6   4145120.002 7
  23996617.189    18563249.979 6  14464860.192 4
  24606315.303    -1259606.037 5   -981520.952 3
  23354571.764    -7246230.928 6  -5646399.067 5
  23872481.828      149507.507 6    116508.898 5
  21822760.921   -12063784.799 8  -9400330.043 9
 91  5  6 20 42  0.0020000  0  6 19 18 16  6 11  2
  21895351.463     5367661.015 7   4182587.933 7
  24019396.320    18682934.297 6  14558120.814 4
  24615330.661    -1212210.724 5   -944589.306 2
  23345625.064    -7293264.738 6  -5683048.658 4
  23884597.340      213150.576 6    166100.856 3
  21818342.875   -12087005.286 8  -9418423.859 9
 91  5  6 20 42 30.0020000  0  6 19 18 16  6 11  2
  21904544.002     5415989.868 7   4220246.755 7
  24042203.327    18802779.947 6  14651507.152 2
  24624431.761    -1164402.567 5   -907336.410 3
  23336679.253    -7340271.603 6  -5719677.255 5
  23896812.082      277333.683 6    216113.662 5
  21813982.694   -12109931.862 8  -9436288.660 9
 91  5  6 20 43  0.0020000  0  6 19 18 16  6 11  2
  21913787.199     5464563.073 6   4258095.957 7
  24065032.827    18922784.798 6  14745017.541 4
  24633603.613    -1116184.442 5   -869764.074 2
  23327740.344    -7387251.914 6  -5756285.168 5
  23909122.757      342054.042 6    266545.083 4
  21809675.579   -12132565.649 8  -9453925.315 9
 91  5  6 20 43 30.0020000  0  6 19 18 16  6 11  2
  21923075.670     5513377.269 6   4296132.947 8
  24087897.394    19042941.479 5  14838646.237 4
  24642854.305    -1067562.722 5   -831876.780 2
  23318800.231    -7434209.697 6  -5792875.505 5
  23921540.463      407305.844 6    317390.579 4
  21805422.420   -12154911.553 8  -9471337.636 9
 91  5  6 20 44  0.0020000  0  6 19 18 16  6 11  2
  21932414.809     5562440.401 7   4334363.903 7
  24110793.449    19163255.417 5  14932397.457 2
  24652187.144    -1018532.364 5   -793671.558 2
  23309870.615    -7481137.073 6  -5829442.172 6
  23934058.595      473094.599 6    368654.498 4
  21801226.829   -12176962.337 8  -9488520.003 9
 91  5  6 20 44 30.0020000  0  6 19 18 16  6 11  2
  21941797.712     5611747.377 6   4372784.886 7
  24133716.779    19283718.715 5  15026265.075 4
  24661597.034     -969100.865 5   -755153.279 2
  23300942.795    -7528039.043 6  -5865989.035 5
  23946680.154      539413.307 6    420331.370 5
  21797086.390   -12198723.558 8  -9505476.737 9
 91  5  6 20 45  0.0020000  0  6 19 18 16  6 11  2
  21951228.281     5661294.214 6   4411392.773 7
  24156665.587    19404325.043 6  15120244.139 3
  24671074.972     -919275.394 5   -716328.491 2
  23292022.166    -7574919.489 6  -5902519.132 5
  23959398.850      606255.373 6    472416.051 5
  21792999.619   -12220200.147 8  -9522211.686 9
 91  5  6 20 45 30.0020000  0  6 19 18 16  6 11  2
  21960705.320     5711082.284 6   4450188.627 7
  24179641.687    19525072.734 5  15214333.365 4
  24680629.952     -869056.959 5   -677197.448 2
  23283104.842    -7621777.252 6  -5939031.572 5
  23972220.380      673619.937 6    524907.871 4
  21788967.414   -12241391.746 8  -9538724.555 9
 91  5  6 20 46  0.0020000  0  6 19 18 16  6 11  2
  21970226.429     5761115.237 6   4489175.292 7
  24202654.353    19645961.914 5  15308532.830 2
  24690261.390     -818444.660 5   -637759.025 2
  23274192.912    -7668608.924 6  -5975523.652 5
  23985135.435      741508.132 6    577807.716 4
  21784988.869   -12262295.456 8  -9555013.107 9
 91  5  6 20 46 30.0020000  0  6 19 18 16  6 11  2
  21979789.210     5811390.273 7   4528350.598 7
  24225682.612    19766987.971 5  15402838.953 2
  24699974.661     -767443.727 5   -598017.838 2
  23265286.076    -7715416.878 6  -6011997.284 6
  23998150.627      809914.991 6    631111.710 4
  21781064.882   -12282914.447 8  -9571079.803 9
 91  5  6 20 47  0.0020000  0  6 19 18 16  6 11  2
  21989406.252     5861913.166 7   4567719.046 7
  24248738.747    19888153.477 5  15497253.731 2
  24709743.703     -716051.374 4   -557971.609 3
  23256387.940    -7762195.270 6  -6048447.877 5
  24011274.343      878843.712 6    684822.328 4
  21777193.665   -12303243.816 8  -9586920.818 9
 91  5  6 20 47 30.0020000  0  6 19 18 16  6 11  2
  21999067.661     5912684.273 6   4607280.898 6
  24271823.666    20009456.356 5  15591775.548 3
  24719601.776     -664269.544 4   -517621.862 3
  23247489.201    -7808943.669 6  -6084875.072 5
  24024485.292      948292.447 6    738938.197 5
  21773383.000   -12323283.942 8  -9602536.444 9
 91  5  6 20 48  0.0020000  0  6 19 18 16  6 11  2
  22008774.946     5963713.771 7   4647044.098 6
  24294935.563    20130902.853 5  15686409.292 2
  24729537.494     -612091.925 5   -476963.743 3
  23238600.348    -7855652.754 6  -6121271.669 5
  24037799.380     1018267.948 6    793464.511 5
  21769626.902   -12343026.611 8  -9617920.286 9
 91  5  6 20 48 30.0020000  0  6 19 18 16  6 11  2
  22018537.680     6015002.424 7   4687009.241 7
  24318074.744    20252491.796 5  15781153.998 3
  24739538.877     -559519.629 5   -435998.127 2
  23229719.601    -7902321.036 6  -6157636.457 5
  24051216.888     1088769.352 6    848400.620 4
  21765925.667   -12362471.312 8  -9633071.954 9
 91  5  6 20 49  0.0020000  0  6 19 18 16  6 11  2
  22028346.892     6066551.213 7   4727177.062 7
  24341233.713    20374220.948 5  15876007.993 2
  24749620.592     -506554.312 5   -394726.208 3
  23220850.536    -7948947.526 6  -6193968.667 6
  24064732.134     1159795.223 6    903745.394 5
  21762280.491   -12381617.297 8  -9647990.852 9
 91  5  6 20 49 30.0020000  0  6 19 18 16  6 11  2
  22038203.473     6118356.010 7   4767544.386 7
  24364422.060    20496084.118 5  15970966.393 3
  24759772.169     -453202.966 5   -353153.987 3
  23211980.879    -7995536.406 6  -6230271.590 6
  24078346.610     1231338.820 6    959493.617 4
  21758695.867   -12400469.856 8  -9662681.114 9
 91  5  6 20 50  0.0020000  0  6 19 18 16  6 11  2
  22048110.407     6170413.577 7   4808108.673 6
  24387632.594    20618075.043 5  16066024.371 2
  24769997.787     -399472.257 5   -311285.682 3
  23203122.912    -8042090.846 6  -6266547.673 5
  24092058.215     1303394.135 6   1015640.578 4
  21755161.613   -12419033.586 8  -9677146.305 9
 91  5  6 20 50 30.0020000  0  6 19 18 16  6 11  2
  22058062.624     6222725.491 6   4848871.154 6
  24410873.702    20740192.442 5  16161180.846 3
  24780290.265     -345363.311 4   -269122.642 2
  23194270.338    -8088609.365 6  -6302795.749 5
  24105867.253     1375960.252 6   1072185.552 4
  21751684.919   -12437307.472 8  -9691385.653 9
 91  5  6 20 51  0.0020000  0  6 19 18 16  6 11  2
  22068064.897     6275292.315 6   4889832.274 7
  24434137.599    20862433.926 5  16256434.038 3
  24790660.982     -290877.800 5   -226666.220 3
  23185424.666    -8135090.720 6  -6339014.888 6
  24119771.630     1449035.695 6   1129127.389 5
  21748262.495   -12455291.187 8  -9705398.879 9
 91  5  6 20 51 30.0020000  0  6 19 18 16  6 11  2
  22078120.838     6328118.744 6   4930995.672 7
  24457425.473    20984801.531 5  16351785.491 2
  24801100.653     -236013.957 4   -183914.964 2
  23176593.381    -8181530.177 6  -6375201.362 5
  24133773.440     1522622.440 6   1186467.646 4
  21744895.223   -12472980.777 8  -9719182.932 9
 91  5  6 20 52  0.0020000  0  6 19 18 16  6 11  2
  22088219.942     6381202.903 6   4972359.896 6
  24480735.840    21107289.897 5  16447231.081 4
  24811606.583     -180776.841 4   -140872.847 1
  23167759.697    -8227930.280 6  -6411357.176 6
  24147876.270     1596715.198 6   1244202.205 4
  21741586.714   -12490380.092 8  -9732740.789 9
 91  5  6 20 52 30.0020000  0  6 19 18 16  6 11  2
  22098370.917     6434548.223 6   5013927.625 6
  24504067.785    21229900.108 5  16542771.550 2
  24822192.252     -125166.400 4    -97539.832 3
  23158935.602    -8274287.117 6  -6447479.276 6
  24162071.446     1671315.022 6   1302331.892 4
  21738328.872   -12507485.986 8  -9746070.011 9
 91  5  6 20 53  0.0020000  0  6 19 18 16  6 11  2
  22108572.253     6488151.246 6   5055696.174 6
  24527427.318    21352626.176 5  16638402.335 1
  24832848.376      -69188.568 4    -53920.506 3
  23150123.504    -8320603.906 6  -6483570.157 5
  24176362.555     1746415.952 6   1360852.070 4
  21735127.385   -12524303.018 8  -9759174.133 9
 91  5  6 20 53 30.0020000  0  6 19 18 16  6 11  2
  22118825.756     6542011.693 6   5097665.308 6
  24550802.731    21475465.125 5  16734121.071 2
  24843564.458      -12846.155 4    -10017.157 2
  23141315.000    -8366880.793 6  -6519629.953 5
  24190752.293     1822015.502 6   1419760.764 4
  21731984.060   -12540832.129 8  -9772053.911 9
 91  5  6 20 54  0.0020000  0  6 19 18 16  6 11  2
  22129122.127     6596128.090 6   5139833.884 6
  24574192.541    21598412.762 5  16829924.484 3
  24854349.496       43855.820 4     34166.400 3
  23132507.998    -8413119.015 6  -6555659.603 6
  24205232.867     1898109.701 6   1479054.886 5
  21728894.699   -12557075.799 8  -9784711.260 9
 91  5  6 20 54 30.0020000  0  6 19 18 16  6 11  2
  22139466.467     6650497.030 6   5182199.236 7
  24597602.139    21721462.814 5  16925807.716 5
  24865214.272      100911.325 4     78625.471 2
  23123728.872    -8459321.698 6  -6591661.560 6
  24219805.474     1974692.237 6   1538729.556 5
  21725854.208   -12573038.164 8  -9797149.413 9
 91  5  6 20 55  0.0020000  0  6 19 18 16  6 11  2
  22149860.873     6705123.917 6   5224765.593 6
  24621043.208    21844617.608 5  17021772.560 2
  24876134.810      158323.214 4    123362.181 1
  23114942.259    -8505483.261 6  -6627631.491 6
  24234473.124     2051765.899 6   1598786.920 4
  21722872.167   -12588714.582 8  -9809364.739 9
 91  5  6 20 55 30.0020000  0  6 19 18 16  6 11  2
  22160305.343     6760004.643 6   5267529.745 6
  24644499.564    21967870.921 5  17117814.172 2
  24887134.494      216085.128 4    168371.696 3
  23106164.337    -8551607.524 6  -6663572.352 5
  24249231.611     2129324.305 6   1659222.007 4
  21719943.497   -12604109.759 8  -9821360.922 9
 91  5  6 20 56  0.0020000  0  6 19 18 16  6 11  2
  22170798.674     6815145.341 6   5310496.470 6
  24667974.818    22091225.513 5  17213934.679 3
  24898182.750      274199.333 4    213655.687 3
  23097400.201    -8597688.359 6  -6699479.382 6
  24264080.027     2207370.417 6   1720037.109 3
  21717065.790   -12619218.910 8  -9833134.234 9
 91  5  6 20 56 30.0020000  0  6 19 18 16  6 11  2
  22181338.483     6870542.704 6   5353663.199 6
  24691461.154    22214675.561 5  17310129.607 3
  24909313.738      332659.798 4    259209.520 2
  23088635.472    -8643728.556 6  -6735354.748 5
  24279027.980     2285898.236 6   1781227.568 4
  21714246.236   -12634045.927 8  -9844687.690 9
 91  5  6 20 57  0.0020000  0  6 19 18 16  6 11  2
  22191929.247     6926203.109 6   5397034.889 6
  24714976.282    22338224.521 5  17406401.572 1
  24920509.492      391469.807 4    305035.707 3
  23079877.931    -8689721.803 6  -6771193.509 6
  24294057.477     2364911.027 6   1842795.907 4
  21711477.358   -12648585.342 8  -9856017.053 9
 91  5  6 20 57 30.0020000  0  6 19 18 16  6 11  2
  22202579.673     6982127.966 6   5440612.637 7
  24738510.588    22461871.291 5  17502749.775 2
  24931760.101      450628.225 4    351133.398 2
  23071140.180    -8735666.165 6  -6806994.210 6
  24309192.199     2444408.031 6   1904741.582 3
  21708764.835   -12662836.899 8  -9867122.102 9
 91  5  6 20 58  0.0020000  0  6 19 18 16  6 11  2
  22213263.979     7038316.808 6   5484396.094 6
  24762056.289    22585612.976 5  17599171.896 3
  24943089.262      510131.342 4    397499.688 2
  23062407.524    -8781561.654 6  -6842756.816 6
  24324407.864     2524386.358 6   1967062.299 3
  21706107.175   -12676801.683 8  -9878003.703 9
 91  5  6 20 58 30.0020000  0  6 19 18 16  6 11  2
  22224014.535     7094788.052 6   5528399.593 6
  24785623.270    22709464.629 5  17695679.768 3
  24954475.076      569994.247 4    444146.242 2
  23053688.968    -8827389.752 6  -6878466.901 6
  24339723.658     2604861.402 6   2029770.066 5
  21703508.576   -12690461.743 8  -9888647.849 9
 91  5  6 20 59  0.0020000  0  6 19 18 16  6 11  2
  22234811.560     7151534.873 6   5572617.833 6
  24809214.839    22833416.850 5  17792265.957 2
  24965940.942      630207.210 4    491065.659 2
  23044976.397    -8873157.113 6  -6914129.685 5
  24355128.196     2685823.475 6   2092857.313 4
  21700964.239   -12703825.436 8  -9899061.068 9
 91  5  6 20 59 30.0020000  0  6 19 18 16  6 11  2
  22245662.847     7208545.520 6   5617041.661 6
  24832815.700    22957455.557 5  17888919.567 3
  24977455.067      690756.426 4    538247.097 2
  23036276.119    -8918874.836 6  -6949753.776 6
  24370625.970     2767258.460 6   2156313.100 2
  21698475.960   -12716904.849 8  -9909252.771 9
 91  5  6 21  0  0.0020000  0  6 19 18 16  6 11  2
  22256560.308     7265820.010 6   5661671.077 6
  24856431.848    23081577.384 5  17985637.935 3
  24989045.048      751638.240 5    585687.624 2
  23027585.134    -8964542.835 6  -6985339.114 6
  24386210.079     2849163.099 6   2220134.802 3
  21696043.146   -12729701.168 8  -9919223.884 9
 91  5  6 21  0 30.0020000  0  6 19 18 16  6 11  2
  22267508.723     7323364.348 6   5706510.759 6
  24880075.584    23205786.012 5  18082423.939 2
  25000684.483      812855.940 4    633389.982 2
  23018908.843    -9010154.406 6  -7020880.502 6
  24401889.527     2931540.871 6   2284325.213 3
  21693661.890   -12742209.161 8  -9928970.325 9
 91  5  6 21  1  0.0020000  0  6 19 18 16  6 11  2
  22278510.212     7381175.892 6   5751558.633 7
  24903725.009    23330075.956 5  18179273.290 3
  25012408.167      874403.987 4    681349.689 1
  23010235.849    -9055712.064 6  -7056379.868 6
  24417652.614     3014386.313 6   2348880.038 3
  21691337.599   -12754432.225 8  -9938494.743 9
 91  5  6 21  1 30.0020000  0  6 19 18 16  6 11  2
  22289559.655     7439257.790 6   5796817.186 6
  24927393.620    23454448.261 5  18276186.827 2
  25024184.918      936282.228 5    729566.651 2
  23001575.742    -9101212.159 6  -7091834.372 7
  24433507.733     3097699.988 6   2413799.712 4
  21689063.975   -12766367.948 8  -9947795.260 9
 91  5  6 21  2  0.0020000  0  6 19 18 16  6 11  2
  22300667.565     7497613.458 6   5842289.068 6
  24951074.229    23578902.853 5  18373164.492 3
  25036016.828      998490.939 5    778040.725 2
  22992933.626    -9146651.135 6  -7127241.253 7
  24449450.095     3181481.933 6   2479084.291 3
  21686849.106   -12778014.507 8  -9956870.454 9
 91  5  6 21  2 30.0020000  0  6 19 18 16  6 11  2
  22311820.444     7556239.455 6   5887971.595 6
  24974768.623    23703433.321 5  18470201.255 3
  25047920.686     1061024.091 5    826768.043 3
  22984292.706    -9192031.998 7  -7162602.850 5
  24465480.904     3265726.084 6   2544728.995 3
  21684686.108   -12789376.091 8  -9965723.596 9
 91  5  6 21  3  0.0020000  0  6 19 18 16  6 11  2
  22323035.987     7615131.309 6   5933861.289 6
  24998490.903    23828032.938 5  18567291.945 3
  25059881.205     1123873.837 4    875741.965 3
  22975667.980    -9237358.308 6  -7197921.955 7
  24481600.141     3350425.353 6   2610728.354 5
  21682579.160   -12800457.371 8  -9974358.302 9
 91  5  6 21  3 30.0020000  0  6 19 18 16  6 11  2
  22334291.692     7674292.317 6   5979960.707 6
  25022211.385    23952703.259 5  18664437.688 2
  25071904.379     1187040.945 4    924962.797 1
  22967053.741    -9282626.499 6  -7233195.761 6
  24497806.917     3435580.054 6   2677082.622 2
  21680522.286   -12811255.959 8  -9982772.737 9
 91  5  6 21  4  0.0020000  0  6 19 18 16  6 11  2
  22345599.564     7733719.956 6   6026267.893 6
  25045944.755    24077438.328 5  18761633.923 2
  25083986.613     1250519.628 4    974426.903 2
  22958447.599    -9327838.513 6  -7268425.788 7
  24514092.551     3521185.147 5   2743787.843 3
  21678518.774   -12821775.200 8  -9990969.492 9
 91  5  6 21  4 30.0020000  0  6 19 18 16  6 11  2
  22356959.298     7793417.477 6   6072785.366 6
  25069703.305    24202238.583 5  18858880.960 1
  25096123.117     1314310.082 4   1024133.906 3
  22949861.542    -9372990.826 7  -7303609.301 6
  24530472.311     3607241.058 6   2810844.337 4
  21676574.916   -12832012.888 8  -9998946.865 9
 91  5  6 21  5  0.0020000  0  6 19 18 16  6 11  2
  22368370.301     7853388.107 6   6119515.664 6
  25093455.258    24327104.821 5  18956179.405 3
  25108318.071     1378412.513 4   1074084.069 1
  22941278.486    -9418079.774 7  -7338743.433 6
  24546936.906     3693747.886 6   2878252.177 4
  21674680.529   -12841966.597 8 -10006702.950 9
 91  5  6 21  5 30.0020000  0  6 19 18 16  6 11  2
  22379829.265     7913624.566 6   6166453.091 6
  25117237.497    24452026.768 5  19053521.255 2
  25120584.684     1442816.788 4   1124269.340 3
  22932711.616    -9463111.792 6  -7373833.196 7
  24563475.559     3780696.093 6   2946003.984 3
  21672835.308   -12851644.256 8 -10014243.942 9
 91  5  6 21  6  0.0020000  0  6 19 18 16  6 11  2
  22391346.697     7974124.859 6   6213596.093 6
  25141014.640    24577000.571 5  19150903.545 1
  25132887.262     1507518.346 4   1174686.320 3
  22924152.241    -9508088.039 6  -7408879.522 6
  24580100.251     3868080.923 5   3014096.002 3
  21671049.740   -12861048.577 8 -10021571.936 9
 91  5  6 21  6 30.0020000  0  6 19 18 16  6 11  2
  22402912.989     8034889.454 6   6260945.057 5
  25164801.067    24702023.715 5  19248324.243 2
  25145251.605     1572514.284 4   1225332.716 2
  22915599.758    -9553007.590 6  -7443881.662 6
  24596815.177     3955899.761 6   3082526.217 4
  21669307.650   -12870180.276 8 -10028687.511 9
 91  5  6 21  7  0.0020000  0  6 19 18 16  6 11  2
  22414519.748     8095921.047 6   6308502.093 5
  25188606.392    24827096.396 5  19345783.577 1
  25157680.104     1637804.407 4   1276208.278 2
  22907066.471    -9597867.429 6  -7478837.270 7
  24613609.852     4044152.122 6   3151294.250 4
  21667622.814   -12879037.289 8 -10035589.036 9
 91  5  6 21  7 30.0020000  0  6 19 18 16  6 11  2
  22426185.873     8157221.155 6   6356268.342 6
  25212403.612    24952216.920 5  19443280.179 2
  25170165.255     1703386.753 4   1327311.601 3
  22898541.272    -9642665.469 6  -7513744.718 7
  24630489.665     4132836.702 6   3220399.053 4
  21665990.451   -12887618.969 8 -10042276.026 9
 91  5  6 21  8  0.0020000  0  6 19 18 16  6 11  2
  22437905.658     8218786.635 6   6404241.363 6
  25236230.218    25077379.964 5  19540809.954 2
  25182703.778     1769255.287 4   1378637.918 2
  22890030.460    -9687404.260 7  -7548605.993 7
  24647443.232     4221947.361 6   3289835.854 4
  21664408.144   -12895929.089 8 -10048751.394 9
 91  5  6 21  8 30.0020000  0  6 19 18 16  6 11  2
  22449668.919     8280624.691 6   6452426.785 6
  25260048.430    25202590.039 5  19638376.322 2
  25195289.965     1835414.758 4   1430190.868 2
  22881527.449    -9732075.784 7  -7583414.869 6
  24664480.133     4311488.767 6   3359608.321 2
  21662879.199   -12903961.549 8 -10055010.409 9
 91  5  6 21  9  0.0020000  0  6 19 18 16  6 11  2
  22461489.138     8342731.604 6   6500821.715 6
  25283886.727    25327840.496 5  19735974.219 2
  25207927.718     1901857.604 4   1481964.728 2
  22873037.028    -9776683.661 6  -7618174.141 6
  24681608.176     4401453.805 6   3429710.914 3
  21661403.626   -12911721.772 8 -10061057.288 9
 91  5  6 21  9 30.0020000  0  6 19 18 16  6 11  2
  22473358.820     8405105.791 6   6549424.911 6
  25307736.717    25453127.154 5  19833600.255 2
  25220626.320     1968578.900 4   1533955.508 1
  22864561.291    -9821228.535 6  -7652884.310 6
  24698804.877     4491838.491 6   3500140.500 5
  21659982.306   -12919211.471 8 -10066893.369 9
 91  5  6 21 10  0.0020000  0  6 19 18 16  6 11  2
  22485282.467     8467747.572 6   6598236.612 5
  25331582.212    25578447.745 5  19931252.834 2
  25233369.298     2035576.582 4   1586161.637 2
  22856097.552    -9865709.494 7  -7687544.695 7
  24716084.912     4582640.080 6   3570894.950 4
  21658602.064   -12926430.912 8 -10072518.862 9
 91  5  6 21 10 30.0020000  0  6 19 18 16  6 11  2
  22497253.778     8530657.767 6   6647257.470 6
  25355430.997    25703801.149 5  20028930.878 3
  25246175.838     2102848.832 4   1638581.765 1
  22847643.401    -9910124.596 7  -7722153.753 7
  24733438.996     4673856.678 6   3641972.755 4
  21657281.772   -12933379.895 8 -10077933.614 9
 91  5  6 21 11  0.0020000  0  6 19 18 16  6 11  2
  22509273.654     8593836.908 6   6696487.899 6
  25379299.274    25829184.877 5  20126632.605 2
  25259033.639     2170392.802 4   1691213.542 1
  22839206.649    -9954472.779 7  -7756710.652 7
  24750874.329     4765485.914 6   3713372.143 2
  21656014.258   -12940059.030 8 -10083138.094 9
 91  5  6 21 11 30.0020000  0  6 19 18 16  6 11  2
  22521344.197     8657285.741 6   6745928.460 7
  25403162.159    25954597.269 5  20224356.708 3
  25271943.301     2238206.724 4   1744055.754 3
  22830777.085    -9998752.693 7  -7791214.385 6
  24768393.300     4857525.258 6   3785091.076 3
  21654790.797   -12946468.274 8 -10088132.262 9
 91  5  6 21 12  0.0020000  0  6 19 18 16  6 11  2
  22533468.704     8721004.910 6   6795579.685 6
  25427025.637    26080035.986 5  20322101.266 2
  25284898.526     2306287.286 4   1797105.684 2
  22822367.904   -10042962.933 7  -7825663.804 6
  24785982.422     4949972.692 6   3857127.995 4
  21653622.208   -12952607.756 8 -10092916.226 9
 91  5  6 21 12 30.0020000  0  6 19 18 16  6 11  2
  22545653.170     8784993.349 6   6845440.725 6
  25450906.801    26205498.174 5  20419864.170 1
  25297896.033     2374630.290 4   1850360.141 2
  22813969.821   -10087103.472 7  -7860058.919 7
  24803649.188     5042824.479 6   3929479.988 5
  21652506.083   -12958479.419 8 -10097491.490 9
 91  5  6 21 13  0.0020000  0  6 19 18 16  6 11  2
  22557877.510     8849251.604 6   6895512.005 6
  25474787.668    26330981.926 5  20517643.850 3
  25310951.090     2443233.793 4   1903817.608 1
  22805581.623   -10131173.335 7  -7894398.953 7
  24821401.705     5136078.225 6   4002145.205 3
  21651436.725   -12964083.486 8 -10101858.256 9
 91  5  6 21 13 30.0020000  0  6 19 18 16  6 11  2
  22570154.611     8913778.678 6   6945792.765 6
  25498673.334    26456482.849 5  20615436.913 2
  25324056.518     2512093.479 4   1957474.626 3
  22797208.119   -10175172.892 7  -7928684.213 7
  24839220.768     5229729.905 6   4075120.502 3
  21650420.730   -12969421.863 8 -10106017.984 9
 91  5  6 21 14  0.0020000  0  6 19 18 16  6 11  2
  22582487.168     8978575.698 6   6996283.864 5
  25522549.708    26582000.154 4  20713242.761 2
  25337212.909     2581207.852 5   2011330.181 3
  22788847.510   -10219099.705 7  -7962912.787 7
  24857115.076     5323777.569 6   4148404.342 3
  21649456.597   -12974493.718 8 -10109970.037 9
 91  5  6 21 14 30.0020000  0  6 19 18 16  6 11  2
  22594869.197     9043646.470 6   7046988.273 6
  25546444.963    26707534.632 4  20811061.988 2
  25350412.777     2650577.287 4   2065384.487 2
  22780506.385   -10262949.393 7  -7997081.269 7
  24875087.631     5418222.048 5   4221997.400 4
  21648546.725   -12979296.757 8 -10113712.612 9
 91  5  6 21 15  0.0020000  0  6 19 18 16  6 11  2
  22607304.589     9108985.947 6   7097902.072 6
  25570327.933    26833079.138 4  20908889.060 2
  25363658.504     2720193.917 4   2119631.371 2
  22772170.651   -10306726.058 7  -8031192.852 6
  24893136.042     5513055.696 5   4295893.671 4
  21647680.025   -12983836.629 8 -10117250.129 9
 91  5  6 21 15 30.0020000  0  6 19 18 16  6 11  2
  22619790.342     9174603.552 6   7149032.601 6
  25594221.688    26958640.395 4  21006729.193 2
  25376959.994     2790064.446 4   2174076.075 1
  22763858.310   -10350419.372 7  -8065239.483 7
  24911259.393     5608285.114 5   4370098.384 4
  21646867.883   -12988104.176 8 -10120575.434 9
 91  5  6 21 16  0.0020000  0  6 19 18 16  6 11  2
  22632330.365     9240496.046 6   7200377.319 6
  25618128.338    27084213.194 4  21104578.299 2
  25390301.357     2860182.065 4   2228713.284 1
  22755557.957   -10394031.827 7  -8099223.110 7
  24929453.496     5703903.905 5   4444606.495 4
  21646108.807   -12992103.343 8 -10123691.622 9
 91  5  6 21 16 30.0020000  0  5 19 16  6 11  2
  22644914.755     9306664.121 6   7251936.769 6
  25403688.894     2930544.677 4   2283541.487 2
  22747273.789   -10437562.011 7  -8133142.618 7
  24947716.554     5799909.406 5   4519415.909 4
  21645400.398   -12995834.977 8 -10126599.341 9
 91  5  6 21 17  0.0020000  0  5 19 16  6 11  2
  22657562.996     9373102.804 6   7303707.088 5
  25417124.994     3001144.433 4   2338554.460 2
  22739005.518   -10481013.803 7  -8167001.061 7
  24966069.550     5896293.865 5   4594520.627 2
  21644735.458   -12999304.551 8 -10129302.847 9
 91  5  6 21 17 30.0020000  0  5 19 16  6 11  2
  22670255.909     9439809.137 6   7355685.982 5
  25430601.859     3071975.055 4   2393747.270 3
  22730754.627   -10524389.287 7  -8200800.037 7
  24984476.808     5993051.746 5   4669916.326 3
  21644127.483   -13002515.790 8 -10131805.063 9
 91  5  6 21 18  0.0020000  0  5 19 16  6 11  2
  22682998.285     9506783.367 6   7407873.614 6
  25444122.497     3143033.903 4   2449117.978 3
  22722513.029   -10567687.308 7  -8234538.651 6
  25002958.412     6090180.264 5   4745600.833 3
  21643565.970   -13005469.303 8 -10134106.452 9
 91  5  6 21 18 30.0020000  0  5 19 16  6 11  2
  22695799.128     9574024.528 6   7460269.261 5
  25457683.314     3214316.815 4   2504663.257 2
  22714289.422   -10610907.503 7  -8268216.630 7
  25021503.875     6187675.762 5   4821571.303 2
  21643051.529   -13008166.058 8 -10136207.780 9
 91  5  6 21 19  0.0020000  0  4 19  6 11  2
  22708642.532     9641538.814 6   7512877.729 6
  22706080.508   -10654042.861 7  -8301828.495 7
  25040134.172     6285541.369 5   4897830.179 4
  21642588.950   -13010601.149 8 -10138105.208 9
 91  5  6 21 19 30.0020000  0  4 19  6 11  2
  22721545.598     9709327.745 6   7565700.204 7
  22697888.381   -10697090.959 7  -8335372.356 8
  25058828.032     6383775.589 5   4974376.251 3
  21642175.834   -13012773.823 9 -10139798.164 9
 91  5  6 21 20  0.0020000  0  4 19  6 11  2
  22734495.439     9777391.479 6   7618736.796 7
  22689716.034   -10740050.502 7  -8368847.218 7
  25077588.151     6482375.647 5   5051207.403 3
  21641810.984   -13014684.599 8 -10141287.032 9
 91  5  6 21 20 30.0020000  0  4 19  6 11  2
  22747501.933     9845733.462 6   7671990.211 6
  22681558.380   -10782917.158 7  -8402249.709 7
  25096425.006     6581342.204 5   5128324.176 3
  21641496.505   -13016330.593 8 -10142569.582 9
 91  5  6 21 21  0.0020000  0  4 19  6 11  2
  22760557.592     9914359.480 6   7725464.959 6
  22673417.217   -10825684.087 7  -8435574.486 8
  25115329.621     6680677.922 5   5205728.594 3
  21641235.380   -13017707.012 8 -10143642.061 9
 91  5  6 21 21 30.0020000  0  4 19  6 11  2
  22773671.117     9983270.669 6   7779161.902 6
  22665297.046   -10868349.154 7  -8468819.891 8
  25134301.384     6780381.113 5   5283419.344 3
  21641023.430   -13018813.317 8 -10144504.069 9
 91  5  6 21 22  0.0020000  0  4 19  6 11  2
  22786845.194    10052465.757 6   7833080.068 6
  22657201.148   -10910912.205 7  -8501985.809 7
  25153338.804     6880447.803 5   5361393.363 3
  21640862.146   -13019651.104 8 -10145156.836 9
 91  5  6 21 22 30.0020000  0  4 19  6 11  2
  22800069.039    10121942.608 6   7887217.794 6
  22649119.943   -10953374.494 7  -8535073.211 8
  25172450.274     6980872.577 5   5439646.382 3
  21640756.913   -13020223.741 8 -10145602.996 9
 91  5  6 21 23  0.0020000  0  4 19  6 11  2
  22813337.259    10191693.865 6   7941569.356 6
  22641057.018   -10995741.802 7  -8568086.600 8
  25191623.805     7081645.566 5   5518170.780 3
  21640700.854   -13020539.010 8 -10145848.607 9
 91  5  6 21 23 30.0020000  0  4 19  6 11  2
  22826661.827    10261717.465 6   7996133.105 7
  22633014.187   -11038015.539 7  -8601027.073 7
  25210872.879     7182761.475 5   5596962.368 3
  21640686.466   -13020599.519 8 -10145895.756 9
 91  5  6 21 24  0.0020000  0  4 19  6 11  2
  22840045.768    10332020.156 6   8050914.334 6
  22624985.751   -11080187.397 7  -8633888.161 8
  25230177.714     7284224.356 5   5676024.298 4
  21640725.136   -13020399.418 8 -10145739.733 9
 91  5  6 21 24 30.0020000  0  4 19  6 11  2
  22853472.271    10402600.310 6   8105911.773 6
  22616982.192   -11122258.117 7  -8666670.445 7
  25249548.503     7386029.851 5   5755353.175 4
  21640810.275   -13019940.586 8 -10145382.151 9
 91  5  6 21 25  0.0020000  0  4 19  6 11  2
  22866955.732    10473459.208 6   8161126.413 6
  22608996.920   -11164224.988 7  -8699371.810 7
  25268988.543     7488176.170 5   5834947.673 4
  21640947.582   -13019222.607 8 -10144822.644 9
 91  5  6 21 25 30.0020000  0  4 19  6 11  2
  22880487.765    10544592.368 6   8216554.788 5
  22601026.934   -11206091.377 7  -8731994.876 8
  25288488.245     7590655.943 5   5914801.991 2
  21641134.056   -13018250.962 8 -10144065.464 9
 91  5  6 21 26  0.0020000  0  4 19  6 11  2
  22894075.560    10615999.979 6   8272196.982 6
  22593080.035   -11247856.321 7  -8764538.902 8
  25308053.900     7693466.271 5   5994913.901 4
  21641363.098   -13017026.039 9 -10143110.935 9
 91  5  6 21 26 30.0020000  0  4 19  6 11  2
  22907724.510    10687679.329 6   8328050.958 6
  22585152.925   -11289521.015 7  -8797004.812 7
  25327673.817     7796601.590 5   6075279.039 1
  21641645.504   -13015551.126 9 -10141961.607 9
 91  5  6 21 27  0.0020000  0  4 19  6 11  2
  22921409.442    10759629.860 6   8384116.229 7
  22577240.499   -11331084.578 7  -8829391.916 8
  25347366.283     7900058.470 5   6155894.785 3
  21641972.277   -13013827.610 8 -10140618.564 9
 91  5  6 21 27 30.0020000  0  4 19  6 11  2
  22935157.622    10831849.292 6   8440391.032 6
  22569354.161   -11372548.024 7  -8861701.010 8
  25367109.713     8003831.804 5   6236757.101 2
  21642344.917   -13011858.178 9 -10139083.919 9
 91  5  6 21 28  0.0020000  0  4 19  6 11  2
  22948953.467    10904344.007 6   8496880.334 6
  22561482.812   -11413903.684 7  -8893926.112 7
  25386916.102     8107924.939 5   6317868.596 3
  21642771.217   -13009637.143 9 -10137353.208 9
 91  5  6 21 28 30.0020000  0  4 19  6 11  2
  22962794.291    10977113.674 6   8553583.896 6
  22553633.347   -11455150.357 7  -8926066.286 8
  25406789.649     8212334.890 5   6399226.976 3
  21643242.199   -13007164.990 9 -10135426.824 9
 91  5  6 21 29  0.0020000  0  4 19  6 11  2
  22976694.462    11050159.609 6   8610502.736 6
  22545805.764   -11496285.655 7  -8958119.683 8
  25426722.248     8317059.831 5   6480830.794 2
  21643759.938   -13004441.759 9 -10133304.792 9
 91  5  6 21 29 30.0020000  0  4 19  6 11  2
  22990649.803    11123474.814 6   8667631.388 6
  22537997.367   -11537315.288 7  -8990090.736 8
  25446709.413     8422090.010 5   6562672.448 2
  21644325.648   -13001474.706 9 -10130992.767 9
 91  5  6 21 30  0.0020000  0  4 19  6 11  2
  23004658.506    11197060.113 6   8724970.497 6
  22530211.455   -11578236.981 7  -9021977.675 8
  25466751.433     8527423.197 5   6644750.211 3
  21644937.226   -12998263.842 9 -10128490.758 9
 91  5  6 21 30 30.0020000  0  4 19  6 11  2
  23018706.184    11270924.071 6   8782526.755 5
  22522449.528   -11619040.588 7  -9053772.607 9
  25486849.521     8633065.570 5   6727068.896 3
  21645594.069   -12994800.792 9 -10125792.232 9
 91  5  6 21 31  0.0020000  0  4 19  6 11  2
  23032813.813    11345062.850 6   8840297.141 6
  22514705.890   -11659728.732 7  -9085477.563 8
  25507012.959     8739010.294 5   6809623.180 2
  21646298.282   -12991090.000 9 -10122900.676 9
 91  5  6 21 31 30.0020000  0  4 19  6 11  2
  23046978.111    11419472.474 6   8898278.575 6
  22506981.743   -11700303.766 7  -9117094.369 9
  25527232.762     8845250.607 5   6892407.812 3
  21647049.863   -12987136.092 9 -10119819.672 9
 91  5  6 21 32  0.0020000  0  4 19  6 11  2
  23061186.471    11494154.479 6   8956472.248 6
  22499287.270   -11740762.474 7  -9148620.538 9
  25547509.828     8951785.347 5   6975421.868 3
  21647850.304   -12982937.915 8 -10116548.332 9
 91  5  6 21 32 30.0020000  0  4 19  6 11  2
  23075446.702    11569109.104 6   9014878.347 6
  22491602.691   -11781103.524 7  -9180055.029 8
  25567830.659     9058611.480 5   7058662.974 3
  21648696.020   -12978496.031 9 -10113087.093 9
 91  5  6 21 33  0.0020000  0  4 19  6 11  2
  23089759.091    11644335.175 6   9073495.982 6
  22483957.384   -11821326.467 7  -9211397.491 8
  25588217.748     9165724.908 5   7142127.945 2
  21649584.306   -12973812.016 9 -10109437.174 9
 91  5  6 21 33 30.0030000  0  4 19  6 11  2
  23104130.841    11719839.076 6   9132330.101 6
  22476320.466   -11861427.525 7  -9242644.980 9
  25608653.701     9273130.400 5   7225820.530 2
  21650526.255   -12968882.283 9 -10105595.784 9
 91  5  6 21 34  0.0030000  0  4 19  6 11  2
  23118554.161    11795611.730 6   9191373.636 6
  22468711.438   -11901406.260 7  -9273797.151 9
  25629148.712     9380814.168 5   7309729.894 3
  21651510.168   -12963711.769 9 -10101566.773 9
 91  5  6 21 34 30.0030000  0  4 19  6 11  2
  23133020.339    11871652.487 6   9250626.076 6
  22461127.582   -11941265.691 7  -9304856.355 9
  25649689.590     9488773.760 5   7393854.197 2
  21652539.661   -12958304.226 9 -10097353.063 9
 91  5  6 21 35  0.0030000  0  5 19  6 11 15  2
  23147547.384    11947967.247 6   9310092.026 6
  22453566.219   -11980998.414 7  -9335816.834 9
  25670290.130     9597012.271 5   7478195.885 3
  25110562.923      -91203.190 5    -71067.505 2
  21653612.613   -12952654.064 9 -10092950.310 9
 91  5  6 21 35 30.0030000  0  5 19  6 11 15  2
  23162118.499    12024552.970 6   9369769.125 6
  22446029.139   -12020605.899 7  -9366679.717 8
  25690929.340     9705523.571 5   7562750.133 3
  25103317.531     -129184.736 4   -100663.319 2
  21654732.342   -12946765.045 8 -10088361.417 9
 91  5  6 21 36  0.0030000  0  5 19  6 11 15  2
  23176744.172    12101407.328 6   9429655.553 6
  22438516.340   -12060089.121 7  -9397445.774 8
  25711640.498     9814302.290 5   7647512.711 2
  25096171.083     -166835.167 5   -130001.577 2
  21655901.532   -12940640.059 9 -10083588.680 9
 91  5  6 21 36 30.0030000  0  5 19  6 11 15  2
  23191419.011    12178532.790 6   9489753.222 6
  22431027.823   -12099443.580 7  -9428111.509 9
  25732391.232     9923348.518 5   7732483.759 3
  25089058.505     -204149.014 3   -159077.143 4
  21657110.597   -12934276.773 9 -10078630.238 9
 91  5  6 21 37  0.0030000  0  5 19  6 11 15  2
  23206148.417    12255929.249 6   9550062.058 6
  22423563.589   -12138667.884 7  -9458675.814 9
  25753187.843    10032659.484 5   7817661.112 2
  25082040.367     -241123.544 4   -187888.301 2
  21658367.021   -12927676.015 9 -10073486.756 9
 91  5  6 21 37 30.0030000  0  5 19  6 11 15  2
  23220930.880    12333591.233 6   9610577.788 6
  22416123.941   -12177765.467 7  -9489141.379 9
  25774035.409    10142227.421 5   7903038.725 2
  25075059.696     -277761.042 4   -216437.251 3
  21659668.127   -12920843.504 9 -10068162.688 9
 91  5  6 21 38  0.0030000  0  5 19  6 11 15  2
  23235757.423    12411520.703 6   9671301.954 5
  22408705.575   -12216733.054 7  -9519505.651 9
  25794941.136    10252051.031 5   7988615.563 2
  25068145.885     -314056.741 4   -244719.519 2
  21661010.293   -12913777.488 9 -10062656.671 9
 91  5  6 21 38 30.0030000  0  5 19  6 11 15  2
  23250638.820    12489715.260 6   9732232.667 6
  22401316.289   -12255571.469 7  -9549769.269 9
  25815877.140    10362124.885 5   8074387.433 1
  25061309.413     -350010.977 5   -272735.579 3
  21662399.836   -12906481.183 9 -10056971.214 9
 91  5  6 21 39  0.0030000  0  5 19  6 11 15  2
  23265574.776    12568181.249 6   9793374.878 5
  22393953.684   -12294272.393 7  -9579925.753 8
  25836874.306    10472452.739 5   8160357.160 2
  25054528.712     -385614.007 5   -300478.042 2
  21663832.543   -12898948.395 9 -10051101.479 9
 91  5  6 21 39 30.0030000  0  5 19  6 11 15  2
  23280552.411    12646920.417 6   9854729.971 5
  22386615.370   -12332832.717 7  -9609972.670 9
  25857919.138    10583033.772 4   8246524.144 3
  25047825.952     -420861.457 5   -327943.432 3
  21665314.415   -12891178.271 9 -10045046.814 9
 91  5  6 21 40  0.0030000  0  5 19  6 11 15  2
  23295589.700    12725933.312 6   9916298.358 5
  22379305.526   -12371249.892 7  -9639908.051 9
  25879011.932    10693865.568 4   8332886.553 2
  25041184.949     -455749.653 4   -355128.928 3
  21666834.661   -12883170.529 9 -10038806.989 9
 91  5  6 21 40 30.0030000  0  5 19  6 11 15  2
  23310681.547    12805220.028 5   9978080.119 5
  22372021.169   -12409522.137 7  -9669730.496 9
  25900150.000    10804945.663 5   8419442.449 2
  25034606.906     -490275.586 5   -382032.049 2
  21668403.776   -12874925.224 9 -10032382.047 9
 91  5  6 21 41  0.0030000  0  5 19  6 11 15  2
  23325816.269    12884778.711 5  10040073.783 5
  22364763.797   -12447649.293 7  -9699439.870 9
  25921337.531    10916269.748 5   8506188.486 3
  25028115.792     -524437.902 4   -408651.920 2
  21670018.462   -12866444.729 9 -10025773.848 9
 91  5  6 21 41 30.0030000  0  5 19  6 11 15  2
  23341007.355    12964609.706 6  10102279.657 6
  22357538.500   -12485629.530 7  -9729034.775 9
  25942567.038    11027835.199 5   8593122.561 2
  25021684.645     -558233.885 4   -434986.269 4
  21671677.506   -12857729.253 9 -10018982.537 9
 91  5  6 21 42  0.0030000  0  5 19  6 11 15  2
  23356253.602    13044713.470 6  10164698.061 6
  22350338.985   -12523460.699 7  -9758513.516 9
  25963840.311    11139639.663 5   8680242.930 3
  25015328.752     -591660.364 4   -461032.760 2
  21673379.435   -12848779.182 9 -10012008.432 9
 91  5  6 21 42 30.0030000  0  4 19  6 15  2
  23371544.818    13125081.823 6  10227322.632 6
  22343168.542   -12561148.708 7  -9787880.702 9
  25009026.510     -624722.013 4   -486794.901 2
  21675127.519   -12839602.467 9 -10004857.703 9
 91  5  6 21 43  0.0030000  0  4 19  6 15  2
  23386888.794    13205721.171 6  10290158.380 6
  22336019.991   -12598685.438 7  -9817130.019 9
  25002810.018     -657409.915 4   -512265.877 2
  21676916.987   -12830193.055 9  -9997525.658 9
 91  5  6 21 43 30.0030000  0  4 19  6 15  2
  23402287.931    13286631.300 5  10353205.126 5
  22328909.219   -12636069.233 7  -9846260.151 9
  24996664.270     -689721.276 5   -537443.478 2
  21678753.814   -12820551.411 8  -9990012.661 9
 91  5  6 21 44  0.0030000  0  4 19  6 15  2
  23417733.241    13367807.273 5  10416459.018 5
  22321825.722   -12673303.170 8  -9875273.509 9
  24990587.476     -721658.310 5   -562329.348 2
  21680628.116   -12810682.405 8  -9982322.490 9
 91  5  6 21 44 30.0030000  0  4 19  6 15  2
  23433230.413    13449251.500 5  10479921.928 5
  22314769.805   -12710383.188 8  -9904166.946 8
  24984576.041     -753215.985 5   -586919.643 2
  21682552.482   -12800584.826 8  -9974454.227 9
 91  5  6 21 45  0.0030000  0  4 19  6 15  2
  23448778.845    13530961.461 6  10543591.893 6
  22307740.875   -12747310.041 8  -9932941.033 9
  24978638.648     -784394.313 4   -611214.328 3
  21684515.518   -12790261.535 9  -9966410.066 9
 91  5  6 21 45 30.0030000  0  4 19  6 15  2
  23464382.149    13612939.789 6  10607470.991 5
  22300745.519   -12784078.572 8  -9961591.753 8
  24972778.909     -815186.694 4   -635208.272 1
  21686524.727   -12779709.189 9  -9958187.429 9
 91  5  6 21 46  0.0030000  0  4 19  6 15  2
  23480027.717    13695186.361 5  10671559.108 4
  22293778.336   -12820687.471 8  -9990118.091 9
  24966996.806     -845591.343 4   -658900.109 4
  21688573.217   -12768929.434 9  -9949787.593 9
 91  5  6 21 46 30.0030000  0  4 19  6 15  2
  23495736.543    13777702.708 5  10735857.424 4
  22286844.440   -12857132.847 8 -10018517.015 9
  24961290.261     -875603.819 5   -682286.293 2
  21690667.863   -12757920.384 9  -9941209.089 9
 91  5  6 21 47  0.0030000  0  4 19  6 15  2
  23511493.636    13860488.581 5  10800365.774 5
  22279937.818   -12893413.044 7 -10046787.221 9
  24955656.860     -905220.685 5   -705364.250 3
  21692809.580   -12746682.533 9  -9932452.300 9
 91  5  6 21 47 30.0030000  0  4 19  6 15  2
  23527294.790    13943548.572 5  10865087.716 6
  22273066.280   -12929521.597 7 -10074923.687 9
  24950101.705     -934435.168 5   -728128.604 2
  21694990.273   -12735211.741 9  -9923513.983 9
 91  5  6 21 48  0.0030000  0  4 19  6 15  2
  23543158.007    14026880.191 5  10930021.312 5
  22266226.815   -12965458.397 7 -10102926.330 9
  24944606.510     -963246.280 5   -750578.727 4
  21697218.928   -12723510.232 9  -9914395.907 9
 91  5  6 21 48 30.0030000  0  4 19  6 15  2
  23559060.800    14110481.340 5  10995164.925 5
  22259422.120   -13001224.003 7 -10130795.573 9
  24939209.044     -991654.024 5   -772714.443 3
  21699488.957   -12711580.794 9  -9905100.220 9
 91  5  6 21 49  0.0030000  0  4 19  6 15  2
  23575021.450    14194353.502 5  11060519.720 5
  22252648.016   -13036814.779 7 -10158528.586 9
  24933876.633    -1019654.572 5   -794532.904 3
  21701803.056   -12699421.973 9  -9895625.796 9
 91  5  6 21 49 30.0030000  0  4 19  6 15  2
  23591034.564    14278497.513 5  11126086.356 5
  22245911.979   -13072227.985 7 -10186123.240 9
  24928624.274    -1047243.786 5   -816030.840 2
  21704160.022   -12687033.309 9  -9885972.273 9
 91  5  6 21 50  0.0030000  0  4 19  6 15  2
  23607093.546    14362912.896 5  11191864.441 4
  22239205.022   -13107462.126 7 -10213578.358 9
  24923457.648    -1074419.069 5   -837206.237 3
  21706558.965   -12674415.736 9  -9876140.377 9
 91  5  6 21 50 30.0030000  0  4 19  6 15  2
  23623210.689    14447599.306 5  11257853.716 3
  22232536.134   -13142514.745 7 -10240892.035 9
  24918356.985    -1101177.978 4   -858057.187 2
  21709004.072   -12661569.132 9  -9866130.016 9
 91  5  6 21 51  0.0030000  0  4 19  6 15  2
  23639374.599    14532557.883 5  11324055.054 4
  22225900.226   -13177383.336 7 -10268062.300 9
  24913353.144    -1127517.018 5   -878580.938 3
  21711492.944   -12648493.235 9  -9855940.980 9
 91  5  6 21 51 30.0030000  0  4 19  6 15  2
  23655598.171    14617781.914 5  11390463.235 5
  22219302.395   -13212072.345 8 -10295092.647 9
  24908413.763    -1153440.116 5   -898780.648 3
  21714021.699   -12635194.767 9  -9845578.525 9
 91  5  6 21 52  0.0030000  0  4 19  6 15  2
  23671864.609    14703274.771 5  11457080.905 5
  22212732.745   -13246576.117 7 -10321978.650 9
  24903561.626    -1178940.990 5   -918651.313 3
  21716596.313   -12621670.226 9  -9835039.904 9
 91  5  6 21 52 30.0030000  0  4 19  6 15  2
  23688184.707    14789029.333 5  11523902.496 5
  22206201.164   -13280899.771 8 -10348724.303 9
  24898791.923    -1204024.002 5   -938196.385 3
  21719213.505   -12607927.492 9  -9824331.267 9
 91  5  6 21 53  0.0030000  0  4 19  6 15  2
  23704556.973    14875045.342 5  11590927.796 5
  22199706.463   -13315041.092 8 -10375327.875 9
  24894094.778    -1228686.565 5   -957413.810 5
  21721870.562   -12593966.550 9  -9813452.583 9
 91  5  6 21 53 30.0030000  0  4 19  6 15  2
  23720970.613    14961322.132 5  11658156.315 5
  22193245.633   -13348998.355 7 -10401788.020 9
  24889474.972    -1252926.526 5   -976301.988 3
  21724566.298   -12579787.854 9  -9802404.239 9
 91  5  6 21 54  0.0030000  0  4 19  6 15  2
  23737435.513    15047857.354 5  11725586.200 4
  22186818.387   -13382771.822 8 -10428104.944 9
  24884950.811    -1276743.059 5   -994860.239 2
  21727306.096   -12565394.209 9  -9791188.389 9
 91  5  6 21 54 30.0030000  0  4 19  6 15  2
  23753955.276    15134650.776 5  11793217.294 5
  22180424.112   -13416359.593 8 -10454277.178 9
  24880506.686    -1300133.866 5  -1013086.693 3
  21730088.769   -12550786.059 8  -9779805.391 9
 91  5  6 21 55  0.0030000  0  4 19  6 15  2
  23770519.712    15221703.525 5  11861050.453 5
  22174067.609   -13449758.220 7 -10480302.028 9
  24876136.305    -1323095.757 5  -1030979.006 3
  21732905.626   -12535962.014 8  -9768254.164 9
 91  5  6 21 55 30.0030000  0  4 19  6 15  2
  23787130.313    15309019.586 5  11929088.787 4
  22167752.488   -13482961.448 7 -10506174.603 9
  24871847.774    -1345621.660 5  -1048531.572 1
  21735768.640   -12520918.243 8  -9756531.714 9
 91  5  6 21 56  0.0030000  0  4 19  6 15  2
  23803799.677    15396595.147 5  11997329.337 5
  22161467.932   -13515971.184 8 -10531896.405 9
  24867643.485    -1367712.685 5  -1065745.231 2
  21738675.131   -12505659.355 9  -9744641.653 9
 91  5  6 21 56 30.0030000  0  4 19  6 15  2
  23820520.894    15484428.181 5  12065770.491 4
  22155225.657   -13548787.016 8 -10557467.113 9
  24863524.937    -1389368.344 5  -1082619.682 4
  21741619.393   -12490187.251 9  -9732585.441 9
 91  5  6 21 57  0.0030000  0  5 19  6 13 15  2
  23837277.797    15572520.054 5  12134413.355 4
  22149018.153   -13581404.972 8 -10582883.641 9
  24221948.390     -238577.488 5   -185904.923 1
  24859485.534    -1410584.311 5  -1099151.472 2
  21744603.825   -12474500.137 9  -9720361.700 9
 91  5  6 21 57 30.0030000  0  5 19  6 13 15  2
  23854089.258    15660869.160 5  12203256.661 4
  22142850.225   -13613824.427 8 -10608145.481 9
  24202824.034     -339026.651 5   -264177.005 1
  24855527.676    -1431359.163 5  -1115339.555 2
  21747628.733   -12458599.308 9  -9707971.423 9
 91  5  6 21 58  0.0030000  0  5 19  6 13 15  2
  23870955.880    15749468.553 5  12272294.997 5
  22136716.770   -13646049.880 8 -10633256.162 9
  24183758.728     -439265.372 5   -342285.128 1
  24851658.858    -1451697.336 5  -1131187.393 3
  21750693.209   -12442492.388 9  -9695420.559 9
 91  5  6 21 58 30.0030000  0  5 19  6 13 15  2
  23887862.977    15838319.460 5  12341529.283 4
  22130621.688   -13678077.613 8 -10658212.762 9
  24164712.016     -539288.704 5   -420225.424 2
  24847878.173    -1471594.799 5  -1146691.790 2
  21753798.458   -12426178.115 8  -9682708.122 9
 91  5  6 21 59  0.0030000  0  5 19  6 13 15  2
  23904816.841    15927419.527 5  12410957.780 4
  22124564.979   -13709907.602 8 -10683015.290 9
  24145724.661     -639095.258 5   -497996.799 2
  24844167.340    -1491051.720 5  -1161852.902 4
  21756940.884   -12409658.386 8  -9669835.590 9
 91  5  6 21 59 30.0030000  0  5 19  6 13 15  2
  23921821.371    16016771.289 5  12480582.357 4
  22118546.652   -13741534.811 8 -10707659.801 9
  24126774.484     -738678.774 5   -575594.409 2
  24840550.347    -1510062.465 5  -1176666.368 3
  21760123.176   -12392930.563 8  -9656800.910 9
 91  5  6 22  0  0.0030000  0  5 19  6 13 15  2
  23938868.768    16106366.014 5  12550396.271 4
  22112561.891   -13772965.735 8 -10732151.367 9
  24107869.869     -838044.535 5   -653022.333 3
  24837013.990    -1528633.349 5  -1191137.037 2
  21763346.249   -12376003.767 8  -9643611.178 9
 91  5  6 22  0 30.0030000  0  5 19  6 13 15  2
  23955964.432    16196208.869 5  12620403.512 4
  22106622.404   -13804192.965 8 -10756484.213 9
  24089001.533     -937184.283 5   -730274.161 2
  24833565.783    -1546756.592 5  -1205258.953 2
  21766603.794   -12358872.601 8  -9630262.205 9
 91  5  6 22  1  0.0030000  0  5 19  6 13 15  2
  23973108.058    16286301.627 5  12690605.523 4
  22100720.086   -13835212.228 8 -10780655.005 9
  24070176.064    -1036092.949 5   -807345.917 2
  24830204.505    -1564427.567 5  -1219028.409 4
  21769905.105   -12341535.416 8  -9616752.696 9
 91  5  6 22  1 30.0030000  0  5 19  6 13 15  2
  23990297.867    16376646.572 5  12761004.008 3
  22094854.352   -13866018.816 8 -10804660.079 9
  24051396.462    -1134764.734 5   -884233.087 3
  24826933.470    -1581641.291 5  -1232441.621 3
  21773242.398   -12323990.197 8  -9603081.090 9
 91  5  6 22  2  0.0030000  0  5 19  6 13 15  2
  24007533.831    16467242.653 5  12831598.195 3
  22089036.580   -13896611.079 8 -10828498.152 9
  24032666.629    -1233196.194 5   -960933.002 1
  24823744.583    -1598396.166 5  -1245497.292 2
  21776621.362   -12306237.603 8  -9589247.885 9
 91  5  6 22  2 30.0030000  0  5 19  6 13 15  2
  24024826.455    16558093.186 5  12902390.654 4
  22083255.384   -13926983.364 8 -10852164.819 9
  24013992.558    -1331381.007 5  -1037440.713 2
  24820643.225    -1614686.687 5  -1258191.121 2
  21780043.193   -12288274.029 8  -9575250.277 9
 91  5  6 22  3  0.0030000  0  5 19  6 13 15  2
  24042163.456    16649195.096 5  12973378.981 2
  22077519.149   -13957136.166 8 -10875660.460 9
  23995348.762    -1429318.588 5  -1113755.782 3
  24817633.612    -1630513.163 5  -1270523.384 3
  21783496.495   -12270102.342 8  -9561090.512 9
 91  5  6 22  3 30.0030000  0  5 19  6 13 15  2
  24059546.621    16740543.279 5  13044559.214 5
  22071820.396   -13987071.900 8 -10898986.957 9
  23976762.535    -1527010.623 5  -1189879.466 4
  24814711.835    -1645877.901 5  -1282495.839 3
  21786995.674   -12251727.856 9  -9546772.723 9
 91  5  6 22  4  0.0030000  0  5 19  6 13 15  2
  24076975.061    16832139.767 5  13115932.921 5
  22066165.714   -14016785.753 8 -10922140.556 9
  23958218.573    -1624450.762 5  -1265806.862 3
  24811870.696    -1660776.000 5  -1294104.698 2
  21790529.334   -12233147.731 9  -9532294.683 9
 91  5  6 22  4 30.0030000  0  5 19  6 13 15  2
  24094453.557    16923981.567 5  13187497.796 5
  22060556.595   -14046278.765 8 -10945122.083 9
  23939724.370    -1721639.314 5  -1341538.247 2
  24809133.594    -1675208.210 5  -1305350.518 2
  21794104.055   -12214365.558 9  -9517659.216 9
 91  5  6 22  5  0.0030000  0  5 19  6 13 15  2
  24111973.427    17016069.717 5  13259254.626 4
  22054981.651   -14075547.034 8 -10967928.480 9
  23921276.349    -1818571.427 5  -1417069.773 2
  24806468.143    -1689170.819 5  -1316230.415 2
  21797715.953   -12195379.860 9  -9502865.151 9
 91  5  6 22  5 30.0030000  0  5 19  6 13 15  2
  24129553.859    17108409.184 5  13331207.280 4
  22049460.080   -14104583.349 8 -10990554.133 9
  23902876.883    -1915238.921 5  -1492395.104 2
  24803900.719    -1702656.795 5  -1326738.933 3
  21801371.023   -12176185.882 9  -9487908.797 9
 91  5  6 22  6  0.0030000  0  5 19  6 13 15  2
  24147176.554    17200993.585 5  13403350.793 3
  22043979.272   -14133391.354 8 -11013001.873 9
  23884536.477    -2011644.188 5  -1567516.090 3
  24801428.625    -1715669.746 5  -1336878.853 3
  21805058.176   -12156789.792 9  -9472794.951 9
 91  5  6 22  6 30.0030000  0  5 19  6 13 15  2
  24164834.334    17293822.252 5  13475684.633 5
  22038541.033   -14161969.101 8 -11035270.207 9
  23866237.751    -2107784.492 5  -1642430.636 4
  24799042.281    -1728208.228 5  -1346648.998 1
  21808789.687   -12137192.326 9  -9457524.181 9
 91  5  6 22  7  0.0030000  0  5 19  6 13 15  2
  24182548.172    17386894.983 5  13548208.681 4
  22033142.974   -14190314.048 7 -11057357.115 9
  23847993.278    -2203656.182 5  -1717135.869 3
  24796743.774    -1740269.792 5  -1356047.569 3
  21812557.180   -12117392.908 9  -9442096.053 9
 91  5  6 22  7 30.0030000  0  5 19  6 13 15  2
  24200307.573    17480211.358 5  13620922.553 4
  22027797.074   -14218423.697 7 -11079260.692 9
  23829804.270    -2299256.095 5  -1791629.301 3
  24794540.893    -1751851.663 5  -1365072.332 1
  21816363.343   -12097391.595 9  -9426510.594 9
 91  5  6 22  8  0.0030000  0  5 19  6 13 15  2
  24218104.160    17573769.919 5  13693825.154 4
  22022493.743   -14246297.253 7 -11100980.281 9
  23811664.132    -2394582.537 5  -1865909.693 4
  24792426.459    -1762952.802 5  -1373722.427 3
  21820208.481   -12077190.018 9  -9410769.087 9
 91  5  6 22  8 30.0030000  0  5 19  6 13 15  2
  24235963.393    17667566.549 5  13766913.277 5
  22017232.084   -14273936.187 7 -11122517.063 9
  23793573.151    -2489635.768 5  -1939977.127 2
  24790411.255    -1773575.257 5  -1381999.606 2
  21824088.694   -12056792.229 8  -9394874.685 9
 91  5  6 22  9  0.0030000  0  5 19  6 13 15  2
  24253858.007    17761606.317 5  13840190.820 4
  22012016.598   -14301332.238 7 -11143864.578 9
  23775536.737    -2584406.450 6  -2013824.462 3
  24788478.792    -1783711.132 5  -1389897.559 2
  21828009.383   -12036191.910 9  -9378822.460 9
 91  5  6 22  9 30.0030000  0  5 19  6 13 15  2
  24271794.588    17855888.987 5  13913657.632 4
  22006850.278   -14328483.701 8 -11165021.505 9
  23757563.580    -2678891.985 5  -2087449.576 2
  24786644.661    -1793358.549 5  -1397414.938 4
  21831967.843   -12015389.806 9  -9362613.019 9
 91  5  6 22 10  0.0030000  0  5 19  6 13 15  2
  24289783.032    17950414.201 5  13987313.454 3
  22001733.115   -14355387.719 8 -11185985.612 9
  23739632.992    -2773089.189 5  -2160850.089 2
  24784890.574    -1802514.976 5  -1404549.724 2
  21835966.176   -11994386.327 9  -9346246.657 9
 91  5  6 22 10 30.0030000  0  5 19  6 13 15  2
  24307819.446    18045181.820 5  14061158.138 3
  21996659.132   -14382041.826 8 -11206754.990 9
  23721760.270    -2866993.976 5  -2234022.690 4
  24783246.815    -1811178.374 5  -1411300.308 3
  21840001.382   -11973180.485 9  -9329722.609 9
 91  5  6 22 11  0.0030000  0  5 19  6 13 15  2
  24325897.828    18140192.052 5  14135191.878 3
  21991636.410   -14408443.467 8 -11227327.648 9
  23703947.498    -2960603.541 5  -2306965.269 2
  24781697.489    -1819346.592 5  -1417665.080 1
  21844074.062   -11951772.829 9  -9313041.298 9
 91  5  6 22 11 30.0030000  0  5 19  6 13 15  2
  24344017.584    18235439.766 5  14209410.670 3
  21986659.556   -14434594.788 8 -11247705.242 9
  23686188.097    -3053918.882 6  -2379678.625 2
  24780232.098    -1827021.989 5  -1423645.819 2
  21848184.513   -11930167.620 9  -9296206.060 9
 91  5  6 22 12  0.0030000  0  5 19  6 13 15  2
  24362191.908    18330919.205 5  14283810.063 3
  21981728.569   -14460498.854 8 -11267890.181 9
  23668489.545    -3146942.441 6  -2452164.599 2
  24778872.247    -1834207.948 5  -1429245.168 3
  21852333.948   -11908370.726 9  -9279221.457 9
 91  5  6 22 12 30.0030000  0  5 19  6 13 15  2
  24380403.400    18426631.418 5  14358390.832 3
  21976846.146   -14486151.588 8 -11287879.274 9
  23650843.458    -3239668.940 6  -2524419.127 2
  24777584.935    -1840900.955 5  -1434460.447 2
  21856519.645   -11886380.039 8  -9262085.855 9
 91  5  6 22 13  0.0030000  0  5 19  6 13 15  2
  24398660.760    18522573.816 5  14433150.948 4
  21972011.694   -14511552.774 8 -11307672.356 9
  23633255.235    -3332097.460 6  -2596441.441 2
  24776411.251    -1847101.147 5  -1439291.694 2
  21860738.322   -11864197.784 9  -9244800.979 9
 91  5  6 22 13 30.0030000  0  5 19  6 13 15  2
  24416967.286    18618746.375 5  14508090.400 5
  21967229.707   -14536699.807 8 -11327267.394 9
  23615725.776    -3424224.584 6  -2668228.991 2
  24775323.902    -1852806.450 5  -1443737.274 4
  21864997.178   -11841823.812 9  -9227366.703 9
 91  5  6 22 14  0.0030000  0  5 19  6 13 15  2
  24435305.589    18715136.939 5  14583199.752 4
  21962491.781   -14561601.528 8 -11346671.287 9
  23598247.271    -3516058.109 6  -2739787.689 2
  24774330.688    -1858025.977 5  -1447804.393 3
  21869289.609   -11819269.484 8  -9209791.894 9
 91  5  6 22 14 30.0030000  0  5 19  6 13 15  2
  24453691.261    18811755.296 5  14658486.593 4
  21957802.733   -14586245.738 8 -11365874.527 9
  23580834.728    -3607585.110 6  -2811107.576 2
  24773436.111    -1862747.787 5  -1451483.650 2
  21873614.113   -11796525.055 8  -9192068.968 9
 91  5  6 22 15  0.0030000  0  5 19  6 13 15  2
  24472126.403    18908612.672 5  14733959.678 3
  21953161.943   -14610618.680 8 -11384866.388 9
  23563475.243    -3698791.445 6  -2882177.586 2
  24772636.560    -1866959.048 5  -1454765.064 2
  21877982.392   -11773579.366 9  -9174189.204 9
 91  5  6 22 15 30.0030000  0  5 19  6 13 15  2
  24490600.809    19005700.816 5  14809612.609 4
  21948576.314   -14634725.767 8 -11403651.083 9
  23546181.414    -3789681.636 6  -2953001.291 3
  24771925.751    -1870665.229 5  -1457652.960 2
  21882387.542   -11750439.955 9  -9156158.495 9
 91  5  6 22 16  0.0030000  0  5 19  6 13 15  2
  24509110.892    19103018.282 5  14885444.182 3
  21944041.055   -14658565.076 8 -11422227.126 9
  23528946.646    -3880253.068 6  -3023576.595 2
  24771323.771    -1873864.908 5  -1460146.172 4
  21886825.970   -11727107.305 9  -9137977.207 9
 91  5  6 22 16 30.0030000  0  5 19  6 13 15  2
  24527668.946    19200567.739 4  14961456.560 4
  21939556.165   -14682131.062 8 -11440590.195 9
  23511770.038    -3970498.867 6  -3093898.161 4
  24770805.430    -1876553.379 5  -1462240.997 3
  21891304.865   -11703578.537 9  -9119643.100 9
 91  5  6 22 17  0.0030000  0  5 19  6 13 15  2
  24546291.757    19298346.132 4  15037647.314 2
  21935122.527   -14705424.453 8 -11458740.846 9
  23494657.884    -4060419.595 6  -3163966.430 4
  24770396.510    -1878732.062 5  -1463938.623 2
  21895817.343   -11679856.560 9  -9101158.432 9
 91  5  6 22 17 30.0030000  0  5 19  6 13 15  2
  24564934.052    19396358.361 4  15114020.264 3
  21930740.167   -14728437.117 8 -11476672.741 9
  23477610.487    -4150006.351 6  -3233774.453 3
  24770084.430    -1880393.643 5  -1465233.344 3
  21900370.890   -11655936.021 8  -9082519.047 9
 91  5  6 22 18  0.0030000  0  5 19  6 13 15  2
  24583634.202    19494601.697 4  15190573.764 3
  21926418.656   -14751169.138 8 -11494385.963 9
  23460630.247    -4239257.983 6  -3303321.357 2
  24769861.085    -1881538.490 5  -1466125.382 2
  21904958.613   -11631819.089 8  -9063726.612 9
 91  5  6 22 18 30.0030000  0  5 19  6 13 15  2
  24602370.632    19593074.604 5  15267305.660 4
  21922143.614   -14773618.586 8 -11511878.997 9
  23443703.065    -4328172.275 6  -3372605.410 2
  24769737.869    -1882165.647 5  -1466614.004 2
  21909585.006   -11607506.143 8  -9044781.453 9
 91  5  6 22 19  0.0030000  0  5 19  6 13 15  2
  24621150.233    19691776.366 4  15344216.375 5
  21917926.132   -14795783.474 8 -11529150.296 9
  23426851.730    -4416746.392 6  -3441624.379 3
  24769718.682    -1882273.772 5  -1466698.296 3
  21914249.484   -11582998.036 8  -9025684.204 9
 91  5  6 22 19 30.0030000  0  5 19  6 13 15  2
  24639981.697    19790703.969 4  15421303.101 2
  21913765.014   -14817664.137 8 -11546200.117 9
  23410060.650    -4504980.100 6  -3510378.092 2
  24769797.828    -1881863.563 5  -1466378.534 2
  21918951.428   -11558297.399 8  -9006436.939 9
 91  5  6 22 20  0.0030000  0  5 19  6 13 15  2
  24658847.031    19889854.183 4  15498562.771 2
  21909652.766   -14839260.690 8 -11563028.555 9
  23393335.829    -4592872.835 6  -3578866.132 2
  24769979.197    -1880936.128 5  -1465655.795 4
  21923686.047   -11533406.549 8  -8987041.455 9
 91  5  6 22 20 30.0030000  0  5 19  6 13 15  2
  24677751.044    19989231.392 4  15575999.780 3
  21905598.967   -14860565.711 8 -11579629.825 9
  23376672.468    -4680416.405 6  -3647082.058 4
  24770257.406    -1879484.831 5  -1464524.884 1
  21928461.439   -11508320.541 8  -8967493.912 9
 91  5  6 22 21  0.0030000  0  5 19  6 13 15  2
  24696715.016    20088837.580 4  15653615.229 3
  21901600.642   -14881574.625 8 -11596000.354 9
  23360083.454    -4767605.611 6  -3715021.884 2
  24770635.744    -1877505.677 5  -1462982.607 3
  21933272.508   -11483037.455 8  -8947792.783 9
 91  5  6 22 21 30.0030000  0  5 19  6 13 15  2
  24715718.862    20188673.659 4  15731409.830 3
  21897660.766   -14902283.039 8 -11612136.738 9
  23343557.391    -4854435.300 6  -3782681.553 3
  24771108.523    -1874995.049 5  -1461026.220 3
  21938120.754   -11457555.138 8  -8927936.414 9
 91  5  6 22 22  0.0030000  0  5 19  6 13 15  2
  24734751.491    20288740.200 4  15809383.528 3
  21893779.951   -14922687.572 8 -11628036.315 9
  23327105.378    -4940901.938 6  -3850058.350 4
  24771685.017    -1871950.595 5  -1458653.903 1
  21943007.068   -11431872.787 8  -8907924.185 9
 91  5  6 22 22 30.0030000  0  5 19  6 13 15  2
  24753834.473    20389034.361 4  15887535.064 2
  21889953.398   -14942788.237 8 -11643699.125 9
  23310720.225    -5027004.322 6  -3917151.306 4
  24772364.947    -1868373.127 5  -1455866.124 1
  21947932.366   -11405992.402 8  -8887757.625 9
 91  5  6 22 23  0.0030000  0  5 19  6 13 15  2
  24772966.936    20489552.931 4  15965861.433 3
  21886185.608   -14962585.013 8 -11659125.142 9
  23294402.221    -5112741.920 6  -3983960.009 2
  24773148.008    -1864263.706 5  -1452663.944 4
  21952892.424   -11379916.455 8  -8867438.701 9
 91  5  6 22 23 30.0030000  0  5 19  6 13 15  2
  24792133.566    20590290.893 4  16044358.798 3
  21882474.479   -14982080.204 8 -11674316.150 9
  23278159.463    -5198116.632 6  -4050485.932 2
  24774028.197    -1859625.724 5  -1449049.947 4
  21957893.866   -11353649.651 9  -8846971.057 9
 91  5  6 22 24  0.0030000  0  5 19  6 13 15  2
  24811345.767    20691244.893 4  16123024.470 3
  21878821.511   -15001273.841 8 -11689272.187 9
  23261977.570    -5283127.805 6  -4116728.617 4
  24775007.617    -1854459.878 5  -1445024.506 1
  21962925.881   -11327194.378 9  -8826356.556 9
 91  5  6 22 24 30.0030000  0  5 19  6 13 15  2
  24830605.633    20792415.592 4  16201858.553 5
  21875229.689   -15020162.252 8 -11703990.385 9
  23245873.620    -5367771.359 6  -4182684.794 4
  24776094.067    -1848763.350 5  -1440585.647 2
  21967999.270   -11300549.664 9  -8805594.425 9
 91  5  6 22 25  0.0030000  0  5 19  6 13 15  2
  24849885.279    20893800.192 4  16280859.754 4
  21871693.045   -15038745.261 8 -11718470.611 9
  23229836.215    -5452046.289 6  -4248353.757 4
  24777282.741    -1842537.003 5  -1435733.944 2
  21973104.139   -11273717.281 9  -8784686.072 9
 91  5  6 22 25 30.0030000  0  5 19  6 13 15  2
  24869223.995    20995398.472 4  16360027.481 3
  21868214.850   -15057020.678 8 -11732711.157 9
  23213868.969    -5535949.847 6  -4313733.337 3
  24778570.951    -1835779.760 5  -1430468.527 1
  21978245.279   -11246697.337 9  -8763631.565 9
 91  5  6 22 26  0.0030000  0  5 19  6 13 15  2
  24888602.575    21097212.003 4  16439362.438 4
  21864796.614   -15074983.342 8 -11746708.007 9
  23197974.875    -5619476.568 6  -4378819.298 2
  24779955.696    -1828487.307 5  -1424786.012 2
  21983424.189   -11219487.347 9  -8742428.970 9
 91  5  6 22 26 30.0030000  0  5 19  6 13 15  2
  24908025.836    21199237.930 4  16518863.383 3
  21861444.637   -15092632.758 8 -11760460.756 9
  23182151.829    -5702625.532 6  -4443610.899 4
  24781446.564    -1820660.643 5  -1418687.338 3
  21988637.581   -11192089.345 9  -8721079.871 9
 91  5  6 22 27  0.0030000  0  5 19  6 13 15  2
  24927473.066    21301476.326 4  16598529.899 4
  21858139.129   -15109965.912 8 -11773967.077 9
  23166404.028    -5785393.221 6  -4508105.416 3
  24783035.764    -1812297.423 5  -1412170.541 2
  21993885.446   -11164502.095 9  -8699583.318 9
 91  5  6 22 27 30.0030000  0  5 19  6 13 15  2
  24946972.768    21403923.041 4  16678358.708 2
  21854899.270   -15126983.906 8 -11787227.816 9
  23150725.784    -5867780.067 6  -4572303.189 4
  24784732.283    -1803399.670 5  -1405237.147 1
  21999170.193   -11136729.334 9  -8677942.208 9
 91  5  6 22 28  0.0030000  0  5 19  6 13 15  2
  24966503.348    21506579.850 4  16758350.754 3
  21851722.065   -15143681.790 8 -11800239.121 9
  23135118.588    -5949780.735 6  -4636200.035 4
  24786526.244    -1793964.157 5  -1397884.755 2
  22004492.710   -11108768.803 9  -8656154.784 9
 91  5  6 22 28 30.0030000  0  5 19  6 13 15  2
  24986070.208    21609447.275 4  16838506.937 3
  21848607.227   -15160056.456 8 -11812998.568 9
  23119591.437    -6031391.627 6  -4699793.158 4
  24788419.732    -1783988.604 5  -1390111.558 4
  22009850.598   -11080619.216 9  -8634220.039 9
 91  5  6 22 29  0.0030000  0  5 19  6 13 15  2
  25005696.119    21712521.768 4  16918824.947 2
  21845551.441   -15176107.959 8 -11825506.190 9
  23104136.241    -6112612.216 6  -4763081.683 4
  24790425.346    -1773474.369 5  -1381918.607 4
  22015239.967   -11052283.252 9  -8612140.065 9
 91  5  6 22 29 30.0030000  0  5 19  6 13 15  2
  25025343.319    21815799.486 4  16999301.292 2
  21842562.812   -15191837.051 8 -11837762.581 9
  23088750.891    -6193442.944 6  -4826066.891 4
  24792523.892    -1762422.892 5  -1373307.023 3
  22020668.608   -11023763.888 9  -8589917.168 9
 91  5  6 22 30  0.0040000  0  5 19  6 13 15  2
  25045036.381    21919283.461 4  17079938.381 4
  21839627.540   -15207241.345 8 -11849765.882 9
  23073441.390    -6273883.451 6  -4888747.570 4
  24794728.268    -1750832.852 5  -1364275.803 2
  22026129.325   -10995059.850 9  -8567550.372 9
 91  5  6 22 30 30.0040000  0  5 19  6 13 15  2
  25064773.214    22022966.226 4  17160730.387 3
  21836759.728   -15222317.525 8 -11861513.514 9
  23058211.634    -6353924.812 6  -4951117.695 5
  24797043.859    -1738703.616 5  -1354824.363 4
  22031626.920   -10966173.165 9  -8545041.258 9
 91  5  6 22 31  0.0040000  0  5 19  6 13 15  2
  25084531.939    22126846.273 4  17241676.123 2
  21833952.468   -15237067.928 8 -11873007.288 9
  23043056.827    -6433571.549 6  -5013179.826 4
  24799453.595    -1726037.827 5  -1344954.888 4
  22037160.489   -10937106.604 9  -8522391.980 9
 91  5  6 22 31 30.0040000  0  5 19  6 13 15  2
  25104341.330    22230922.775 4  17322774.910 3
  21831208.168   -15251490.154 8 -11884245.348 9
  23027970.372    -6512820.809 6  -5074932.258 3
  24801960.458    -1712834.642 5  -1334666.716 2
  22042723.138   -10907860.261 9  -8499602.612 9
 91  5  6 22 32  0.0040000  0  4  6 13 15  2
  21828526.829   -15265577.446 7 -11895222.412 9
  23012972.355    -6591665.323 6  -5136369.777 5
  24804585.442    -1699088.618 5  -1323955.476 2
  22048325.662   -10878429.180 9  -8476669.289 9
 91  5  6 22 32 30.0040000  0  4  6 13 15  2
  21825912.638   -15279330.193 7 -11905938.805 9
  22998041.486    -6670105.685 6  -5197491.887 5
  24807297.668    -1684801.472 5  -1312822.566 3
  22053958.461   -10848816.210 9  -8453594.241 9
 91  5  6 22 33  0.0040000  0  4  6 13 15  2
  21823358.406   -15292741.860 8 -11916389.410 9
  22983196.062    -6748134.602 6  -5258293.390 5
  24810117.510    -1669968.168 5  -1301264.178 2
  22059630.532   -10819017.861 9  -8430374.729 9
 91  5  6 22 33 30.0040000  0  4  6 13 15  2
  21820870.729   -15305808.870 7 -11926571.460 9
  22968427.690    -6825748.147 6  -5318771.729 4
  24813045.884    -1654585.780 5  -1289277.844 2
  22065337.085   -10789032.442 9  -8407009.459 9
 91  5  6 22 34  0.0040000  0  4  6 13 15  2
  21818449.598   -15318531.604 8 -11936485.237 9
  22953734.258    -6902946.488 6  -5378926.023 4
  24816082.780    -1638656.796 5  -1276865.607 1
  22071075.109   -10758862.494 9  -8383500.396 9
 91  5  6 22 34 30.0040000  0  4  6 13 15  2
  21816098.330   -15330902.386 8 -11946124.783 9
  22939126.576    -6979721.275 6  -5438750.307 5
  24819218.314    -1622174.795 5  -1264022.476 3
  22076851.515   -10728502.624 9  -8359843.355 9
 91  5  6 22 35  0.0040000  0  4  6 13 15  2
  21813807.614   -15342922.794 8 -11955491.304 9
  22924597.132    -7056074.242 6  -5498245.886 4
  24822455.469    -1605142.848 5  -1250750.792 2
  22082667.490   -10697956.482 9  -8336041.148 9
 91  5  6 22 35 30.0040000  0  4  6 13 15  2
  21811590.049   -15354591.519 8 -11964583.785 9
  22910144.739    -7132003.415 6  -5557411.229 5
  24825799.960    -1587560.618 5  -1237050.328 2
  22088514.342   -10667225.053 9  -8312094.583 9
 91  5  6 22 36  0.0040000  0  4  6 13 15  2
  21809433.943   -15365907.494 8 -11973401.402 9
  22895777.181    -7207507.311 6  -5616245.207 4
  24829252.965    -1569428.904 5  -1222921.665 4
  22094397.770   -10636309.191 9  -8288004.303 9
 91  5  6 22 36 30.0040000  0  4  6 13 15  2
  21807347.386   -15376866.239 7 -11981940.660 9
  22881491.176    -7282581.451 6  -5674744.301 5
  24832809.102    -1550745.355 5  -1208363.059 3
  22100316.273   -10605207.345 9  -8263769.114 9
 91  5  6 22 37  0.0040000  0  4  6 13 15  2
  21805332.182   -15387466.825 8 -11990200.836 9
  22867286.411    -7357223.918 6  -5732907.022 4
  24836470.768    -1531509.414 5  -1193373.971 2
  22106270.445   -10573920.197 9  -8239389.518 9
 91  5  6 22 37 30.0040000  0  4  6 13 15  2
  21803380.533   -15397712.747 8 -11998184.652 9
  22853168.880    -7431438.676 7  -5790736.468 5
  24840226.570    -1511726.959 5  -1177959.026 4
  22112259.098   -10542453.759 9  -8214870.228 9
 91  5  6 22 38  0.0040000  0  4  6 13 15  2
  21801499.338   -15407601.141 8 -12005889.868 9
  22839120.905    -7505222.339 7  -5848229.994 4
  24844102.882    -1491396.427 5  -1162117.062 4
  22118279.833   -10510807.467 9  -8190210.787 9
 91  5  6 22 38 30.0040000  0  4  6 13 15  2
  21799690.989   -15417126.674 8 -12013312.334 9
  22825171.864    -7578569.530 7  -5905383.422 5
  24848077.833    -1470514.077 5  -1145845.066 3
  22124339.238   -10478978.109 9  -8165408.710 9
 91  5  6 22 39  0.0040000  0  4  6 13 15  2
  21797946.195   -15426288.964 8 -12020451.770 9
  22811290.573    -7651479.343 7  -5962196.042 4
  24852156.507    -1449081.423 5  -1129144.227 3
  22130428.622   -10446967.556 9  -8140465.433 9
 91  5  6 22 39 30.0040000  0  4  6 13 15  2
  21796270.956   -15435081.778 8 -12027303.289 9
  22797501.917    -7723945.690 7  -6018663.098 4
  24856339.813    -1427093.565 5  -1112010.826 2
  22136556.982   -10414771.417 9  -8115377.549 9
 91  5  6 22 40  0.0040000  0  4  6 13 15  2
  21794667.665   -15443505.355 8 -12033867.091 9
  22783794.509    -7795968.358 7  -6074784.435 5
  24860628.945    -1404552.265 5  -1094446.196 2
  22142715.617   -10382392.510 9  -8090147.238 9
 91  5  6 22 40 30.0040000  0  4  6 13 15  2
  21793136.923   -15451558.453 8 -12040142.199 9
  22770177.337    -7867545.948 7  -6130558.951 5
  24865024.202    -1381458.370 5  -1076450.883 1
  22148912.329   -10349831.727 9  -8064775.217 9
 91  5  6 22 41  0.0040000  0  4  6 13 15  2
  21791672.440   -15459244.990 8 -12046131.682 9
  22756637.207    -7938682.327 7  -6185989.692 5
  24869519.892    -1357817.408 5  -1058029.317 2
  22155143.810   -10317094.888 9  -8039265.995 9
 91  5  6 22 41 30.0040000  0  4  6 13 15  2
  21790282.600   -15466560.861 8 -12051832.336 9
  22743183.726    -8009373.379 7  -6241073.401 5
  24874126.200    -1333626.720 5  -1039179.467 1
  22161408.578   -10284180.195 9  -8013618.188 9
 91  5  6 22 42  0.0040000  0  4  6 13 15  2
  21788960.816   -15473504.228 8 -12057242.720 9
  22729819.572    -8079616.769 7  -6295808.295 3
  24878832.044    -1308886.387 5  -1019901.291 1
  22167705.419   -10251087.611 9  -7987831.761 9
 91  5  6 22 42 30.0040000  0  4  6 13 15  2
  21787710.080   -15480064.522 8 -12062354.618 9
  22716542.365    -8149402.030 7  -6350186.213 4
  24883646.411    -1283587.699 5  -1000187.998 2
  22174038.234   -10217809.346 9  -7961900.647 9
 91  5  6 22 43  0.0040000  0  4  6 13 15  2
  21786534.598   -15486241.275 8 -12067167.641 9
  22703348.203    -8218728.002 7  -6404206.233 5
  24888570.505    -1257731.745 5   -980040.503 3
  22180402.826   -10184346.452 9  -7935825.667 9
 91  5  6 22 43 30.0040000  0  4  6 13 15  2
  21785438.559   -15492027.307 8 -12071676.217 9
  22690242.775    -8287587.604 7  -6457862.860 5
  24893593.227    -1231313.595 5   -959454.932 2
  22186806.995   -10150694.078 9  -7909603.039 9
 91  5  6 22 44  0.0040000  0  4  6 13 15  2
  21784407.871   -15497422.061 8 -12075879.897 9
  22677228.185    -8355980.288 7  -6511155.658 5
  24898728.966    -1204333.739 5   -938431.690 2
  22193248.036   -10116853.777 9  -7883233.971 9
 91  5  6 22 44 30.0040000  0  4  6 13 15  2
  21783456.624   -15502425.922 8 -12079778.994 9
  22664300.531    -8423906.439 7  -6564084.926 4
  24903965.444    -1176794.579 5   -916972.560 3
  22199721.151   -10082828.080 9  -7856720.439 9
 91  5  6 22 45  0.0040000  0  4  6 13 15  2
  21782578.538   -15507039.060 8 -12083373.625 9
  22651467.318    -8491365.792 7  -6616650.451 5
  24909310.743    -1148698.997 5   -895079.890 2
  22206230.248   -10048618.922 9  -7830063.951 9
 91  5  6 22 45 30.0040000  0  4  6 13 15  2
  21781781.089   -15511252.269 8 -12086656.629 9
  22638718.041    -8558349.107 7  -6668845.040 6
  24914765.166    -1120039.588 5   -872747.879 3
  22212776.217   -10014219.390 9  -7803259.123 9
 91  5  6 22 46  0.0040000  0  4  6 13 15  2
  21781051.391   -15515070.178 8 -12089631.607 9
  22626062.305    -8624861.165 7  -6720672.407 5
  24920327.816    -1090822.155 5   -849981.039 1
  22219358.457    -9979636.432 9  -7776311.360 9
 91  5  6 22 46 30.0040000  0  4  6 13 15  2
  21780400.542   -15518489.532 8 -12092296.016 9
  22613495.304    -8690898.636 7  -6772129.975 5
  24925991.798    -1061045.394 5   -826778.294 3
  22225975.178    -9944868.071 9  -7749219.132 9
 91  5  6 22 47  0.0040000  0  4  6 13 15  2
  21779826.141   -15521506.772 8 -12094647.096 9
  22601021.540    -8756457.680 7  -6823214.753 5
  24931768.196    -1030707.902 5   -803138.725 4
  22232628.475    -9909913.391 9  -7721981.715 9
 91  5  6 22 47 30.0040000  0  4  6 13 15  2
  21779330.887   -15524121.027 8 -12096684.150 9
  22588635.611    -8821537.553 7  -6873926.152 5
  24937648.928     -999810.620 5   -779062.904 2
  22239312.048    -9874773.080 9  -7694599.656 9
 91  5  6 22 48  0.0040000  0  4  6 13 15  2
  21778908.173   -15526334.701 8 -12098409.072 9
  22576339.629    -8886140.400 7  -6924265.827 5
  24943635.783     -968358.254 5   -754554.498 3
  22246034.892    -9839451.742 9  -7667076.531 9
 91  5  6 22 48 30.0040000  0  4  6 13 15  2
  21778562.815   -15528143.532 8 -12099818.531 9
  22564136.273    -8950262.377 7  -6974230.804 4
  24949724.269     -936348.513 5   -729611.830 4
  22252792.515    -9803947.195 9  -7639410.657 9
 91  5  6 22 49  0.0040000  0  4  6 13 15  2
  21778295.696   -15529540.228 8 -12100906.834 9
  22552029.757    -9013896.043 7  -7023815.285 6
  24955917.980     -903776.163 5   -704230.766 3
  22259583.713    -9768254.241 9  -7611597.964 9
 91  5  6 22 49 30.0040000  0  4  6 13 15  2
  21778111.326   -15530530.519 7 -12101678.464 9
  22540012.874    -9077047.266 7  -7073023.858 6
  24962222.612     -870648.619 5   -678417.021 2
  22266412.986    -9732380.533 9  -7583644.438 9
 91  5  6 22 50  0.0040000  0  4  6 13 15  2
  21777999.208   -15531107.204 7 -12102127.804 9
  22528088.032    -9139708.810 7  -7121850.831 5
  24968636.073     -836960.489 5   -652166.529 4
  22273273.435    -9696320.841 9  -7555545.981 9
 91  5  6 22 50 30.0040000  0  4  6 13 15  2
  21777971.026   -15531267.110 7 -12102252.414 9
  22516259.122    -9201877.172 7  -7170293.538 5
  24975158.956     -802711.146 5   -625478.733 4
  22280170.162    -9660073.412 9  -7527301.242 9
 91  5  6 22 51  0.0040000  0  4  6 13 15  2
  21778016.894   -15531009.951 7 -12102051.990 9
  22504521.041    -9263552.071 7  -7218351.718 5
  24981783.172     -767902.055 5   -598354.740 2
  22287102.261    -9623639.872 8  -7498911.469 9
 91  5  6 22 51 30.0040000  0  4  6 13 15  2
  21778146.706   -15530333.502 8 -12101524.860 9
  22492880.699    -9324731.875 7  -7266024.115 5
  24988510.214     -732533.508 5   -570794.822 2
  22294071.538    -9587020.590 8  -7470376.975 9
 91  5  6 22 52  0.0040000  0  4  6 13 15  2
  21778357.156   -15529237.168 8 -12100670.546 9
  22481330.601    -9385415.753 7  -7313310.065 5
  24995334.688     -696606.745 5   -542799.955 3
  22301076.788    -9550216.799 8  -7441698.702 9
 91  5  6 22 52 30.0040000  0  4  6 13 15  2
  21778643.156   -15527726.350 7 -12099493.257 9
  22469875.231    -9445609.046 7  -7360213.745 5
  25002276.385     -660129.320 5   -514376.007 3
  22308110.517    -9513235.303 8  -7412881.963 9
 91  5  6 22 53  0.0040000  0  4  6 13 15  2
  21779011.304   -15525793.425 8 -12097987.064 9
  22458514.598    -9505304.082 7  -7406729.174 5
  25009332.895     -623095.889 5   -485518.920 6
  22315182.925    -9476070.729 8  -7383922.560 9
 91  5  6 22 53 30.0040000  0  4  6 13 15  2
  21779458.893   -15523437.734 8 -12096151.431 9
  22447251.687    -9564500.405 7  -7452856.019 6
  25016489.247     -585507.916 5   -456229.422 4
  22322291.899    -9438724.165 8  -7354821.364 9
 91  5  6 22 54  0.0040000  0  4  6 13 15  2
  21779987.425   -15520657.285 7 -12093984.830 9
  22436082.020    -9623196.673 7  -7498593.190 5
  25023744.524     -547365.683 5   -426508.239 4
  22329432.659    -9401195.406 8  -7325578.192 9
 91  5  6 22 54 30.0040000  0  4  6 13 15  2
  21780596.010   -15517451.335 7 -12091486.671 9
  22425007.693    -9681391.616 7  -7543939.736 6
  25031107.129     -508670.206 5   -396355.963 4
  22336608.485    -9363485.525 8  -7296193.877 9
 91  5  6 22 55  0.0040000  0  4  6 13 15  2
  21781286.131   -15513824.399 8 -12088660.466 9
  22414028.688    -9739090.331 7  -7588899.595 5
  25038573.457     -469428.481 5   -365777.986 2
  22343818.200    -9325600.750 8  -7266673.285 9
 91  5  6 22 55 30.0040000  0  4  6 13 15  2
  21782060.197   -15509771.606 7 -12085502.431 9
  22403146.523    -9796287.593 7  -7633468.727 6
  25046148.012     -429637.710 5   -334772.192 1
  22351060.886    -9287537.920 8  -7237013.942 9
 91  5  6 22 56  0.0040000  0  4  6 13 15  2
  21782911.008   -15505288.205 8 -12082008.857 9
  22392355.492    -9852979.017 7  -7677643.682 6
  25053827.496     -389295.489 5   -303336.709 2
  22358339.547    -9249294.129 8  -7207213.596 9
 91  5  6 22 56 30.0040000  0  4  6 13 15  2
  21783846.654   -15500378.441 8 -12078183.055 9
  22381663.996    -9909169.160 7  -7721428.044 6
  25061604.709     -348408.285 5   -271476.590 3
  22365652.078    -9210875.540 8  -7177277.027 9
 91  5  6 22 57  0.0040000  0  4  6 13 15  2
  21784865.354   -15495036.078 7 -12074020.160 9
  22371066.636    -9964852.153 7  -7764817.226 6
  25069490.750     -306972.214 5   -239188.770 2
  22372995.496    -9172277.631 8  -7147200.739 9
 91  5  6 22 57 30.0040000  0  4  6 13 15  2
  21785962.292   -15489256.392 8 -12069516.503 9
  22360568.201   -10020023.105 7  -7807807.405 5
  25077480.821     -264984.652 5   -206471.170 2
  22380374.888    -9133497.341 8  -7116982.332 9
 91  5  6 22 58  0.0040000  0  4  6 13 15  2
  21787147.372   -15483038.205 8 -12064671.159 9
  22350164.800   -10074680.755 7  -7850397.621 5
  25085571.021     -222446.944 5   -173324.924 4
  22387788.159    -9094535.197 8  -7086622.234 9
 91  5  6 22 58 30.0040000  0  4  6 13 15  2
  21788413.996   -15476379.064 8 -12059482.209 9
  22339863.335   -10128823.314 7  -7892586.464 6
  25093778.137     -179359.011 5   -139749.922 2
  22395235.598    -9055390.690 8  -7056120.022 9
 91  5  6 22 59  0.0040000  0  4  6 13 15  2
  21789763.360   -15469276.202 7 -12053947.507 9
  22329661.998   -10182447.798 7  -7934371.616 6
  25102075.794     -135719.570 5   -105745.193 3
  22402721.715    -9016062.784 8  -7025474.900 9
 91  5  6 22 59 30.0040000  0  4  6 13 15  2
  21791200.263   -15461725.424 7 -12048063.780 9
  22319555.696   -10235550.607 7  -7975750.255 6
  25110482.873      -91527.387 5    -71309.678 1
  22410241.712    -8976549.051 8  -6994684.984 9
 91  5  6 23  0  0.0040000  0  4  6 13 15  2
  21792725.308   -15453729.275 7 -12041833.006 9
  22309547.124   -10288134.370 7  -8016724.457 6
  25119001.773      -46787.576 5    -36447.499 3
  22417795.283    -8936853.600 8  -6963753.470 9
 91  5  6 23  0 30.0040000  0  4  6 13 15  2
  21794328.302   -15445286.500 7 -12035254.210 9
  22299641.080   -10340197.933 7  -8057293.309 6
  25127623.507       -1501.109 5     -1159.352 2
  22425382.131    -8896976.563 8  -6932680.467 9
 91  5  6 23  1  0.0040000  0  4  6 13 15  2
  21796023.023   -15436390.953 7 -12028322.604 9
  22289835.166   -10391735.676 7  -8097452.438 6
  25136343.276       44336.049 5     34557.880 5
  22433007.650    -8856913.263 8  -6901462.331 9
 91  5  6 23  1 30.0040000  0  4  6 13 15  2
  21797801.096   -15427043.770 7 -12021039.071 9
  22280124.294   -10442748.307 7  -8137202.380 6
  25145168.261       90720.188 5     70701.422 2
  22440664.954    -8816666.723 8  -6870101.404 9
 91  5  6 23  2  0.0040000  0  4  6 13 15  2
  21799666.105   -15417242.699 7 -12013401.869 9
  22270517.443   -10493234.593 7  -8176542.181 6
  25154096.080      137651.376 5    107271.177 3
  22448358.824    -8776236.379 8  -6838597.262 9
 91  5  6 23  2 30.0040000  0  4  6 13 15  2
  21801615.652   -15406991.124 7 -12005413.620 9
  22261009.526   -10543197.980 7  -8215474.539 6
  25163130.625      185123.927 5    144262.758 3
  22456087.177    -8735626.787 8  -6806953.441 9
 91  5  6 23  3  0.0040000  0  4  6 13 15  2
  21803656.342   -15396285.172 7 -11997071.307 9
  22251598.737   -10592634.858 7  -8253996.625 6
  25172266.207      233138.956 5    181677.058 1
  22463850.002    -8694836.103 8  -6775168.512 9
 91  5  6 23  3 30.0040000  0  4  6 13 15  2
  21805777.372   -15385126.824 7 -11988376.484 9
  22242295.581   -10641547.207 7  -8292109.993 6
  25181516.000      281692.094 5    219510.699 3
  22471643.104    -8653867.759 8  -6743245.142 9
 91  5  6 23  4  0.0040000  0  4  6 13 15  2
  21807988.647   -15373515.204 7 -11979328.470 9
  22233082.957   -10689935.155 7  -8329814.729 6
  25190850.636      330782.101 5    257762.622 3
  22479475.782    -8612722.127 8  -6711183.634 9
 91  5  6 23  4 30.0040000  0  4  6 13 15  2
  21810283.551   -15361445.521 7 -11969923.515 9
  22223976.465   -10737794.003 7  -8367107.195 6
  25200291.998      380411.451 5    296434.818 3
  22487338.440    -8571396.059 8  -6678981.529 9
 91  5  6 23  5  0.0040000  0  4  6 13 15  2
  21812668.402   -15348911.168 7 -11960156.476 9
  22214974.595   -10785117.025 7  -8403982.124 7
  25209842.790      430584.048 5    335530.351 4
  22495237.674    -8529884.651 8  -6646634.989 9
 91  5  6 23  5 30.0040000  0  4  6 13 15  2
  21815145.592   -15335912.561 7 -11950027.681 9
  22206070.753   -10831904.953 7  -8440440.104 7
  25219498.205      481296.870 5    375046.877 3
  22503171.677    -8488189.828 8  -6614145.534 9
 91  5  6 23  6  0.0040000  0  4  6 13 15  2
  21817703.122   -15322447.078 7 -11939535.091 9
  22197272.449   -10878155.569 8  -8476479.395 6
  25229249.552      532550.177 5    414984.516 4
  22511143.757    -8446310.177 8  -6581512.053 9
 91  5  6 23  6 30.0040000  0  4  6 13 15  2
  21820356.584   -15308515.072 7 -11928678.968 9
  22188570.069   -10923869.851 7  -8512100.763 7
  25239099.232      584341.384 5    455341.250 3
  22519145.519    -8404247.577 8  -6548736.025 9
 91  5  6 23  7  0.0040000  0  4  6 13 15  2
  21823099.087   -15294113.755 7 -11917457.138 9
  22179971.727   -10969045.295 7  -8547302.271 6
  25249065.836      636670.499 5    496117.223 3
  22527182.653    -8362000.672 8  -6515816.360 9
 91  5  6 23  7 30.0040000  0  4  6 13 15  2
  21825925.228   -15279241.669 7 -11905868.492 9
  22171478.008   -11013680.492 7  -8582082.803 6
  25259113.977      689536.503 5    537311.518 3
  22535260.865    -8319569.189 8  -6482752.885 9
 91  5  6 23  8  0.0040000  0  4  6 13 15  2
  21828846.403   -15263893.944 7 -11893909.208 9
  22163089.209   -11057771.096 7  -8616438.977 7
  25269277.246      742941.626 5    578925.865 2
  22543372.346    -8276949.952 8  -6449543.100 9
 91  5  6 23  8 30.0040000  0  4  6 13 15  2
  21831860.518   -15248067.227 7 -11881576.693 9
  22154802.947   -11101314.365 7  -8650368.655 6
  25279547.833      796886.896 5    620961.139 3
  22551515.612    -8234140.865 8  -6416185.382 9
 91  5  6 23  9  0.0040000  0  4  6 13 15  2
  21834960.672   -15231770.270 7 -11868877.744 9
  22146619.213   -11144319.330 8  -8683878.877 6
  25289922.450      851361.307 5    663408.777 3
  22559696.946    -8191152.217 8  -6382687.738 9
 91  5  6 23  9 30.0040000  0  4  6 13 15  2
  21838148.661   -15215000.725 7 -11855810.561 9
  22138537.407   -11186784.195 8  -8716968.243 6
  25300384.606      906363.746 5    706267.782 2
  22567910.964    -8147982.813 8  -6349049.250 9
 91  5  6 23 10  0.0040000  0  4  6 13 15  2
  21841431.989   -15197758.214 7 -11842374.824 9
  22130559.935   -11228708.940 7  -8749636.740 6
  25310945.399      961892.826 5    749537.164 3
  22576160.049    -8104633.094 8  -6315270.255 9
 91  5  6 23 10 30.0040000  0  4  6 13 15  2
  21844806.451   -15180039.075 7 -11828567.696 9
  22122684.687   -11270090.460 7  -8781881.949 6
  25321619.811     1017949.559 5    793217.716 2
  22584442.419    -8061101.414 8  -6281349.480 9
 91  5  6 23 11  0.0040000  0  4  6 13 15  2
  21848264.264   -15161843.657 7 -11814389.435 9
  22114913.468   -11310929.113 7  -8813704.146 6
  25332381.753     1074531.196 5    837307.287 2
  22592762.552    -8017389.385 8  -6247288.166 9
 91  5  6 23 11 30.0040000  0  4  6 13 15  2
  21851819.798   -15143172.429 7 -11799840.417 9
  22107243.574   -11351226.149 7  -8845104.306 6
  25343250.429     1131634.348 5    881803.275 2
  22601113.572    -7973498.756 8  -6213087.689 9
 91  5  6 23 12  0.0040000  0  4  6 13 15  2
  21855463.177   -15124021.068 7 -11784917.268 9
  22099681.609   -11390977.641 7  -8876079.357 6
  25354217.742     1189260.820 5    926706.936 5
  22609501.464    -7929426.020 8  -6178745.309 9
 91  5  6 23 12 30.0040000  0  4  6 13 15  2
  21859197.994   -15104390.067 7 -11769620.380 9
  22092221.876   -11430183.689 7  -8906629.387 6
  25365273.790     1247407.938 5    972016.370 2
  22617923.838    -7885172.710 8  -6144262.223 9
 91  5  6 23 13  0.0040000  0  4  6 13 15  2
  21863023.946   -15084277.718 7 -11753948.413 9
  22084863.469   -11468843.876 7  -8936754.075 7
  25376443.457     1306074.735 5   1017730.808 2
  22626378.582    -7840738.706 8  -6109638.334 9
 91  5  6 23 13 30.0040000  0  4  6 13 15  2
  21866946.127   -15063684.030 7 -11737901.385 9
  22077609.989   -11506958.676 7  -8966453.792 7
  25387704.257     1365258.465 5   1063847.970 3
  22634867.205    -7796125.420 8  -6074874.754 9
 91  5  6 23 14  0.0040000  0  4  6 13 15  2
  21870954.651   -15042608.487 7 -11721478.891 9
  22070460.835   -11544527.940 7  -8995728.422 7
  25399070.892     1424957.589 5   1110366.737 3
  22643392.108    -7751333.342 8  -6039971.841 9
 91  5  6 23 14 30.0040000  0  4  6 13 15  2
  21875059.413   -15021047.540 7 -11704678.155 9
  22063416.313   -11581548.863 7  -9024575.768 6
  25410526.559     1485172.362 5   1157287.326 3
  22651949.381    -7706359.769 8  -6004927.517 9
 91  5  6 23 15  0.0040000  0  4  6 13 15  2
  21879254.708   -14999000.583 7 -11687498.700 9
  22056474.320   -11618021.070 7  -9052995.544 7
  25422076.963     1545901.170 5   1204608.544 1
  22660540.838    -7661205.579 8  -5969742.440 9
 91  5  6 23 15 30.0040000  0  4  6 13 15  2
  21883544.137   -14976467.466 7 -11669940.437 9
  22049638.154   -11653944.657 7  -9080987.812 6
  25433733.193     1607141.474 5   1252328.266 2
  22669169.159    -7615871.516 8  -5934417.219 9
 91  5  6 23 16  0.0040000  0  4  6 13 15  2
  21887921.411   -14953447.552 7 -11652002.845 9
  22042908.111   -11689319.653 7  -9108552.623 7
  25445483.856     1668891.142 5   1300444.901 2
  22677831.064    -7570358.030 8  -5898952.173 9
 91  5  6 23 16 30.0040000  0  4  6 13 15  2
  21892395.210   -14929937.415 7 -11633683.266 9
  22036280.902   -11724143.164 7  -9135687.696 7
  25457333.758     1731151.315 5   1348959.324 3
  22686524.143    -7524663.067 8  -5863345.720 9
 91  5  6 23 17  0.0040000  0  4  6 13 15  2
  21896966.146   -14905938.537 7 -11614982.846 9
  22029757.714   -11758417.461 7  -9162394.816 7
  25469279.889     1793917.892 5   1397868.341 3
  22695255.900    -7478788.783 8  -5827599.526 9
 91  5  6 23 17 30.0040000  0  4  6 13 15  2
  21901624.918   -14881446.442 7 -11595898.111 9
  22023343.660   -11792138.637 8  -9188670.932 7
  25481310.557     1857192.314 5   1447173.071 3
  22704020.333    -7432731.553 8  -5791710.776 9
 91  5  6 23 18  0.0040000  0  4  6 13 15  2
  21906378.427   -14856462.420 7 -11576430.049 9
  22017030.930   -11825308.512 8  -9214517.474 7
  25493460.542     1920970.507 5   1496870.379 3
  22712816.848    -7386494.267 8  -5755681.731 9
 91  5  6 23 18 30.0040000  0  4  6 13 15  2
  21911227.572   -14830982.537 7 -11556575.606 9
  22010821.924   -11857923.214 7  -9239931.407 7
  25505687.281     1985254.283 5   1546961.644 2
  22721652.626    -7340073.451 8  -5719509.669 9
 91  5  6 23 19  0.0040000  0  4  6 13 15  2
  21916172.947   -14805000.932 7 -11536330.213 9
  22004723.850   -11889977.985 8  -9264909.045 8
  25518011.149     2050046.761 5   1597449.278 2
  22730521.385    -7293464.394 8  -5683190.924 8
 91  5  6 23 19 30.0040000  0  4  6 13 15  2
  21921208.861   -14778515.755 7 -11515692.424 9
  21998730.398   -11921470.908 8  -9289448.874 7
  25530445.642     2115347.222 5   1648332.726 2
  22739427.025    -7246665.811 8  -5646724.505 9
 91  5  6 23 20  0.0040000  0  4  6 13 15  2
  21926346.406   -14751528.779 7 -11494663.627 9
  21992843.672   -11952404.563 8  -9313552.910 7
  25542971.268     2181151.204 5   1699608.554 2
  22748367.435    -7199680.984 8  -5610112.957 9
 91  5  6 23 20 30.0040000  0  4  6 13 15  2
  21931576.289   -14724040.701 7 -11473244.348 9
  21987064.273   -11982780.603 8  -9337222.447 7
  25555584.434     2247455.130 5   1751273.970 3
  22757341.122    -7152511.308 8  -5573357.377 8
 91  5  6 23 21  0.0040000  0  4  6 13 15  2
  21936905.097   -14696047.693 7 -11451431.625 9
  21981389.802   -12012595.271 8  -9360454.536 8
  25568289.641     2314260.760 5   1803330.274 3
  22766354.683    -7105153.688 8  -5536455.345 9
 91  5  6 23 21 30.0040000  0  4  6 13 15  2
  21942327.446   -14667543.697 7 -11429220.723 9
  21975826.551   -12041843.020 8  -9383244.889 7
  25581101.870     2381571.317 5   1855780.051 3
  22775403.319    -7057603.099 8  -5499402.945 9
 91  5  6 23 22  0.0040000  0  4  6 13 15  2
  21947851.121   -14638533.593 7 -11406615.463 9
  21970365.531   -12070529.664 8  -9405598.016 7
  25593999.544     2449379.278 5   1908617.405 2
  22784487.327    -7009865.314 8  -5462204.678 9
 91  5  6 23 22 30.0040000  0  4  6 13 15  2
  21953467.430   -14609014.142 7 -11383613.302 9
  21965012.442   -12098652.243 8  -9427511.610 7
  25607005.139     2517685.340 5   1961842.931 1
  22793607.910    -6961937.515 8  -5424858.349 9
 91  5  6 23 23  0.0040000  0  4  6 13 15  2
  21959183.275   -14578982.348 7 -11360211.906 9
  21959768.171   -12126208.188 8  -9448983.680 8
  25620097.078     2586490.078 5   2015456.978 3
  22802764.772    -6913817.830 8  -5387362.499 9
 91  5  6 23 23 30.0040000  0  4  6 13 15  2
  21964995.349   -14548441.671 7 -11336413.977 9
  21954635.120   -12153202.076 8  -9470017.775 8
  25633284.949     2655786.677 5   2069454.327 3
  22811957.014    -6865510.537 8  -5349720.469 9
 91  5  6 23 24  0.0040000  0  4  6 13 15  2
  21970900.965   -14517388.650 7 -11312216.829 9
  21949601.308   -12179631.616 8  -9490612.122 7
  25646557.960     2725576.625 5   2123836.133 3
  22821186.121    -6817012.517 8  -5311929.823 8
 91  5  6 23 24 30.0040000  0  4  6 13 15  2
  21976908.203   -14485825.706 7 -11287622.323 9
  21944680.512   -12205499.127 8  -9510768.520 7
  25659942.791     2795854.581 5   2178598.141 3
  22830451.209    -6768327.213 8  -5273993.242 9
 91  5  6 23 25  0.0050000  0  4  6 13 15  2
  21983014.674   -14453746.068 7 -11262625.200 9
  21939864.648   -12230800.663 8  -9530483.903 8
  25673400.176     2866626.070 5   2233744.737 2
  22839752.571    -6719448.188 8  -5235905.699 8
 91  5  6 23 25 30.0050000  0  4  6 13 15  2
  21989216.185   -14421151.151 7 -11237226.558 9
  21935156.710   -12255533.908 7  -9549756.462 8
  25686965.486     2937884.287 5   2289270.623 3
  22849089.903    -6670378.630 8  -5197669.708 7
 91  5  6 23 26  0.0050000  0  4  6 13 15  2
  21995516.324   -14388041.734 7 -11211427.021 9
  21930558.787   -12279702.232 8  -9568588.830 8
  25700620.430     3009627.533 5   2345174.456 1
  22858462.616    -6621119.053 8  -5159285.653 8
 91  5  6 23 26 30.0050000  0  4  6 13 15  2
  22001913.591   -14354421.516 7 -11185229.447 9
  21926071.499   -12303310.290 8  -9586984.619 8
  25714356.020     3081848.937 5   2401450.841 2
  22867869.801    -6571674.316 8  -5120757.312 9
 91  5  6 23 27  0.0050000  0  4  6 13 15  2
  22008409.199   -14320283.720 7 -11158628.575 9
  21921682.533   -12326352.398 8  -9604939.417 9
  25728201.337     3154552.428 5   2458102.878 3
  22877317.759    -6522038.226 8  -5082079.879 8
 91  5  6 23 27 30.0050000  0  4  6 13 15  2
  22015007.624   -14285631.939 7 -11131627.192 9
  21917405.092   -12348831.807 8  -9622455.743 8
  25742118.906     3227732.410 5   2515126.212 2
  22886801.394    -6472214.734 8  -5043256.405 9
 91  5  6 23 28  0.0050000  0  4  6 13 15  2
  22021694.495   -14250465.903 7 -11104225.097 9
  21913234.682   -12370749.334 8  -9639534.235 8
  25756138.996     3301386.684 5   2572519.179 3
  22896317.408    -6422204.047 8  -5004287.073 9
 91  5  6 23 28 30.0050000  0  4  6 13 15  2
  22028485.396   -14214787.795 7 -11076423.986 9
  21909169.200   -12392107.609 8  -9656176.956 8
  25770249.626     3375510.252 5   2630277.750 2
  22905867.895    -6372008.909 8  -4965174.004 9
 91  5  6 23 29  0.0050000  0  4  6 13 15  2
  22035372.229   -14178595.977 7 -11048222.586 9
  21905210.740   -12412906.569 8  -9672383.849 8
  25784433.704     3450102.214 5   2688401.338 2
  22915457.662    -6321627.938 8  -4925916.134 7
 91  5  6 23 29 30.0050000  0  4  6 13 15  2
  22042356.495   -14141891.741 7 -11019621.870 9
  21901358.404   -12433147.269 8  -9688155.730 8
  25798728.713     3525158.396 5   2746886.641 2
  22925079.197    -6271063.273 8  -4886515.132 8
 91  5  6 23 30  0.0050000  0  4  6 13 15  2
  22049437.593   -14104673.186 7 -10990620.417 9
  21897614.896   -12452828.422 8  -9703491.599 8
  25813081.272     3600678.405 4   2805733.335 2
  22934736.409    -6220313.585 8  -4846969.938 8
 91  5  6 23 30 30.0050000  0  4  6 13 15  2
  22056622.415   -14066938.281 7 -10961216.612 9
  21893975.112   -12471949.438 8  -9718391.012 8
  25827554.352     3676661.169 5   2864940.664 4
  22944427.205    -6169377.169 8  -4807279.259 8
 91  5  6 23 31  0.0050000  0  4  6 13 15  2
  22063898.379   -14028685.932 7 -10931409.595 9
  21890445.064   -12490509.616 8  -9732853.394 8
  25842098.184     3753105.630 4   2924507.719 3
  22954157.568    -6118253.205 8  -4767442.433 8
 91  5  6 23 31 30.0050000  0  4  6 13 15  2
  22071278.975   -13989914.793 7 -10901198.332 9
  21887020.232   -12508507.736 8  -9746877.812 8
  25856738.855     3830010.361 4   2984433.430 3
  22963922.108    -6066941.058 8  -4727458.971 8
 91  5  6 23 32  0.0050000  0  4  6 13 15  2
  22078753.994   -13950624.121 7 -10870582.241 9
  21883700.634   -12525944.228 8  -9760464.610 8
  25871458.358     3907374.023 5   3044716.780 4
  22973721.121    -6015440.302 8  -4687328.529 7
 91  5  6 23 32 30.0050000  0  4  6 13 15  2
  22086330.355   -13910810.017 7 -10839558.284 9
  21880489.855   -12542815.792 7  -9773611.192 8
  25886263.010     3985197.832 5   3105358.664 3
  22983557.913    -5963747.445 8  -4647048.392 7
 91  5  6 23 33  0.0050000  0  4  6 13 15  2
  22094004.140   -13870472.529 7 -10808126.486 9
  21877383.402   -12559123.060 8  -9786318.076 8
  25901159.999     4063478.578 4   3166356.565 3
  22993431.578    -5911862.953 8  -4606618.926 8
 91  5  6 23 33 30.0050000  0  5 12  6 13 15  2
  26238879.804    -1434425.321 4  -1117734.209 1
  22101781.353   -13829612.900 7 -10776287.848 9
  21874391.178   -12574868.236 8  -9798586.959 8
  25916138.829     4142212.955 4   3227707.969 2
  23003341.216    -5859788.151 8  -4566041.183 7
 91  5  6 23 34  0.0050000  0  5 12  6 13 15  2
  26222899.662    -1518333.594 4  -1183117.514 2
  22109656.907   -13788229.845 7 -10744041.326 9
  21871503.874   -12590050.772 8  -9810417.425 8
  25931208.201     4221399.689 4   3289411.899 3
  23013288.634    -5807522.151 8  -4525314.443 7
 91  5  6 23 34 30.0050000  0  5 12  6 13 15  2
  26206955.800    -1602268.357 5  -1248521.021 2
  22117630.784   -13746322.955 7 -10711386.640 9
  21868719.098   -12604670.548 8  -9821809.368 9
  25946365.704     4301035.991 5   3351466.159 2
  23023269.618    -5755065.170 8  -4484438.891 8
 91  5  6 23 35  0.0050000  0  5 12  6 13 15  2
  26190968.774    -1686229.354 5  -1313945.445 3
  22125705.994   -13703893.548 7 -10678324.785 9
  21866044.050   -12618730.235 8  -9832764.894 8
  25961610.153     4381118.235 5   3413867.894 2
  23033289.585    -5702418.341 8  -4443415.407 8
 91  5  6 23 35 30.0050000  0  5 12  6 13 15  2
  26174998.823    -1770206.484 5  -1379381.929 2
  22133879.231   -13660932.527 7 -10644848.692 9
  21863478.126   -12632221.373 8  -9843277.385 8
  25976934.044     4461652.879 5   3476622.111 2
  23043342.228    -5649573.021 8  -4402237.250 8
 91  5  6 23 36  0.0050000  0  5 12  6 13 15  2
  26159011.492    -1854195.838 5  -1444828.440 1
  22142158.007   -13617437.615 7 -10610956.580 9
  21861016.834   -12645142.095 8  -9853345.401 9
  25992337.683     4542640.421 4   3539729.263 2
  23053436.839    -5596526.715 8  -4360902.481 7
 91  5  6 23 36 30.0050000  0  5 12  6 13 15  2
  26143024.458    -1938193.344 5  -1510280.805 3
  22150537.200   -13573405.801 7 -10576646.094 9
  21858668.261   -12657490.057 8  -9862967.115 9
  26007831.557     4624080.563 4   3603189.164 2
  23063571.925    -5543277.103 8  -4319409.294 8
 91  5  6 23 37  0.0050000  0  5 12  6 13 15  2
  26127037.127    -2022198.397 5  -1575739.545 2
  22159017.134   -13528837.884 7 -10541917.880 9
  21856425.812   -12669266.655 8  -9872143.596 8
  26023420.465     4705970.162 4   3666999.227 2
  23073742.680    -5489824.654 8  -4277758.062 8
 91  5  6 23 37 30.0050000  0  5 12  6 13 15  2
  26111051.000    -2106215.474 5  -1641207.181 2
  22167601.690   -13483739.920 7 -10506776.638 9
  21854291.590   -12680479.267 8  -9880880.623 9
  26039086.118     4788300.952 4   3731153.043 3
  23083953.012    -5436175.970 8  -4235953.914 7
 91  5  6 23 38  0.0050000  0  5 12  6 13 15  2
  26095063.066    -2190243.202 5  -1706683.101 2
  22176279.482   -13438111.978 7 -10471222.419 9
  21852268.891   -12691128.428 8  -9889178.597 8
  26054836.013     4871069.965 4   3795648.428 2
  23094199.919    -5382331.313 8  -4193997.065 7
 91  5  6 23 38 30.0050000  0  5 12  6 13 15  2
  26079065.239    -2274279.987 5  -1772166.556 3
  22185064.001   -13391953.886 7 -10435255.107 8
  21850347.221   -12701214.405 8  -9897037.715 8
  26070671.946     4954275.274 4   3860483.748 2
  23104481.902    -5328290.411 8  -4151887.286 7
 91  5  6 23 39  0.0050000  0  5 12  6 13 15  2
  26063080.901    -2358326.204 5  -1837656.944 4
  22193948.351   -13345267.432 7 -10398876.067 9
  21848535.871   -12710739.233 8  -9904459.577 9
  26086581.938     5037912.354 4   3925655.468 2
  23114803.453    -5274055.262 7  -4109626.161 8
 91  5  6 23 39 30.0050000  0  4 12  6 13  2
  26047090.577    -2442379.019 5  -1903152.897 2
  22202935.231   -13298051.403 7 -10362084.397 9
  21846828.254   -12719703.131 8  -9911444.361 9
  23125162.486    -5219624.968 8  -4067212.972 7
 91  5  6 23 40  0.0050000  0  4 12  6 13  2
  26031087.052    -2526432.302 5  -1968648.765 2
  22212019.239   -13250301.503 7 -10324876.702 9
  21845227.362   -12728103.068 8  -9917989.689 9
  23135557.188    -5164994.968 7  -4024644.157 7
 91  5  6 23 40 30.0050000  0  4 12  6 13  2
  26015088.029    -2610487.363 5  -2034146.019 3
  22221208.776   -13202020.216 7 -10287254.949 8
  21843740.394   -12735941.700 8  -9924097.635 9
  23145985.770    -5110167.669 7  -3981921.604 7
 91  5  6 23 41  0.0050000  0  4 12  6 13  2
  25999096.798    -2694541.674 5  -2099642.651 3
  22230500.546   -13153206.830 7 -10249218.565 8
  21842351.453   -12743219.073 8  -9929768.249 9
  23156458.117    -5055142.462 7  -3939044.838 7
 91  5  6 23 41 30.0050000  0  4 12  6 13  2
  25983102.269    -2778590.201 5  -2165134.846 3
  22239884.645   -13103858.137 7 -10210765.072 9
  21841075.842   -12749932.567 8  -9934999.468 8
  23166972.135    -4999916.066 7  -3896011.314 7
 91  5  6 23 42  0.0050000  0  4 12  6 13  2
  25967104.450    -2862630.360 5  -2230620.475 2
  22249382.074   -13053973.172 7 -10171893.708 8
  21839905.744   -12756082.474 8  -9939791.538 9
  23177515.836    -4944487.338 7  -3852820.122 7
 91  5  6 23 42 30.0050000  0  4 12  6 13  2
  25951116.220    -2946662.792 5  -2296100.108 3
  22258978.726   -13003554.414 7 -10132606.391 9
  21838842.982   -12761671.695 8  -9944146.713 9
  23188103.014    -4888858.692 7  -3809473.150 7
 91  5  6 23 43  0.0050000  0  4 12  6 13  2
  25935130.381    -3030683.161 5  -2361570.310 2
  22268674.913   -12952599.158 7 -10092901.028 9
  21837886.047   -12766698.414 8  -9948063.571 8
  23198729.455    -4833027.379 7  -3765968.245 7
 91  5  6 23 43 30.0050000  0  4 12  6 13  2
  25919146.052    -3114686.881 5  -2427027.574 4
  22278473.934   -12901104.597 7 -10052775.432 8
  21837037.338   -12771159.966 8  -9951540.041 9
  23209390.377    -4776990.695 7  -3722303.326 7
 91  5  6 23 44  0.0050000  0  4 12  6 13  2
  25903161.111    -3198675.090 5  -2492473.166 2
  22288370.982   -12849073.579 7 -10012231.822 9
  21836296.245   -12775060.414 8  -9954579.287 9
  23220094.166    -4720751.197 7  -3678480.372 7
 91  5  6 23 44 30.0050000  0  4 12  6 13  2
  25887181.580    -3282645.150 5  -2557904.206 3
  22298377.452   -12796505.406 7  -9971269.645 9
  21835658.291   -12778400.303 8  -9957181.738 8
  23230832.725    -4664307.968 7  -3634498.667 7
 91  5  6 23 45  0.0050000  0  4 12  6 13  2
  25871207.136    -3366597.952 5  -2623322.222 2
  22308480.160   -12743402.910 7  -9929891.113 9
  21835127.656   -12781182.977 8  -9959349.995 9
  23241612.963    -4607663.678 7  -3590360.292 6
 91  5  6 23 45 30.0050000  0  4 12  6 13  2
  25855239.890    -3450530.441 5  -2688723.928 1
  22318685.099   -12689765.048 7  -9888095.415 9
  21834708.249   -12783407.699 8  -9961083.479 9
  23252429.175    -4550816.957 7  -3546064.170 7
 91  5  6 23 46  0.0050000  0  4 12  6 13  2
  25839267.244    -3534443.032 5  -2754110.125 2
  22328996.459   -12635594.386 7  -9845884.533 9
  21834388.665   -12785078.120 8  -9962385.053 9
  23263283.167    -4493769.858 7  -3501611.932 7
 91  5  6 23 46 30.0050000  0  4 12  6 13  2
  25823301.498    -3618338.271 5  -2819483.257 2
  22339407.948   -12580895.658 7  -9803262.195 8
  21834174.019   -12786199.595 8  -9963258.867 8
  23274177.923    -4436527.160 7  -3457007.258 7
 91  5  6 23 47  0.0050000  0  4 12  6 13  2
  25807338.449    -3702209.124 5  -2884836.932 3
  22349916.277   -12525663.729 7  -9760224.373 9
  21834067.887   -12786767.683 8  -9963701.483 8
  23285111.357    -4379083.704 7  -3412246.161 7
 91  5  6 23 47 30.0050000  0  4 12  6 13  2
  25791386.795    -3786051.539 5  -2950168.881 4
  22360524.727   -12469896.615 7  -9716769.519 9
  21834063.097   -12786781.365 8  -9963712.079 8
  23296081.358    -4321436.772 7  -3367326.508 7
 91  5  6 23 48  0.0050000  0  4 12  6 13  2
  25775440.533    -3869863.931 5  -3015477.484 2
  22371242.311   -12413594.797 7  -9672898.014 9
  21834167.423   -12786241.467 8  -9963291.323 9
  23307090.333    -4263586.456 7  -3322248.368 7
 91  5  6 23 48 30.0050000  0  4 12  6 13  2
  25759490.380    -3953640.785 5  -3080757.918 5
  22382059.125   -12356754.664 7  -9628607.035 9
  21834376.372   -12785145.755 8  -9962437.470 9
  23318136.792    -4205529.340 7  -3277009.099 7
 91  5  6 23 49  0.0050000  0  4 12  6 13  2
  25743562.702    -4037378.441 5  -3146008.242 2
  22392979.366   -12299374.963 7  -9583895.632 9
  21834689.062   -12783493.168 8  -9961149.675 9
  23329223.116    -4147263.164 7  -3231606.928 7
 91  5  6 23 49 30.0050000  0  4 12  6 13  2
  25727630.531    -4121081.971 6  -3211231.584 2
  22403999.737   -12241462.896 7  -9538769.389 8
  21835105.773   -12781292.291 8  -9959434.651 9
  23340352.909    -4088795.308 7  -3186047.602 6
 91  5  6 23 50  0.0050000  0  4 12  6 13  2
  25711710.654    -4204749.549 6  -3276427.346 3
  22415118.737   -12183018.932 7  -9493228.680 8
  21835629.812   -12778543.694 8  -9957292.833 9
  23351515.979    -4030125.720 7  -3140331.059 7
 91  5  6 23 50 30.0050000  0  4 12  6 13  2
  25695798.865    -4288379.218 6  -3341593.110 5
  22426341.469   -12124043.535 7  -9447273.868 8
  21836256.371   -12775249.031 8  -9954725.507 9
  23362717.431    -3971254.364 7  -3094457.316 7
 91  5  6 23 51  0.0050000  0  4 12  6 13  2
  25679889.781    -4371965.756 6  -3406725.278 3
  22437666.425   -12064533.869 7  -9400902.745 8
  21836990.868   -12771406.211 8  -9951731.046 9
  23373959.044    -3912177.912 7  -3048423.767 7
 91  5  6 23 51 30.0050000  0  4 12  6 13  2
  25663990.887    -4455508.192 6  -3471823.089 2
  22449091.815   -12004491.213 7  -9354116.301 9
  21837825.791   -12767017.034 8  -9948310.856 9
  23385242.634    -3852897.280 7  -3002231.100 7
 91  5  6 23 52  0.0050000  0  4 12  6 13  2
  25648109.680    -4539004.632 5  -3536885.026 2
  22460619.438   -11943915.935 7  -9306914.844 9
  21838763.836   -12762082.643 8  -9944465.820 9
  23396559.502    -3793411.699 7  -2955878.744 8
 91  5  6 23 52 30.0050000  0  4 12  6 13  2
  25632222.783    -4622450.858 5  -3601907.848 2
  22472248.089   -11882806.153 7  -9259296.877 8
  21839807.412   -12756602.148 8  -9940195.249 9
  23407918.939    -3733719.289 7  -2909365.207 7
 91  5  6 23 53  0.0050000  0  4 12  6 13  2
  25616349.673    -4705846.376 5  -3666891.193 2
  22483980.167   -11821163.817 7  -9211263.942 8
  21840950.226   -12750578.027 8  -9935501.074 8
  23419316.741    -3673821.439 7  -2862691.606 7
 91  5  6 23 53 30.0050000  0  4 12  6 13  2
  25600491.552    -4789191.149 5  -3731835.436 3
  22495807.881   -11758991.663 7  -9162818.158 8
  21842199.461   -12744013.755 8  -9930386.010 9
  23430755.324    -3613720.436 7  -2815859.711 6
 91  5  6 23 54  0.0050000  0  4 12  6 13  2
  25584641.222    -4872480.914 5  -3796736.344 2
  22507741.413   -11696287.750 7  -9113958.018 8
  21843551.522   -12736908.299 8  -9924849.241 9
  23442230.186    -3553413.081 7  -2768867.016 7
 91  5  6 23 54 30.0050000  0  4 12  6 13  2
  25568800.491    -4955713.810 5  -3861592.909 2
  22519774.184   -11633052.602 7  -9064683.948 8
  21845008.815   -12729262.953 8  -9918891.781 9
  23453746.710    -3492900.049 7  -2721714.042 6
 91  5  6 23 55  0.0050000  0  4 12  6 13  2
  25552979.844    -5038890.872 5  -3926405.992 2
  22531906.483   -11569290.073 7  -9014998.926 8
  21846565.340   -12721082.392 8  -9912517.265 9
  23465298.911    -3432184.243 7  -2674403.075 7
 91  5  6 23 55 30.0050000  0  4 12  6 13  2
  25537160.689    -5122007.396 5  -3991171.872 4
  22544143.413   -11504998.052 7  -8964901.313 8
  21848222.291   -12712365.448 8  -9905724.790 9
  23476892.190    -3371262.863 7  -2626931.924 6
 91  5  6 23 56  0.0050000  0  4 12  6 13  2
  25521359.229    -5205062.949 5  -4055890.273 3
  22556476.573   -11440178.401 7  -8914392.550 8
  21849983.271   -12703114.191 8  -9898515.973 9
  23488524.732    -3310137.214 7  -2579301.597 7
 91  5  6 23 56 30.0050000  0  4 12  6 13  2
  25505561.067    -5288052.791 5  -4120557.421 3
  22568911.668   -11374829.217 7  -8863471.166 8
  21851848.882   -12693327.440 8  -9890889.883 9
  23500193.858    -3248804.687 7  -2531510.083 7
 91  5  6 23 57  0.0050000  0  4 12  6 13  2
  25489782.990    -5370974.754 5  -4185171.704 4
  22581451.089   -11308951.099 7  -8812137.613 8
  21853808.925   -12683006.726 8  -9882847.720 9
  23511904.647    -3187264.953 7  -2483557.098 6
 91  5  6 23 57 30.0050000  0  4 12  6 13  2
  25474019.005    -5453828.632 5  -4249733.414 2
  22594085.238   -11242546.906 7  -8760394.144 8
  21855874.796   -12672155.678 8  -9874392.315 9
  23523656.208    -3125519.887 7  -2435444.107 6
 91  5  6 23 58  0.0050000  0  4 12  6 13  2
  25458261.615    -5536613.035 6  -4314240.982 3
  22606822.222   -11175617.905 7  -8708241.757 8
  21858038.099   -12660776.784 8  -9865525.595 9
  23535444.651    -3063570.595 7  -2387171.978 6
 91  5  6 23 58 30.0050000  0  4 12  6 13  2
  25442526.701    -5619325.113 6  -4378691.728 3
  22619659.038   -11108163.986 7  -8655680.329 8
  21860302.431   -12648870.071 8  -9856247.599 9
  23547272.365    -3001415.725 7  -2338739.667 6
 91  5  6 23 59  0.0050000  0  4 12  6 13  2
  25426798.995    -5701959.815 6  -4443082.163 3
  22632596.281   -11040182.792 7  -8602708.026 8
  21862671.987   -12636433.874 8  -9846557.016 9
  23559138.748    -2939052.156 7  -2290144.718 7
 91  5  6 23 59 30.0050000  0  4 12  6 13  2
  25411088.372    -5784516.378 6  -4507411.732 4
  22645631.559   -10971676.658 7  -8549326.688 8
  21865138.078   -12623471.585 8  -9836456.480 9
  23571044.404    -2876481.263 7  -2241388.222 6
 91  5  7  0  0  0.0050000  0  4 12  6 13  2
  25395394.536    -5866990.077 6  -4571677.194 4
  22658767.262   -10902643.676 7  -8495534.805 8
  21867705.799   -12609981.745 8  -9825944.874 9
  23582996.834    -2813700.585 7  -2192468.264 6
 91  5  7  0  0 30.0050000  0  4 12  6 13  2
  25379717.487    -5949383.874 6  -4635879.913 4
  22672004.596   -10833089.570 7  -8441336.868 8
  21870372.759   -12595971.123 8  -9815027.469 9
  23594980.736    -2750715.073 7  -2143388.700 6
 91  5  7  0  1  0.0050000  0  4 12  6 13  2
  25364053.029    -6031693.243 6  -4700016.875 3
  22685335.167   -10763012.875 7  -8386731.734 8
  21873138.942   -12581438.661 8  -9803703.422 9
  23607003.012    -2687521.957 7  -2094147.353 6
 91  5  7  0  1 30.0050000  0  4 12  6 13  2
  25348400.864    -6113932.453 6  -4764099.599 4
  22698767.969   -10692430.827 7  -8331732.803 8
  21876001.057   -12566402.072 8  -9791986.556 9
  23619064.558    -2624137.745 7  -2044757.104 6
 91  5  7  0  2  0.0050000  0  4 12  6 13  2
  25332771.489    -6196069.021 6  -4828101.889 4
  22712300.604   -10621313.987 7  -8276317.157 7
  21878965.404   -12550833.213 8  -9779854.943 9
  23631172.584    -2560532.055 7  -1995194.283 6
 91  5  7  0  2 30.0050000  0  4 12  6 13  2
  25317156.493    -6278116.498 6  -4892034.745 4
  22725931.868   -10549679.078 7  -8220497.820 8
  21882022.690   -12534749.491 8  -9767322.126 9
  23643312.378    -2496720.608 7  -1945471.132 5
 91  5  7  0  3  0.0050000  0  4 12  6 13  2
  25301564.287    -6360069.718 6  -4955894.179 4
  22739663.558   -10477524.034 7  -8164273.176 8
  21885183.099   -12518149.542 8  -9754387.063 9
  23655495.343    -2432700.542 7  -1895585.408 6
 91  5  7  0  3 30.0050000  0  4 12  6 13  2
  25285988.572    -6441927.350 6  -5019679.122 3
  22753494.783   -10404850.727 7  -8107644.687 7
  21888438.246   -12501035.270 8  -9741051.232 9
  23667716.978    -2368472.695 7  -1845537.791 6
 91  5  7  0  4  0.0050000  0  4 12  6 13  2
  25270426.651    -6523685.248 6  -5083386.362 4
  22767425.240   -10331657.855 7  -8050611.369 7
  21891792.029   -12483406.484 8  -9727314.476 9
  23679979.395    -2304034.569 7  -1795326.307 5
 91  5  7  0  4 30.0050000  0  4 12  6 13  2
  25254886.909    -6605344.657 6  -5147016.880 2
  22781448.628   -10257949.811 7  -7993176.607 7
  21895244.136   -12465268.021 8  -9713180.576 9
  23692283.177    -2239389.596 7  -1744953.666 6
 91  5  7  0  5  0.0050000  0  4 12  6 13  2
  25239361.555    -6686899.650 6  -5210565.989 3
  22795574.849   -10183723.967 7  -7935338.361 7
  21898793.083   -12446618.463 8  -9698648.422 9
  23704624.433    -2174534.126 7  -1694417.002 6
 91  5  7  0  5 30.0050000  0  4 12  6 13  2
  25223868.284    -6768346.880 6  -5274031.172 4
  22809799.106   -10108980.442 7  -7877096.729 7
  21902437.360   -12427458.262 8  -9683718.353 9
  23717004.656    -2109467.136 7  -1643715.505 6
 91  5  7  0  6  0.0050000  0  4 12  6 13  2
  25208394.190    -6849684.397 6  -5337410.864 2
  22824120.195   -10033720.336 7  -7818452.575 7
  21906182.665   -12407789.684 8  -9668392.155 9
  23729430.153    -2044188.560 7  -1592849.148 6
 91  5  7  0  6 30.0050000  0  4 12  6 13  2
  25192931.499    -6930904.297 6  -5400698.936 2
  22838541.107    -9957938.992 7  -7759402.262 6
  21910022.708   -12387608.788 8  -9652666.748 9
  23741891.031    -1978692.523 7  -1541813.328 6
 91  5  7  0  7  0.0050000  0  4 12  6 13  2
  25177502.977    -7012006.745 6  -5463895.513 2
  22853059.156    -9881640.484 7  -7699948.957 7
  21913960.777   -12366919.688 8  -9636545.337 9
  23754394.173    -1912982.167 7  -1490610.499 5
 91  5  7  0  7 30.0050000  0  4 12  6 13  2
  25162092.742    -7092986.015 6  -5526996.089 3
  22867677.037    -9804822.023 7  -7640090.488 7
  21917993.889   -12345720.932 8  -9620026.786 9
  23766941.089    -1847053.707 7  -1439237.734 5
 91  5  7  0  8  0.0050000  0  4 12  6 13  2
  25146706.195    -7173840.357 6  -5589999.341 4
  22882392.352    -9727485.141 7  -7579828.066 8
  21922126.825   -12324014.061 8  -9603112.306 9
  23779530.278    -1780907.492 7  -1387695.287 6
 91  5  7  0  8 30.0050000  0  4 12  6 13  2
  25131342.736    -7254566.931 6  -5652902.964 2
  22897208.390    -9649630.451 7  -7519162.155 7
  21926351.199   -12301800.507 8  -9585803.010 9
  23792156.933    -1714542.456 7  -1335982.329 6
 91  5  7  0  9  0.0050000  0  4 12  6 13  2
  25116008.348    -7335163.430 6  -5715705.291 4
  22912121.870    -9571259.280 7  -7458093.784 7
  21930672.711   -12279082.304 8  -9568100.474 9
  23804826.463    -1647958.936 7  -1284099.118 5
 91  5  7  0  9 30.0050000  0  4 12  6 13  2
  25100694.953    -7415631.112 6  -5778407.218 2
  22927132.774    -9492376.452 7  -7396626.715 7
  21935091.054   -12255865.359 8  -9550009.309 9
  23817541.258    -1581160.488 7  -1232048.437 5
 91  5  7  0 10  0.0050000  0  4 12  6 13  2
  25085410.936    -7495962.808 6  -5841003.203 4
  22942242.917    -9412978.191 7  -7334758.024 7
  21939604.430   -12232146.099 8  -9531526.739 9
  23830291.434    -1514142.468 7  -1179826.647 6
 91  5  7  0 10 30.0050000  0  4 12  6 13  2
  25070146.698    -7576159.451 6  -5903493.949 4
  22957447.789    -9333069.138 7  -7272491.315 7
  21944211.942   -12207930.098 8  -9512657.079 9
  23843087.775    -1446907.843 7  -1127436.088 6
 91  5  7  0 11  0.0050000  0  4 12  6 13  2
  25054909.744    -7656212.680 6  -5965872.928 3
  22972751.595    -9252644.556 7  -7209822.880 7
  21948915.683   -12183213.002 8  -9493396.971 9
  23855922.785    -1379450.542 7  -1074872.012 6
 91  5  7  0 11 30.0050000  0  4 12  6 13  2
  25039706.076    -7736122.786 6  -6028140.385 4
  22988152.835    -9171708.560 7  -7146755.953 7
  21953716.256   -12157998.824 8  -9473749.526 9
  23868800.078    -1311773.436 7  -1022136.639 5
 91  5  7  0 12  0.0050000  0  4 12  6 13  2
  25024528.182    -7815888.075 6  -6090294.994 4
  23003651.804    -9090262.492 7  -7083291.568 7
  21958609.175   -12132290.441 8  -9453716.988 9
  23881723.526    -1243876.549 7   -969230.024 6
 91  5  7  0 12 30.0050000  0  4 12  6 13  2
  25009375.468    -7895509.727 6  -6152337.662 4
  23019250.004    -9008311.455 7  -7019433.689 7
  21963592.023   -12106093.692 8  -9433303.903 9
  23894685.050    -1175763.727 7   -916155.137 6
 91  5  7  0 13  0.0050000  0  4 12  6 13  2
  24994251.539    -7974981.038 6  -6214263.166 4
  23034940.838    -8925852.243 7  -6955179.838 6
  21968670.202   -12079405.841 8  -9412508.146 9
  23907686.152    -1107430.620 7   -862908.609 6
 91  5  7  0 13 30.0050000  0  4 12  6 13  2
  24979161.184    -8054296.094 6  -6276066.949 5
  23050728.513    -8842882.948 7  -6890528.524 7
  21973842.822   -12052225.587 8  -9391328.691 9
  23920735.520    -1038873.498 7   -809487.531 6
 91  5  7  0 14  0.0050000  0  4 12  6 13  2
  24964097.816    -8133452.908 6  -6337747.380 4
  23066613.917    -8759405.007 7  -6825480.859 7
  21979108.382   -12024555.052 8  -9369767.216 9
  23933819.659     -970092.664 7   -755892.118 5
 91  5  7  0 14 30.0050000  0  4 12  6 13  2
  24949063.223    -8212446.729 6  -6399300.848 4
  23082600.044    -8675417.739 7  -6760036.301 6
  21984469.865   -11996393.850 8  -9347823.399 9
  23946952.370     -901085.830 7   -702120.621 5
 91  5  7  0 15  0.0050000  0  4 12  6 13  2
  24934064.307    -8291274.378 6  -6460724.780 4
  23098674.923    -8590921.799 7  -6694195.392 7
  21989919.795   -11967742.881 8  -9325497.944 9
  23960131.542     -831852.322 7   -648172.489 6
 91  5  7  0 15 30.0050000  0  4 12  6 13  2
  24919096.566    -8369934.278 6  -6522018.044 4
  23114850.219    -8505919.519 7  -6627959.951 7
  21995465.657   -11938605.690 8  -9302793.621 9
  23973348.799     -762393.048 7   -594048.446 6
 91  5  7  0 16  0.0050000  0  4 12  6 13  2
  24904157.906    -8448424.851 6  -6583179.345 3
  23131119.057    -8420412.962 7  -6561331.559 7
  22001102.357   -11908984.620 8  -9279712.249 9
  23986609.517     -692708.351 7   -539748.739 6
 91  5  7  0 16 30.0050000  0  4 12  6 13  2
  24889255.228    -8526744.141 6  -6644207.168 4
  23147490.729    -8334404.354 7  -6494311.955 7
  22006828.393   -11878882.275 8  -9256255.860 9
  23999906.809     -622799.298 6   -485274.226 5
 91  5  7  0 17  0.0050000  0  4 12  6 13  2
  24874385.819    -8604886.024 6  -6705096.759 4
  23163949.932    -8247891.434 7  -6426899.392 6
  22012651.862   -11848297.655 8  -9232423.667 9
  24013251.174     -552661.911 6   -430621.775 6
 91  5  7  0 17 30.0050000  0  4 12  6 13  2
  24859552.087    -8682845.355 6  -6765844.097 4
  23180511.070    -8160872.927 7  -6359092.852 7
  22018562.268   -11817229.632 8  -9208214.803 9
  24026647.697     -482293.340 7   -375789.210 5
 91  5  7  0 18  0.0050000  0  4 12  6 13  2
  24844747.741    -8760622.321 6  -6826449.347 4
  23197165.435    -8073352.807 7  -6290895.461 6
  22024566.513   -11785683.104 8  -9183633.081 9
  24040080.194     -411695.973 6   -320778.329 5
 91  5  7  0 18 30.0050000  0  4 12  6 13  2
  24829985.058    -8838215.493 6  -6886911.371 5
  23213914.241    -7985333.580 7  -6222309.160 7
  22030659.789   -11753660.862 8  -9158680.675 9
  24053551.972     -340870.758 6   -265589.911 5
 91  5  7  0 19  0.0050000  0  4 12  6 13  2
  24815252.659    -8915630.630 6  -6947234.681 4
  23230757.480    -7896825.169 7  -6153341.668 6
  22036840.612   -11721173.322 8  -9133365.697 9
  24067080.707     -269826.125 6   -210230.555 5
 91  5  7  0 19 30.0060000  0  4 12  6 13  2
  24800552.634    -8992869.269 6  -7007420.443 3
  23247695.458    -7807827.397 7  -6083992.862 7
  22043111.072   -11688222.869 8  -9107690.004 9
  24080638.823     -198560.991 6   -154699.370 5
 91  5  7  0 20  0.0060000  0  4 12  6 13  2
  24785892.784    -9069921.430 6  -7067460.927 5
  23264719.472    -7718346.058 7  -6014267.250 7
  22049469.067   -11654811.344 8  -9081655.037 9
  24094238.903     -127078.030 6    -98998.446 6
 91  5  7  0 20 30.0060000  0  4 12  6 13  2
  24771262.914    -9146789.805 6  -7127358.160 4
  23281843.318    -7628381.581 7  -5944165.184 7
  22055912.813   -11620942.212 8  -9055263.477 9
  24107888.760      -55377.657 6    -43128.095 4
 91  5  7  0 21  0.0060000  0  4 12  6 13  2
  24756670.510    -9223467.003 6  -7187106.469 3
  23299054.398    -7537931.368 7  -5873684.612 7
  22062445.590   -11586612.838 8  -9028513.301 9
  24121574.582       16545.615 6     12915.919 5
 91  5  7  0 21 30.0060000  0  4 12  6 13  2
  24742114.088    -9299951.277 6  -7246704.422 4
  23316358.723    -7446997.448 7  -5802827.127 6
  22069065.906   -11551826.943 8  -9001407.385 9
  24135304.474       88690.514 6     69132.660 4
 91  5  7  0 22  0.0060000  0  4 12  6 13  2
  24727602.339    -9376239.258 6  -7306149.432 4
  23333753.580    -7355580.989 7  -5731593.634 6
  22075772.557   -11516585.145 8  -8973946.218 9
  24149076.046      161058.332 6    125523.104 5
 91  5  7  0 22 30.0060000  0  4 12  6 13  2
  24713117.864    -9452329.401 6  -7365440.278 5
  23351244.073    -7263684.354 7  -5659985.967 6
  22082562.559   -11480890.790 8  -8946132.420 9
  24162886.280      233647.681 6    182086.161 5
 91  5  7  0 23  0.0060000  0  4 12  6 13  2
  24698678.358    -9528214.548 6  -7424571.379 5
  23368819.400    -7171304.854 7  -5588002.050 6
  22089443.695   -11444741.329 8  -8917963.985 9
  24176739.990      306463.416 6    238825.613 5
 91  5  7  0 23 30.0060000  0  4 12  6 13  2
  24684276.929    -9603896.870 6  -7483544.451 5
  23386490.965    -7078448.660 7  -5515646.690 6
  22096406.977   -11408143.799 9  -8889446.416 9
  24190642.264      379501.119 6    295738.043 5
 91  5  7  0 24  0.0060000  0  4 12  6 13  2
  24669912.076    -9679373.334 7  -7542357.120 5
  23404251.875    -6985117.302 7  -5442921.078 5
  22103460.189   -11371099.553 9  -8860580.751 9
  24204583.514      452760.724 6    352823.384 5
 91  5  7  0 24 30.0060000  0  4 12  6 13  2
  24655590.987    -9754640.473 7  -7601006.686 5
  23422100.918    -6891311.606 7  -5369825.845 6
  22110591.055   -11333610.539 8  -8831368.517 9
  24218568.834      526243.093 6    410082.286 4
 91  5  7  0 25  0.0060000  0  4 12  6 13  2
  24641311.274    -9829693.843 7  -7659489.667 5
  23440044.697    -6797031.189 7  -5296360.710 6
  22117810.359   -11295676.564 8  -8801809.563 9
  24232591.323      599950.313 6    467516.410 4
 91  5  7  0 25 30.0060000  0  4 12  6 13  2
  24627067.839    -9904532.537 7  -7717805.381 6
  23458077.813    -6702279.794 7  -5222528.572 6
  22125112.402   -11257301.674 9  -8771907.036 9
  24246659.383      673880.943 6    525124.624 5
 91  5  7  0 26  0.0060000  0  4 12  6 13  2
  24612869.364    -9979155.825 7  -7775953.252 4
  23476190.974    -6607060.921 7  -5148332.174 6
  22132495.694   -11218490.288 9  -8741664.383 9
  24260768.215      748032.475 6    582904.962 6
 91  5  7  0 26 30.0060000  0  4 12  6 13  2
  24598708.068   -10053560.544 7  -7833930.822 5
  23494398.862    -6511375.676 7  -5073772.364 6
  22139965.923   -11179243.516 8  -8711082.473 9
  24274925.315      822406.024 6    640858.289 6
 91  5  7  0 27  0.0060000  0  4 12  6 13  2
  24584590.240   -10127743.728 7  -7891735.774 5
  23512699.700    -6415225.687 7  -4998850.435 6
  22147516.492   -11139563.512 8  -8680162.990 9
  24289118.398      897001.817 6    698984.796 5
 91  5  7  0 27 30.0060000  0  4 12  6 13  2
  24570517.381   -10201699.613 7  -7949363.611 5
  23531084.167    -6318609.682 7  -4923565.388 6
  22155151.006   -11099449.220 9  -8648905.102 9
  24303358.238      971823.222 6    757287.083 5
 91  5  7  0 28  0.0060000  0  4 12  6 13  2
  24556490.093   -10275429.809 7  -8006815.617 5
  23549552.588    -6221533.539 6  -4847921.802 6
  22162865.268   -11058907.373 8  -8617314.064 9
  24317634.950     1046865.967 6    815761.847 5
 91  5  7  0 28 30.0060000  0  4 12  6 13  2
  24542501.483   -10348931.332 7  -8064089.394 5
  23568115.737    -6123998.756 6  -4771920.801 7
  22170661.371   -11017938.955 9  -8585390.619 9
  24331961.134     1122130.369 6    874409.347 4
 91  5  7  0 29  0.0060000  0  4 12  6 13  2
  24528558.733   -10422201.885 7  -8121183.211 5
  23586765.221    -6026007.574 7  -4695564.173 6
  22178536.916   -10976546.843 8  -8553137.016 9
  24346322.393     1197616.001 6    933229.244 4
 91  5  7  0 29 30.0060000  0  4 12  6 13  2
  24514656.756   -10495242.462 7  -8178097.823 6
  23605495.656    -5927565.590 6  -4618856.278 6
  22186494.608   -10934737.915 9  -8520558.620 9
  24360729.519     1273319.282 6    992218.738 4
 91  5  7  0 30  0.0060000  0  4 12  6 13  2
  24500803.351   -10568048.420 7  -8234829.611 6
  23624316.327    -5828672.952 6  -4541797.225 6
  22194529.046   -10892511.643 9  -8487655.030 9
  24375173.815     1349242.255 6   1051379.401 5
 91  5  7  0 30 30.0060000  0  4 12  6 13  2
  24486994.906   -10640617.664 7  -8291376.929 6
  23643217.042    -5729331.884 6  -4464388.743 6
  22202642.934   -10849871.308 9  -8454428.787 9
  24389665.182     1425383.812 6   1110710.384 5
 91  5  7  0 31  0.0060000  0  4 12  6 13  2
  24473231.134   -10712948.979 7  -8347738.872 5
  23662208.297    -5629545.761 6  -4386633.455 6
  22210837.461   -10806820.891 9  -8420883.002 9
  24404199.128     1501742.738 6   1170210.768 5
 91  5  7  0 31 30.0060000  0  4 12  6 13  2
  24459512.331   -10785032.791 7  -8403907.940 5
  23681283.487    -5529309.858 6  -4308527.698 6
  22219108.131   -10763355.754 9  -8387014.060 9
  24418771.133     1578326.135 6   1229886.050 5
 91  5  7  0 32  0.0060000  0  4 12  6 13  2
  24445842.694   -10856871.683 7  -8459886.170 3
  23700443.225    -5428630.914 6  -4230076.701 5
  22227456.455   -10719482.646 9  -8352827.209 9
  24433384.522     1655128.832 6   1289732.220 5
 91  5  7  0 32 30.0060000  0  4 12  6 13  2
  24432217.128   -10928461.141 7  -8515670.016 5
  23719687.202    -5327509.804 6  -4151281.173 5
  22235880.617   -10675202.495 9  -8318323.193 9
  24448043.176     1732152.447 6   1349750.518 4
 91  5  7  0 33  0.0060000  0  4 12  6 13  2
  24418644.925   -10999794.235 7  -8571254.102 5
  23739016.023    -5225943.772 6  -4072138.957 6
  22244385.434   -10630513.548 9  -8283500.620 9
  24462746.790     1809400.842 6   1409943.986 4
 91  5  7  0 33 30.0060000  0  4 12  6 13  2
  24405121.285   -11070869.662 7  -8626637.410 5
  23758426.983    -5123936.355 6  -3992652.799 5
  22252967.294   -10585419.601 9  -8248362.474 9
  24477489.389     1886872.915 6   1470311.758 4
 91  5  7  0 34  0.0060000  0  4 12  6 13  2
  24391642.920   -11141689.695 7  -8681821.697 5
  23777918.893    -5021494.678 6  -3912828.260 5
  22261624.094   -10539927.694 9  -8212914.229 9
  24492266.154     1964563.644 6   1530849.903 4
 91  5  7  0 34 30.0060000  0  4 12  6 13  2
  24378216.714   -11212247.253 7  -8736801.486 6
  23797495.935    -4918616.286 6  -3832663.412 5
  22270355.852   -10494036.012 9  -8177154.466 9
  24507098.691     2042477.537 6   1591561.917 5
 91  5  7  0 35  0.0060000  0  4 12  6 13  2
  24364838.775   -11282535.731 7  -8791571.569 5
  23817155.123    -4815299.288 6  -3752156.811 5
  22279165.254   -10447742.824 9  -8141081.849 9
  24521970.194     2120618.180 6   1652450.645 5
 91  5  7  0 35 30.0060000  0  4 12  6 13  2
  24351518.396   -11352554.706 7  -8846131.655 6
  23836900.053    -4711548.073 6  -3671311.857 5
  22288051.699   -10401052.760 9  -8104699.978 9
  24536878.875     2198983.155 6   1713514.157 5
 91  5  7  0 36  0.0060000  0  4 12  6 13  2
  24338243.884   -11422306.471 7  -8900483.533 6
  23856720.534    -4607369.858 6  -3590134.173 6
  22297010.998   -10353972.737 9  -8068014.238 9
  24551838.816     2277567.700 6   1774748.775 5
 91  5  7  0 36 30.0060000  0  4 12  6 13  2
  24325020.938   -11491789.432 7  -8954625.946 6
  23876629.453    -4502767.732 6  -3508626.174 5
  22306044.348   -10306506.290 9  -8031027.389 9
  24566829.041     2356370.557 6   1836153.488 5
 91  5  7  0 37  0.0060000  0  4 12  6 13  2
  24311852.559   -11560998.006 7  -9008554.566 6
  23896616.313    -4397740.933 6  -3426787.266 5
  22315147.542   -10258653.401 9  -7993739.427 9
  24581864.228     2435394.271 6   1897730.299 4
 91  5  7  0 37 30.0060000  0  4 12  6 13  2
  24298736.033   -11629925.662 7  -9062264.289 6
  23916681.123    -4292287.727 6  -3344616.097 6
  22324328.686   -10210412.420 9  -7956149.050 9
  24596954.286     2514642.693 6   1959482.218 5
 91  5  7  0 38  0.0060000  0  4 12  6 13  2
  24285674.074   -11698568.895 7  -9115752.390 6
  23936826.282    -4186409.560 6  -3262113.781 6
  22333583.584   -10161784.991 9  -7918257.546 9
  24612080.309     2594116.862 6   2021410.031 5
 91  5  7  0 38 30.0060000  0  4 12  6 13  2
  24272661.289   -11766922.662 7  -9169014.932 6
  23957061.075    -4080106.302 6  -3179280.232 5
  22342908.622   -10112770.592 9  -7880064.498 8
  24627242.315     2673819.072 6   2083515.553 3
 91  5  7  0 39  0.0060000  0  4 12  6 13  2
  24259711.753   -11834985.794 7  -9222051.005 5
  23977371.113    -3973381.620 6  -3096118.298 6
  22352309.220   -10063373.563 9  -7841573.315 9
  24642445.389     2753747.398 6   2145797.241 3
 91  5  7  0 39 30.0060000  0  4 12  6 13  2
  24246815.283   -11902760.940 7  -9274862.694 6
  23997758.499    -3866242.946 6  -3012633.795 5
  22361780.562   -10013601.829 9  -7802790.151 9
  24657703.031     2833896.587 6   2208251.085 5
 91  5  7  0 40  0.0060000  0  4 12  6 13  2
  24233973.668   -11970240.935 7  -9327444.400 6
  24018222.927    -3758688.025 6  -2928824.937 5
  22371323.553    -9963452.959 9  -7763713.105 9
  24672990.643     2914270.947 6   2270880.334 4
 91  5  7  0 40 30.0060000  0  4 12  6 13  2
  24221189.315   -12037419.625 7  -9379791.302 6
  24038772.505    -3650715.860 6  -2844690.960 5
  22380940.901    -9912926.023 9  -7724341.470 9
  24688328.625     2994873.531 6   2333687.448 5
 91  5  7  0 41  0.0060000  0  4 12  6 13  2
  24208463.133   -12104295.903 7  -9431902.585 6
  24059395.224    -3542330.165 6  -2760234.743 5
  22390624.794    -9862025.177 9  -7684678.469 8
  24703718.470     3075703.072 6   2396671.396 4
 91  5  7  0 41 30.0060000  0  4 12  6 13  2
  24195795.698   -12170862.326 7  -9483772.410 6
  24080100.990    -3433528.664 6  -2675454.538 5
  22400382.441    -9810748.049 8  -7644722.269 9
  24719137.395     3156763.837 6   2459835.492 4
 91  5  7  0 42  0.0060000  0  4 12  6 13  2
  24183188.229   -12237120.539 7  -9535402.069 6
  24100882.602    -3324317.786 6  -2590355.335 6
  22410210.831    -9759101.368 9  -7604478.099 9
  24734603.087     3238051.714 6   2523176.576 4
 91  5  7  0 42 30.0060000  0  4 12  6 13  2
  24170637.413   -12303071.857 7  -9586792.611 6
  24121740.664    -3214703.847 6  -2504942.058 5
  22420107.879    -9707091.779 8  -7563951.156 9
  24750115.554     3319561.936 6   2586690.956 4
 91  5  7  0 43  0.0060000  0  4 12  6 13  2
  24158147.167   -12368711.907 7  -9637940.600 6
  24142679.669    -3104687.588 6  -2419215.303 5
  22430073.882    -9654719.990 8  -7523141.964 9
  24765674.482     3401296.490 6   2650380.098 4
 91  5  7  0 43 30.0060000  0  4 12  6 13  2
  24145719.567   -12434035.137 8  -9688841.705 6
  24163691.223    -2994268.336 6  -2333174.508 5
  22440108.839    -9601985.306 8  -7482050.005 9
  24781267.586     3483258.022 6   2714246.117 3
 91  5  7  0 44  0.0060000  0  4 12  6 13  2
  24133346.534   -12499040.991 7  -9739495.520 6
  24184779.523    -2883450.695 6  -2246823.294 6
  22450211.843    -9548892.836 8  -7440679.250 9
  24796909.857     3565444.105 6   2778287.100 3
 91  5  7  0 44 30.0060000  0  4 12  6 13  2
  24121036.155   -12563725.396 7  -9789898.847 7
  24205937.677    -2772235.848 6  -2160162.578 6
  22460382.598    -9495443.214 8  -7399030.199 8
  24812596.800     3647855.929 6   2842503.995 4
 91  5  7  0 45  0.0060000  0  4 12  6 13  2
  24108789.933   -12628084.073 7  -9840048.350 7
  24227180.368    -2660624.346 6  -2073192.777 5
  22470622.011    -9441637.225 8  -7357103.458 9
  24828316.715     3730494.914 6   2906897.884 3
 91  5  7  0 45 30.0060000  0  4 12  6 13  2
  24096604.568   -12692115.396 7  -9889942.792 7
  24248492.319    -2548619.627 6  -1985916.581 5
  22480927.682    -9387478.493 8  -7314901.856 8
  24844088.196     3813359.851 6   2971467.864 3
 91  5  7  0 46  0.0060000  0  4 12  6 13  2
  24084482.163   -12755819.579 7  -9939582.307 7
  24269879.515    -2436227.128 6  -1898338.204 5
  22491297.203    -9332972.718 8  -7272429.823 8
  24859898.346     3896447.695 6   3036211.543 4
 91  5  7  0 46 30.0060000  0  4 12  6 13  2
  24072422.405   -12819194.092 7  -9988964.932 7
  24291342.253    -2323449.435 6  -1810459.686 4
  22501738.070    -9278122.308 8  -7229689.254 8
  24875753.178     3979757.746 6   3101128.359 2
 91  5  7  0 47  0.0060000  0  4 12  6 13  2
  24060428.312   -12882233.427 7 -10038086.390 7
  24312876.345    -2210286.430 6  -1722280.932 5
  22512240.701    -9222927.256 8  -7186680.135 9
  24891651.766     4063292.559 6   3166220.269 4
 91  5  7  0 47 30.0060000  0  4 12  6 13  2
  24048495.670   -12944935.118 7 -10086944.752 6
  24334485.090    -2096740.527 6  -1633803.833 4
  22522808.684    -9167389.861 8  -7143404.244 9
  24907583.937     4147051.962 6   3231487.222 3
 91  5  7  0 48  0.0060000  0  4 12  6 13  2
  24036625.988   -13007296.289 7 -10135537.764 6
  24356164.280    -1982813.893 6  -1545029.558 5
  22533441.119    -9111512.767 8  -7099863.657 8
  24923566.478     4231035.624 6   3296928.914 4
 91  5  7  0 48 30.0060000  0  4 12  6 13  2
  24024827.957   -13069310.441 7 -10183860.386 7
  24377913.019    -1868505.390 6  -1455958.225 5
  22544139.516    -9055294.752 8  -7056057.414 8
  24939590.978     4315247.410 6   3362548.350 4
 91  5  7  0 49  0.0060000  0  4 12  6 13  2
  24013092.284   -13130979.462 7 -10231914.069 7
  24399736.410    -1753821.974 6  -1366594.747 6
  22554900.272    -8998742.262 8  -7011990.547 9
  24955658.056     4399682.571 6   3428341.857 4
 91  5  7  0 49 30.0060000  0  4 12  6 13  2
  24001421.064   -13192299.702 7 -10279695.954 7
  24421633.257    -1638765.304 6  -1276940.420 4
  22565726.369    -8941857.394 9  -6967664.676 8
  24971769.205     4484341.725 6   3494309.888 3
 91  5  7  0 50  0.0060000  0  4 12  6 13  2
  23989819.391   -13253270.622 7 -10327205.681 7
  24443599.949    -1523340.293 6  -1186999.072 5
  22576613.639    -8884644.692 8  -6923083.366 9
  24987925.620     4569222.198 6   3560450.371 3
 91  5  7  0 50 30.0060000  0  4 12  6 13  2
  23978285.181   -13313886.098 7 -10374438.428 7
  24465634.391    -1407545.727 6  -1096769.772 5
  22587563.258    -8827103.206 8  -6878245.854 8
  25004120.112     4654327.387 6   3626765.972 3
 91  5  7  0 51  0.0060000  0  4 12  6 13  2
  23966819.018   -13374144.283 7 -10421392.768 7
  24487735.694    -1291384.840 6  -1006254.540 4
  22598575.532    -8769235.813 8  -6833154.391 8
  25020346.677     4739656.484 5   3693256.038 5
 91  5  7  0 51 30.0060000  0  4 12  6 13  2
  23955419.411   -13434042.708 7 -10468066.783 6
  24509911.640    -1174860.489 6   -915456.581 5
  22609647.764    -8711045.465 8  -6787811.259 8
  25036635.896     4825208.803 6   3759920.007 5
 91  5  7  0 52  0.0060000  0  4 12  6 13  2
  23944089.647   -13493581.294 8 -10514460.403 7
  24532155.345    -1057977.377 6   -824378.580 5
  22620782.356    -8652536.685 8  -6742220.019 9
  25052961.099     4910981.812 6   3826755.985 4
 91  5  7  0 52 30.0060000  0  4 12  6 13  2
  23932830.043   -13552754.428 8 -10560569.259 7
  24554465.894     -940735.329 6   -733020.870 4
  22631977.805    -8593709.908 8  -6696380.986 9
  25069323.164     4996978.181 6   3893766.010 3
 91  5  7  0 53  0.0060000  0  4 12  6 13  2
  23921638.791   -13611562.339 8 -10606393.523 7
  24576840.310     -823140.026 6   -641388.409 5
  22643231.415    -8534569.975 8  -6650297.934 9
  25085724.816     5083193.935 6   3960946.963 2
 91  5  7  0 53 30.0060000  0  4 12  6 13  2
  23910517.994   -13670003.258 8 -10651931.828 7
  24599283.366     -705194.928 6   -549482.897 4
  22654541.687    -8475120.485 9  -6603973.664 9
  25102181.322     5169628.158 6   4028298.168 5
 91  5  7  0 54  0.0060000  0  4 12  6 13  2
  23899468.542   -13728071.676 8 -10697179.869 6
  24621803.178     -586899.770 6   -457304.609 4
  22665914.316    -8415360.797 9  -6557407.688 9
  25118669.606     5256283.883 6   4095821.958 4
 91  5  7  0 54 30.0060000  0  4 12  6 13  2
  23888489.240   -13785768.323 8 -10742138.218 7
  24644373.054     -468260.157 6   -364857.919 5
  22677344.497    -8355297.258 9  -6510604.937 9
  25135202.265     5343157.738 6   4163515.733 4
 91  5  7  0 55  0.0060000  0  4 12  6 13  2
  23877581.598   -13843083.555 7 -10786799.356 8
  24667021.779     -349272.114 6   -272140.222 5
  22688834.348    -8294924.821 9  -6463561.498 9
  25151774.789     5430255.633 5   4231384.094 4
 91  5  7  0 55 30.0060000  0  4 12  6 13  2
  23866748.895   -13900012.824 8 -10831159.746 7
  24689726.859     -229936.285 6   -179151.018 5
  22700382.650    -8234244.230 9  -6416277.932 9
  25168391.689     5517579.713 5   4299428.668 4
 91  5  7  0 56  0.0060000  0  4 12  6 13  2
  23855988.140   -13956553.999 8 -10875217.741 7
  24712504.192     -110255.653 6    -85893.137 6
  22711986.722    -8173258.042 9  -6368756.248 9
  25185051.752     5605128.644 6   4367648.468 4
 91  5  7  0 56 30.0060000  0  4 12  6 13  2
  23845305.335   -14012701.741 8 -10918969.140 8
  24735340.577        9769.480 6      7633.178 5
  22723649.548    -8111966.265 8  -6320996.422 8
  25201758.285     5692904.637 6   4436045.180 4
 91  5  7  0 57  0.0060000  0  4 12  6 13  2
  23834692.985   -14068456.317 7 -10962414.183 8
  24758244.720      130133.780 6    101423.751 3
  22735370.833    -8050375.067 9  -6273003.290 8
  25218505.887     5780904.885 6   4504616.639 5
 91  5  7  0 57 30.0060000  0  4 12  6 13  2
  23824158.881   -14123814.957 8 -11005550.711 8
  24781216.623      250834.435 6    195476.426 5
  22747147.279    -7988486.499 8  -6224778.444 8
  25235286.470     5869128.999 5   4573362.574 3
 91  5  7  0 58  0.0060000  0  4 12  6 13  2
  23813699.718   -14178774.913 8 -11048376.572 7
  24804244.881      371869.315 6    289789.538 5
  22758980.385    -7926302.753 9  -6176323.607 9
  25252119.518     5957576.831 5   4642282.810 4
 91  5  7  0 58 30.0060000  0  4 12  6 13  2
  23803319.107   -14233333.917 8 -11090890.001 8
  24827344.485      493235.076 6    384360.507 5
  22770868.660    -7863826.481 9  -6127640.805 9
  25268994.838     6046247.847 5   4711376.959 4
 91  5  7  0 59  0.0060000  0  4 12  6 13  2
  23793013.436   -14287486.023 8 -11133086.363 8
  24850498.655      614932.614 6    479189.968 4
  22782814.485    -7801056.780 9  -6078729.362 9
  25285910.329     6135144.728 5   4780647.099 3
 91  5  7  0 59 30.0060000  0  4 12  6 13  2
  23782779.424   -14341274.586 8 -11174999.451 7
  24873713.387      736912.945 6    574239.766 4
  22794804.984    -7738042.416 9  -6029627.270 9
  25302850.101     6224220.717 5   4850056.793 3
 91  5  7  1  0  0.0060000  0  4 12  6 13  2
  23772625.457   -14394632.017 8 -11216576.586 8
  24896995.869      859238.484 6    669558.594 4
  22806855.441    -7674720.873 9  -5980285.826 9
  25319859.125     6313541.137 5   4919657.015 4
 91  5  7  1  0 30.0060000  0  4 12  6 13  2
  23762558.426   -14447530.892 8 -11257796.410 7
  24920342.506      981931.642 6    765163.885 4
  22818967.655    -7611069.386 9  -5930687.275 9
  25336907.421     6403130.910 5   4989467.052 5
 91  5  7  1  1  0.0060000  0  4 12  6 13  2
  23752570.838   -14500012.712 8 -11298691.249 8
  24943748.204     1104945.445 6    861018.996 4
  22831134.435    -7547135.001 9  -5880868.295 8
  25353994.395     6492944.655 5   5059451.622 5
 91  5  7  1  1 30.0060000  0  4 12  6 13  2
  23742664.497   -14552091.064 8 -11339271.699 8
  24967215.658     1228261.004 6    957109.237 4
  22843350.975    -7482935.565 9  -5830842.773 9
  25371126.635     6582966.446 5   5129598.315 4
 91  5  7  1  2  0.0060000  0  4 12  6 13  2
  23732832.504   -14603745.980 8 -11379522.211 7
  24990743.368     1351892.832 6   1053445.947 5
  22855620.284    -7418456.472 9  -5780599.350 8
  25388307.438     6673212.626 5   5199919.860 3
 91  5  7  1  2 30.0060000  0  4 12  6 13  2
  23723080.851   -14654979.865 8 -11419444.639 8
  25014327.442     1475833.024 6   1150022.938 4
  22867942.956    -7353706.011 9  -5730144.453 8
  25405522.724     6763677.640 5   5270411.911 4
 91  5  7  1  3  0.0060000  0  4 12  6 13  2
  23713412.244   -14705794.977 8 -11459040.756 7
  25037965.778     1600074.127 6   1246834.375 4
  22880314.488    -7288690.876 9  -5679483.335 8
  25422774.882     6854356.859 5   5341070.888 4
 91  5  7  1  3 30.0060000  0  4 12  6 13  2
  23703822.189   -14756186.896 8 -11498307.106 8
  25061671.863     1724615.340 6   1343879.654 2
  22892738.485    -7223411.623 9  -5628616.396 8
  25440075.298     6945251.439 5   5411897.676 4
 91  5  7  1  4  0.0060000  0  4 12  6 13  2
  23694300.181   -14806229.895 8 -11537301.579 8
  25085413.330     1849377.009 6   1441096.749 4
  22905194.861    -7157946.859 9  -5577604.916 8
  25457397.012     7036284.688 5   5482832.527 3
 91  5  7  1  4 30.0060000  0  4 12  6 13  2
  23684869.909   -14855791.531 8 -11575920.967 8
  25109220.452     1974486.237 6   1538584.662 3
  22917712.102    -7092169.685 9  -5526349.988 8
  25474770.580     7127585.510 5   5553975.840 4
 91  5  7  1  5  0.0060000  0  4 12  6 13  2
  23675519.375   -14904918.058 8 -11614201.304 8
  25133090.527     2099891.369 6   1636303.131 4
  22930277.899    -7026131.599 9  -5474891.765 8
  25492176.535     7219104.216 5   5625288.976 3
 91  5  7  1  5 30.0060000  0  4 12  6 13  2
  23666253.990   -14953606.195 8 -11652140.054 8
  25157007.664     2225590.331 6   1734250.546 4
  22942892.566    -6959833.850 8  -5423231.201 8
  25509641.245     7310841.646 5   5696772.502 3
 91  5  7  1  6  0.0060000  0  4 12  6 13  2
  23657071.947   -15001856.798 8 -11689737.865 8
  25180979.674     2351577.018 6   1832422.184 2
  22955557.602    -6893282.732 8  -5371373.211 7
  25527138.029     7402793.572 5   5768423.213 3
 91  5  7  1  6 30.0060000  0  4 12  6 13  2
  23647974.451   -15049667.631 8 -11726993.001 8
  25205001.443     2477848.512 5   1930815.722 3
  22968270.897    -6826480.672 8  -5319319.675 8
  25544677.086     7494959.815 5   5840240.908 3
 91  5  7  1  7  0.0060000  0  4 12  6 13  2
  23638959.389   -15097038.308 8 -11763905.155 8
  25229092.463     2604400.029 5   2029427.461 4
  22981028.865    -6759432.346 8  -5267074.260 8
  25562258.119     7587337.728 5   5912223.554 2
 91  5  7  1  7 30.0060000  0  4 12  6 13  2
  23630029.772   -15143963.523 8 -11800470.202 9
  25253224.256     2731231.468 5   2128257.342 4
  22993836.601    -6692136.863 8  -5214636.233 8
  25579871.226     7679930.060 5   5984373.230 2
 91  5  7  1  8  0.0060000  0  4 12  6 13  2
  23621187.389   -15190435.108 8 -11836681.772 8
  25277418.407     2858345.793 5   2227307.631 2
  23006689.602    -6624590.546 8  -5162002.767 7
  25597535.898     7772741.873 5   6056693.985 2
 91  5  7  1  8 30.0060000  0  4 12  6 13  2
  23612431.053   -15236449.438 8 -11872537.044 8
  25301654.526     2985740.797 5   2326576.597 4
  23019590.871    -6556795.699 8  -5109175.645 7
  25615242.233     7865773.127 5   6129185.687 2
 91  5  7  1  9  0.0060000  0  4 12  6 13  2
  23603760.459   -15282004.283 8 -11908034.272 9
  25325956.004     3113413.638 5   2426062.102 3
  23032538.008    -6488754.704 8  -5056156.720 7
  25632988.755     7959023.122 5   6201847.816 2
 91  5  7  1  9 30.0060000  0  4 12  6 13  2
  23595179.498   -15327099.889 8 -11943173.662 9
  25350293.753     3241358.936 5   2525759.875 2
  23045530.114    -6420472.660 8  -5002949.961 7
  25650774.541     8052489.056 5   6274678.263 2
 91  5  7  1 10  0.0060000  0  4 12  6 13  2
  23586688.771   -15371730.355 8 -11977950.595 9
  25374698.066     3369577.027 5   2625670.226 3
  23058572.581    -6351948.628 8  -4949554.635 7
  25668599.598     8146173.805 5   6347679.137 2
 91  5  7  1 10 30.0060000  0  4 12  6 13  2
  23578284.694   -15415893.043 8 -12012363.038 9
  25399144.634     3498065.317 5   2725791.119 3
  23071657.025    -6283184.914 8  -4895972.553 7
  25686463.333     8240076.931 5   6420850.206 2
 91  5  7  1 11  0.0060000  0  4 12  6 13  2
  23569969.046   -15459586.933 8 -12046410.178 9
  25423650.577     3626819.624 5   2826119.246 4
  23084787.336    -6214184.638 8  -4842206.138 7
  25704378.032     8334197.009 5   6494190.316 2
 91  5  7  1 11 30.0060000  0  4 12  6 13  2
  23561743.345   -15502811.081 8 -12080091.278 9
  25448203.278     3755835.463 5   2926651.227 3
  23097959.912    -6144952.100 8  -4788258.747 7
  25722335.301     8428531.131 5   6567697.268 2
 91  5  7  1 12  0.0060000  0  4 12  6 13  2
  23553609.973   -15545561.619 8 -12113403.344 9
  25472798.548     3885111.574 5   3027385.972 3
  23111180.162    -6075488.314 8  -4734131.132 7
  25740315.648     8523080.566 5   6641371.965 3
 91  5  7  1 12 30.0060000  0  4 12  6 13  2
  23545566.539   -15587832.235 8 -12146341.434 9
  25497455.279     4014648.794 5   3128324.193 5
  23124442.982    -6005792.100 8  -4679822.438 7
  25758358.658     8617848.689 5   6715217.523 2
 91  5  7  1 13  0.0060000  0  4 12  6 13  2
  23537614.850   -15629619.213 8 -12178902.679 9
  25522150.984     4144445.955 5   3229464.970 2
  23137746.269    -5935863.745 8  -4625332.843 7
  25776433.148     8712836.817 5   6789234.069 3
 91  5  7  1 13 30.0070000  0  4 12  6 13  2
  23529750.695   -15670932.711 8 -12211094.955 9
  25546899.453     4274493.517 5   3330800.823 3
  23151097.233    -5865714.125 8  -4570670.846 7
  25794553.205     8808036.579 5   6863415.499 3
 91  5  7  1 14  0.0070000  0  4 12  6 13  2
  23521981.875   -15711756.729 8 -12242905.827 9
  25571692.888     4404790.557 5   3432331.127 3
  23164489.255    -5795339.458 8  -4515833.460 6
  25812698.142     8903451.534 5   6937764.628 2
 91  5  7  1 14 30.0070000  0  4 12  6 13  2
  23514308.081   -15752089.283 8 -12274333.739 9
  25596543.281     4535339.479 5   3534057.664 4
  23177923.558    -5724738.808 8  -4460819.996 7
  25830905.734     8999085.289 5   7012284.683 2
 91  5  7  1 15  0.0070000  0  4 12  6 13  2
  23506728.134   -15791928.718 8 -12305377.407 9
  25621428.757     4666136.729 5   3635977.737 2
  23191403.127    -5653915.521 8  -4405633.058 7
  25849143.314     9094936.221 5   7086973.532 2
 91  5  7  1 15 30.0070000  0  4 12  6 13  2
  23499240.516   -15831278.300 8 -12336039.367 9
  25646366.087     4797173.734 5   3738084.594 3
  23204922.264    -5582877.655 8  -4350278.905 8
  25867423.159     9190998.431 5   7161826.992 2
 91  5  7  1 16  0.0070000  0  4 12  6 13  2
  23491845.236   -15870134.266 8 -12366316.696 9
  25671344.799     4928448.692 5   3840376.866 2
  23218477.986    -5511625.826 8  -4294758.031 7
  25885742.275     9287272.470 5   7236845.525 2
 91  5  7  1 16 30.0070000  0  4 12  6 13  2
  23484547.389   -15908488.694 8 -12396203.214 9
  25696369.677     5059964.475 5   3942856.813 3
  23232079.863    -5440156.860 8  -4239067.951 6
  25904100.664     9383763.586 4   7312033.195 2
 91  5  7  1 17  0.0070000  0  4 12  6 13  2
  23477340.379   -15946346.684 8 -12425702.910 9
  25721442.516     5191710.839 5   4045516.398 4
  23245718.927    -5368480.314 8  -4183216.128 7
  25922501.927     9480463.784 5   7387383.779 2
 91  5  7  1 17 30.0070000  0  4 12  6 13  2
  23470234.991   -15983700.278 8 -12454809.547 9
  25746554.933     5323690.833 5   4148358.043 4
  23259397.857    -5296592.757 8  -4127199.891 7
  25940946.659     9577378.417 5   7462901.493 3
 91  5  7  1 18  0.0070000  0  4 12  6 13  2
  23463222.246   -16020544.735 8 -12483519.470 9
  25771717.108     5455903.908 5   4251381.305 4
  23273119.652    -5224494.056 8  -4071019.124 7
  25959438.454     9674509.257 5   7538587.680 3
 91  5  7  1 18 30.0070000  0  4 12  6 13  2
  23456308.434   -16056879.118 8 -12511831.924 9
  25796932.952     5588345.869 5   4354582.935 4
  23286880.126    -5152187.833 8  -4014676.633 7
  25977954.234     9771854.567 5   7614440.974 3
 91  5  7  1 19  0.0070000  0  4 12  6 13  2
  23449491.454   -16092700.759 8 -12539744.851 9
  25822170.085     5721014.184 5   4457960.903 4
  23300675.378    -5079675.717 8  -3958173.717 7
  25996523.979     9869413.800 5   7690460.963 2
 91  5  7  1 19 30.0070000  0  4 12  6 13  2
  23442773.705   -16128008.166 8 -12567257.071 9
  25847449.186     5853905.010 5   4561512.280 3
  23314514.395    -5006960.729 8  -3901512.719 7
  26015126.705     9967185.426 5   7766646.468 1
 91  5  7  1 20  0.0070000  0  4 12  6 13  2
  23436153.389   -16162798.340 8 -12594366.259 9
  25872789.738     5987016.435 5   4665235.534 4
  23328388.496    -4934044.149 9  -3844694.628 7
  26033773.197    10065169.902 4   7842997.817 2
 91  5  7  1 20 30.0070000  0  4 12  6 13  2
  23429632.601   -16197065.930 8 -12621068.238 9
  25898158.480     6120348.540 5   4769130.724 3
  23342303.056    -4860925.567 8  -3787719.139 7
  26052459.562    10163369.419 4   7919516.737 2
 91  5  7  1 21  0.0070000  0  4 12  6 13  2
  23423209.254   -16230815.265 8 -12647366.385 9
  25923580.577     6253892.004 5   4873190.623 3
  23356254.801    -4787613.502 8  -3730592.882 7
  26071193.592    10261777.283 5   7996197.953 2
 91  5  7  1 21 30.0070000  0  4 12  6 13  2
  23416887.223   -16264045.211 8 -12673259.817 9
  25949023.666     6387642.744 5   4977412.018 3
  23370241.919    -4714111.569 8  -3673318.683 7
  26089951.599    10360391.543 5   8073040.037 3
 91  5  7  1 22  0.0070000  0  4 12  6 13  2
  23410662.931   -16296748.847 8 -12698743.133 9
  25974512.022     6521602.416 5   5081796.253 3
  23384266.807    -4640417.197 8  -3615894.526 7
  26108757.882    10459216.209 5   8150046.089 2
 91  5  7  1 22 30.0070000  0  4 12  6 13  2
  23404539.074   -16328929.208 8 -12723818.704 9
  26000044.142     6655762.987 5   5186336.971 2
  23398322.879    -4566537.377 8  -3558325.853 7
  26127598.637    10558245.445 5   8227211.496 2
 91  5  7  1 23  0.0070000  0  4 12  6 13  2
  23398509.352   -16360610.795 8 -12748505.623 9
  26025607.742     6790094.905 5   5291011.254 4
  23412411.024    -4492501.077 8  -3500635.252 7
  26146488.559    10657451.801 5   8304514.974 2
